[[[{"header":{"parameterUnit":"kt","parameterCategory":2,"dx":1,"dy":1,"la1":29.587661999999998,"la2":31.0,"lo1":-88.76705300000003,"lo2":-86.6583820000003,"nx":115,"ny":88,"refTime":"2022-09-30T06:00:00:Z","depth":0,"parameterNumber":1,"parameterNumberName":"U-component_of_WINDS"},"data":[11.2701,11.2701,11.2701,11.2701,11.2701,11.2701,11.2701,11.2701,11.2701,11.2701,11.2701,11.2701,11.2701,11.2701,11.2701,11.2701,11.2701,11.2701,11.2701,11.2701,11.2701,11.2701,11.2701,11.2701,11.2701,11.2701,11.2701,11.2701,11.2701,11.2701,11.2701,11.2701,11.2701,11.2701,11.2665,11.2165,11.1987,11.1809,11.1844,11.1238,11.0703,10.9882,10.8205,10.7706,10.7563,10.7385,10.7206,10.7171,10.6422,10.5423,10.4388,10.396,10.3889,10.3996,10.4031,10.421,10.4138,10.4103,10.4174,10.421,10.4281,10.3782,10.3782,10.3603,10.3567,10.3425,10.3425,10.3425,10.3425,10.3425,10.3425,10.3425,10.3425,10.3425,10.3425,10.3425,10.3425,10.3425,10.3425,10.3425,10.3425,10.3425,10.3425,10.3425,10.3425,10.3425,10.3425,10.3425,10.3425,10.3425,10.3425,10.3425,10.3425,10.3425,10.3425,10.3425,10.3425,10.3425,10.3425,10.3425,10.3425,10.3425,10.3425,10.3425,10.3471,10.3678,10.3964,10.4749,10.5061,10.562,10.5784,10.5757,10.5657,10.5593,10.5331,11.2701,11.2701,11.2701,11.2701,11.2701,11.2701,11.2701,11.2701,11.2701,11.2701,11.2701,11.2701,11.2701,11.2701,11.2701,11.2701,11.2701,11.2701,11.2594,11.2594,11.2522,11.213,11.2165,11.2379,11.2201,11.2165,11.2165,11.2201,11.213,11.213,11.213,11.2629,11.2701,11.2629,11.2308,11.163,11.0686,11.0472,10.9953,10.9077,10.8541,10.822,10.7148,10.635,10.5922,10.528,10.4459,10.4067,10.4103,10.3639,10.3639,10.3425,10.3425,10.3425,10.3425,10.3425,10.3425,10.3425,10.3425,10.3425,10.3425,10.3425,10.346,10.346,10.346,10.3425,10.3425,10.3425,10.3425,10.3425,10.3425,10.3425,10.3425,10.3425,10.3425,10.3425,10.3425,10.3425,10.3425,10.3425,10.3425,10.3425,10.3425,10.3425,10.3425,10.3425,10.3425,10.3425,10.3425,10.3425,10.3425,10.3425,10.3425,10.3425,10.3425,10.3425,10.3425,10.3425,10.3425,10.3425,10.3425,10.3425,10.3425,10.3425,10.3552,10.3722,10.4006,10.4123,10.482,10.5528,10.5434,10.5202,10.5029,10.4714,10.446,11.2701,11.2701,11.2701,11.2701,11.2701,11.2701,11.2701,11.2701,11.2701,11.2701,11.2701,11.2701,11.2701,11.2701,11.2701,11.2701,11.2701,11.2665,11.2094,11.1595,11.1238,11.1024,11.0382,10.9953,11.0365,11.0205,11.0187,11.0275,10.9918,11.0239,11.031,10.9989,11.0025,10.9989,10.9918,10.9597,10.9169,10.9117,10.8577,10.7184,10.5458,10.5387,10.4923,10.4816,10.4459,10.4245,10.3532,10.3425,10.3425,10.3425,10.3425,10.3425,10.3425,10.3425,10.3425,10.3425,10.3425,10.3425,10.3425,10.3425,10.3425,10.3425,10.3425,10.3425,10.3425,10.2961,10.2961,10.2879,10.2879,10.2772,10.2772,10.289,10.289,10.3068,10.3139,10.3318,10.3425,10.3425,10.3425,10.3425,10.3425,10.3425,10.3425,10.3425,10.3425,10.3425,10.3425,10.3425,10.3425,10.3425,10.3425,10.3425,10.3425,10.3425,10.3425,10.3425,10.3425,10.3425,10.3425,10.3425,10.3425,10.3425,10.3425,10.3389,10.34,10.3463,10.3499,10.3722,10.431,10.4133,10.4207,10.4244,10.4234,10.3887,10.2738,11.163,11.163,11.163,11.188,11.2165,11.2558,11.2701,11.2665,11.2023,11.1488,11.1595,11.1506,11.147,11.1238,11.1202,11.1166,11.1273,11.0881,11.0774,11.0168,10.9846,10.9398,10.8483,10.8684,10.844,10.8052,10.8104,10.8455,10.8598,10.8419,10.817,10.817,10.8348,10.8577,10.8519,10.7706,10.7541,10.7506,10.684,10.5399,10.4103,10.3603,10.3425,10.3496,10.3532,10.3532,10.3496,10.3425,10.3425,10.3425,10.3425,10.3425,10.3425,10.3425,10.3425,10.3425,10.3425,10.3425,10.3425,10.3425,10.3425,10.3425,10.3425,10.3425,10.3104,10.2604,10.2202,10.212,10.2084,10.2059,10.1988,10.2023,10.214,10.2462,10.2747,10.3068,10.3425,10.3425,10.3425,10.3425,10.3425,10.3425,10.3425,10.3425,10.3425,10.3425,10.3389,10.3425,10.3425,10.3282,10.3246,10.3175,10.3246,10.3175,10.3425,10.3425,10.3425,10.3425,10.3246,10.3318,10.3425,10.3282,10.3139,10.3211,10.2747,10.2078,10.1864,10.2354,10.2283,10.196,10.1937,10.1733,10.1781,10.1984,10.0683,10.8455,10.8562,10.8419,10.9418,11.0667,11.1951,11.2522,11.2415,10.9775,10.8491,10.8618,10.8533,10.8799,10.9204,10.9169,10.9062,10.9169,10.9204,10.8919,10.8277,10.8241,10.7863,10.7554,10.7947,10.7242,10.7742,10.7813,10.7099,10.7706,10.7492,10.7278,10.8063,10.7742,10.7398,10.7138,10.6363,10.597,10.5792,10.5006,10.4281,10.3603,10.3425,10.3425,10.3425,10.3425,10.3425,10.3425,10.3425,10.3425,10.3425,10.3425,10.3425,10.3425,10.3425,10.3425,10.3425,10.3425,10.3425,10.3425,10.3139,10.3211,10.3211,10.3389,10.2854,10.19,10.1043,10.0419,10.0268,10.0329,10.0374,10.0384,10.0464,10.0713,10.107,10.132,10.1605,10.1926,10.214,10.214,10.2095,10.2095,10.2202,10.2273,10.2711,10.264,10.3139,10.3282,10.3389,10.3318,10.3032,10.289,10.2783,10.2497,10.2247,10.239,10.2247,10.2676,10.3032,10.2961,10.2854,10.2105,10.2319,10.2747,10.2033,10.1249,10.0606,10.0178,10.0107,10.0107,10.0071,10.0071,9.9536,9.9352,9.9513,9.8866,10.8063,10.8063,10.8063,10.8419,10.9026,10.9668,10.9918,10.9755,10.8675,10.8055,10.8063,10.7961,10.8119,10.792,10.7884,10.7884,10.7884,10.7706,10.7313,10.6921,10.6636,10.6149,10.5518,10.5185,10.5458,10.5244,10.5209,10.5637,10.5102,10.5209,10.5387,10.5458,10.528,10.522,10.5267,10.4935,10.4506,10.4138,10.3817,10.3532,10.3425,10.3425,10.3425,10.3425,10.3425,10.3425,10.3425,10.3425,10.3425,10.3425,10.3425,10.3425,10.3389,10.3389,10.3389,10.3164,10.3211,10.3139,10.2961,10.2497,10.2105,10.1748,10.1034,10.0757,9.9872,9.9378,9.8823,9.8344,9.8478,9.8585,9.8708,9.8787,9.9179,9.9536,9.975,9.9964,10.0321,10.0678,10.0749,10.0704,10.0776,10.0802,10.1132,10.1596,10.1998,10.214,10.2319,10.2569,10.2533,10.1998,10.157,10.1498,10.1249,10.1106,10.0499,10.0214,10.0499,10.0785,10.1177,10.1213,10.0571,10.0499,10.0749,10.0321,9.975,9.9429,9.9072,9.868,9.8252,9.8965,9.9144,9.8166,9.7463,9.7631,9.7847,10.6743,10.6707,10.6707,10.6992,10.7278,10.6921,10.6707,10.6707,10.678,10.6709,10.6707,10.6743,10.6422,10.6707,10.6743,10.6636,10.6636,10.6529,10.5886,10.5494,10.5066,10.4352,10.3924,10.371,10.3532,10.3567,10.3603,10.3817,10.3603,10.3567,10.3639,10.3425,10.3889,10.3746,10.3675,10.346,10.3532,10.3496,10.3532,10.3425,10.3425,10.3425,10.3425,10.3425,10.3425,10.3425,10.3425,10.3425,10.3425,10.3425,10.3425,10.295,10.2915,10.2772,10.2298,10.2227,10.213,10.214,10.1926,10.1025,10.0419,10.0178,9.843,9.7692,9.7379,9.72,9.7085,9.6718,9.6605,9.6498,9.6427,9.6718,9.7039,9.7538,9.8002,9.8537,9.9393,9.9607,9.9657,9.9615,9.9564,9.9635,9.9564,10.0036,10.0464,10.0749,10.1034,10.1391,10.1284,10.0214,9.9679,9.9643,9.9572,9.9821,9.9251,9.868,9.8644,9.8644,9.9179,9.9393,9.9179,9.9108,9.8894,9.8644,9.8323,9.8073,9.7788,9.711,9.6325,9.7074,9.7544,9.6456,9.5757,9.614,9.6395,10.3603,10.3567,10.3603,10.4531,10.5423,10.4495,10.3817,10.3675,10.3675,10.3746,10.3746,10.396,10.4138,10.3853,10.3782,10.396,10.4103,10.4031,10.3889,10.3782,10.3924,10.371,10.3496,10.3425,10.3425,10.3425,10.3425,10.3425,10.3425,10.3425,10.3425,10.3425,10.3425,10.3425,10.3425,10.3425,10.3425,10.3425,10.3425,10.3425,10.3425,10.3425,10.3425,10.3425,10.3353,10.3318,10.3032,10.2915,10.2986,10.2879,10.3022,10.2262,10.1646,10.1101,10.0165,9.949,9.9235,9.9386,9.9465,9.9261,9.8799,9.8073,9.5968,9.472,9.4509,9.4938,9.5152,9.5041,9.5112,9.4755,9.4506,9.4898,9.5291,9.5719,9.629,9.6967,9.7931,9.8222,9.8157,9.8085,9.8002,9.7888,9.7788,9.8394,9.8823,9.8858,9.8716,9.9072,9.8537,9.761,9.7538,9.7538,9.7788,9.8216,9.8216,9.7717,9.7503,9.7074,9.7538,9.7538,9.8145,9.818,9.7538,9.7039,9.6825,9.6432,9.5861,9.5219,9.472,9.4684,9.5219,9.4733,9.5777,9.5775,9.6227,10.3425,10.3425,10.3425,10.3782,10.4103,10.3675,10.3425,10.3425,10.3425,10.3425,10.3425,10.3425,10.3425,10.3425,10.3425,10.3425,10.3425,10.3425,10.3425,10.3425,10.3425,10.3425,10.3425,10.3425,10.3425,10.3425,10.3425,10.3425,10.3425,10.3425,10.3425,10.3425,10.3425,10.3425,10.3425,10.3425,10.3425,10.3425,10.3425,10.3425,10.3425,10.3318,10.3353,10.3318,10.3139,10.2854,10.2212,10.1738,10.1407,10.0517,10.0222,10.0023,9.9821,9.9501,9.927,9.9021,9.8744,9.8716,9.8216,9.7845,9.6748,9.604,9.4755,9.3971,9.3935,9.3935,9.3935,9.3935,9.4042,9.4078,9.4149,9.4113,9.4363,9.4399,9.4791,9.4827,9.554,9.5647,9.5616,9.5437,9.5362,9.5398,9.5433,9.6325,9.7146,9.6753,9.6361,9.5861,9.5433,9.5219,9.5112,9.5184,9.5398,9.579,9.6004,9.6183,9.6111,9.5647,9.5362,9.5148,9.5719,9.6504,9.5933,9.5362,9.5326,9.5077,9.4185,9.3935,9.4185,9.4149,9.3935,9.4618,9.5642,9.6171,9.6647,10.3425,10.3425,10.3425,10.3425,10.3425,10.3425,10.3425,10.3425,10.3425,10.3425,10.3425,10.3425,10.3425,10.3425,10.3425,10.3425,10.3425,10.3425,10.3425,10.3425,10.3425,10.3425,10.3425,10.3425,10.3425,10.3425,10.3425,10.3425,10.3425,10.3425,10.3425,10.3425,10.3425,10.3425,10.3389,10.3425,10.3389,10.3389,10.3389,10.3389,10.3353,10.2854,10.2533,10.2497,10.1855,10.1177,10.0392,10.0293,9.9979,9.9264,9.9151,9.8744,9.8059,9.796,9.7687,9.7074,9.7039,9.711,9.6718,9.6366,9.4973,9.4509,9.3935,9.3935,9.3935,9.3935,9.3935,9.3935,9.3935,9.3935,9.3935,9.3935,9.3935,9.3935,9.3935,9.3935,9.3935,9.3935,9.3935,9.3935,9.3935,9.422,9.4363,9.5255,9.5505,9.5219,9.5148,9.4577,9.447,9.4113,9.3971,9.3935,9.3935,9.3935,9.4006,9.4684,9.4791,9.4755,9.4363,9.3935,9.3935,9.447,9.4363,9.4648,9.4292,9.3935,9.3935,9.3935,9.3935,9.3935,9.3935,9.4374,9.5177,9.5882,9.654,10.3425,10.3425,10.3425,10.3425,10.3425,10.3425,10.3425,10.3425,10.3425,10.3425,10.3425,10.3425,10.3425,10.3425,10.3425,10.3425,10.3425,10.3425,10.3425,10.3425,10.3425,10.3425,10.3425,10.3425,10.3425,10.3425,10.3425,10.3425,10.3425,10.3425,10.3425,10.3425,10.2818,10.264,10.3175,10.3246,10.3246,10.3211,10.2997,10.2808,10.2451,10.157,10.1142,10.082,10.0143,9.9465,9.8865,9.877,9.8381,9.7809,9.7733,9.7263,9.6473,9.637,9.5798,9.4613,9.4399,9.4256,9.4078,9.4042,9.4078,9.3971,9.3935,9.3935,9.3935,9.3935,9.3935,9.3935,9.3935,9.3935,9.3935,9.3935,9.3935,9.3935,9.3935,9.3935,9.3935,9.3935,9.3935,9.3935,9.3935,9.3935,9.3971,9.4006,9.4149,9.4113,9.3971,9.3971,9.4042,9.3935,9.3935,9.3935,9.3935,9.3935,9.3935,9.3935,9.3935,9.3935,9.3935,9.3935,9.3935,9.3935,9.3935,9.3971,9.3935,9.3935,9.3935,9.3935,9.3935,9.3935,9.3935,9.4085,9.4651,9.5269,9.5822,10.3425,10.3425,10.3425,10.3425,10.3425,10.3425,10.3425,10.3425,10.3353,10.3425,10.3425,10.3425,10.3425,10.3425,10.3353,10.3282,10.3139,10.3175,10.3282,10.3211,10.3139,10.3425,10.3425,10.3282,10.2997,10.3425,10.3425,10.3246,10.3104,10.3353,10.3175,10.2462,10.1463,10.0606,10.0357,10.0107,10.0122,10.0129,10.0158,10.017,10.0212,9.9662,9.9465,9.9286,9.8823,9.8073,9.733,9.7089,9.6663,9.598,9.5513,9.5191,9.4866,9.4616,9.4438,9.4113,9.3971,9.3971,9.3935,9.3935,9.3935,9.3935,9.3935,9.3935,9.3935,9.3935,9.3935,9.3935,9.3935,9.3935,9.3935,9.3935,9.3935,9.3935,9.3935,9.3935,9.3935,9.3935,9.3935,9.3935,9.3935,9.3935,9.3935,9.3971,9.4042,9.4006,9.3935,9.3935,9.3935,9.3935,9.3935,9.3935,9.3935,9.3935,9.3935,9.3935,9.3935,9.3935,9.3935,9.3935,9.3935,9.3935,9.3935,9.3935,9.3935,9.3935,9.3935,9.3935,9.3935,9.3935,9.4012,9.4049,9.4582,9.4849,9.5305,10.2533,10.2462,10.1855,10.1641,10.1641,10.1641,10.1677,10.1641,10.1641,10.1641,10.1534,10.1641,10.1641,10.157,10.1641,10.1641,10.1641,10.1641,10.1534,10.1605,10.1641,10.1641,10.1605,10.1463,10.1712,10.1498,10.1534,10.1641,10.1748,10.1284,10.157,10.1249,9.9857,9.8894,9.8716,9.9079,9.8949,9.8958,9.8836,9.8815,9.8612,9.8352,9.7859,9.7717,9.7467,9.629,9.5683,9.5548,9.4866,9.4256,9.4113,9.4113,9.4078,9.4078,9.4006,9.3935,9.3935,9.3935,9.3935,9.3935,9.3935,9.3935,9.3935,9.3935,9.3935,9.3935,9.3935,9.3935,9.3935,9.3935,9.3935,9.3935,9.3935,9.3935,9.3935,9.3935,9.3935,9.3935,9.3935,9.3935,9.3935,9.3935,9.3935,9.3935,9.3935,9.3935,9.3935,9.3935,9.3935,9.3935,9.3935,9.3935,9.3935,9.3935,9.3935,9.3935,9.3935,9.3935,9.3935,9.3935,9.3935,9.3935,9.3935,9.3935,9.3935,9.3935,9.3935,9.3935,9.3935,9.3935,9.4012,9.4122,9.4267,9.4443,9.4952,10.0856,10.0642,9.9358,9.893,9.8965,9.8787,9.8858,9.9215,9.9001,9.9037,9.9251,9.8965,9.9215,9.9072,9.9322,9.9215,9.893,9.8787,9.9179,9.9144,9.8823,9.9251,9.9393,9.9429,9.9179,9.9179,9.9465,9.9358,9.893,9.9072,9.8394,9.8394,9.7788,9.8145,9.8002,9.758,9.7625,9.7665,9.7692,9.7895,9.7574,9.6967,9.6218,9.5861,9.4863,9.3935,9.3971,9.4149,9.4006,9.4006,9.3935,9.3935,9.3935,9.3935,9.3935,9.3935,9.3935,9.3935,9.3935,9.3935,9.3935,9.3935,9.3935,9.3935,9.3935,9.3935,9.3935,9.3935,9.3935,9.3935,9.3935,9.3935,9.3935,9.3935,9.3935,9.3935,9.3935,9.3935,9.3935,9.3935,9.3935,9.3935,9.3935,9.3935,9.3935,9.3935,9.3935,9.3935,9.3935,9.3935,9.3935,9.3935,9.3935,9.3935,9.3935,9.3935,9.3935,9.3935,9.3935,9.3935,9.3935,9.3935,9.3935,9.3935,9.3935,9.3935,9.3935,9.3935,9.3935,9.3935,9.3935,9.3974,9.4049,9.4195,9.4548,9.8609,9.7645,9.843,9.8787,9.8787,9.8787,9.8716,9.8716,9.8615,9.8687,9.8787,9.8637,9.8673,9.8751,9.8537,9.8394,9.8644,9.8787,9.8787,9.8787,9.8787,9.8573,9.8359,9.8537,9.8537,9.8823,9.8287,9.8323,9.7788,9.6718,9.5469,9.5112,9.5612,9.5398,9.5219,9.5362,9.5545,9.5513,9.5545,9.5433,9.5291,9.4827,9.4684,9.447,9.4185,9.3935,9.3935,9.3935,9.3935,9.3935,9.3935,9.3935,9.3935,9.3935,9.3935,9.3935,9.3935,9.3935,9.3935,9.3935,9.3935,9.3935,9.3935,9.3935,9.3935,9.3935,9.3935,9.3935,9.3935,9.3935,9.3935,9.3935,9.3935,9.3935,9.3935,9.3935,9.3935,9.3935,9.3935,9.3935,9.3935,9.3935,9.3935,9.3935,9.3935,9.3935,9.3935,9.3935,9.3935,9.3935,9.3935,9.3935,9.3935,9.3935,9.3935,9.3935,9.3935,9.3935,9.3935,9.3935,9.3935,9.3935,9.3935,9.3935,9.3935,9.3935,9.3935,9.3935,9.3935,9.3935,9.3935,9.3935,9.3935,9.3899,9.4267,9.6111,9.5362,9.629,9.6646,9.6646,9.6646,9.6682,9.6646,9.6651,9.6687,9.6646,9.6641,9.6641,9.6504,9.6646,9.6718,9.6646,9.6504,9.6646,9.6504,9.6504,9.6575,9.6718,9.6646,9.6682,9.6432,9.6611,9.686,9.6218,9.4791,9.3935,9.4042,9.4006,9.3935,9.4256,9.4006,9.3935,9.3935,9.3935,9.3935,9.3935,9.3935,9.3935,9.3935,9.3935,9.3935,9.3935,9.3935,9.3935,9.3935,9.3935,9.3935,9.3935,9.3935,9.3935,9.3935,9.3935,9.3935,9.3935,9.3935,9.3935,9.3935,9.3935,9.3935,9.3935,9.3935,9.3935,9.3935,9.3935,9.3935,9.3935,9.3935,9.3935,9.3935,9.3935,9.3935,9.3935,9.3935,9.3935,9.3935,9.3935,9.3935,9.3935,9.3935,9.3935,9.3935,9.3935,9.3935,9.3935,9.3935,9.3935,9.3935,9.3935,9.3935,9.3935,9.3935,9.3935,9.3935,9.3935,9.3935,9.3935,9.3935,9.3935,9.3935,9.3935,9.3935,9.3935,9.3935,9.3935,9.3935,9.3935,9.3935,9.3935,9.3974,9.4548,9.3935,9.3935,9.3971,9.3935,9.4042,9.4113,9.4042,9.4113,9.4185,9.3935,9.4327,9.4078,9.422,9.4256,9.422,9.4078,9.4113,9.4363,9.4506,9.4577,9.447,9.447,9.4149,9.3935,9.447,9.4613,9.4363,9.3935,9.422,9.4256,9.3935,9.3935,9.3935,9.3935,9.3935,9.3935,9.3935,9.3935,9.3935,9.3935,9.3935,9.3935,9.3935,9.3935,9.3935,9.3935,9.3935,9.3935,9.3935,9.3935,9.3935,9.3935,9.3935,9.3935,9.3935,9.3935,9.3935,9.3935,9.3935,9.3935,9.3935,9.3935,9.3935,9.3935,9.3935,9.3935,9.3935,9.3935,9.3935,9.3935,9.3935,9.3935,9.3935,9.3935,9.3935,9.3935,9.3935,9.3935,9.3935,9.3935,9.3935,9.3935,9.3935,9.3935,9.3935,9.3935,9.3935,9.3935,9.3935,9.3935,9.3935,9.3935,9.3935,9.3935,9.3935,9.3935,9.3935,9.3935,9.3935,9.3935,9.3935,9.3935,9.3935,9.3935,9.3935,9.3935,9.3935,9.3935,9.3935,9.3935,9.3935,9.3935,9.3899,9.4479,9.5083,9.3935,9.3935,9.3935,9.3935,9.3935,9.3935,9.3935,9.3935,9.3935,9.3935,9.3935,9.3935,9.3935,9.3935,9.3935,9.3935,9.3935,9.3935,9.3935,9.3935,9.3935,9.3935,9.3935,9.3935,9.3935,9.3935,9.3935,9.3935,9.3935,9.3935,9.3935,9.3935,9.3935,9.3935,9.3935,9.3935,9.3935,9.3935,9.3935,9.3935,9.3935,9.3935,9.3935,9.3935,9.3935,9.3935,9.3971,9.4012,9.4014,9.3899,9.3935,9.3935,9.3935,9.3935,9.3935,9.3935,9.3935,9.3935,9.3935,9.3935,9.3935,9.3935,9.3935,9.3935,9.3935,9.3935,9.3935,9.3935,9.3935,9.3935,9.3935,9.3935,9.3935,9.3935,9.3935,9.3935,9.3935,9.3935,9.3935,9.3935,9.3935,9.3935,9.3935,9.3935,9.3935,9.3935,9.3935,9.3935,9.3935,9.3935,9.3935,9.3935,9.3935,9.3935,9.3935,9.3935,9.3935,9.3935,9.3935,9.3935,9.3935,9.3935,9.3935,9.3935,9.3935,9.3935,9.3935,9.3935,9.3935,9.3935,9.3935,9.4048,9.4267,9.4787,9.5368,9.3935,9.3935,9.3935,9.3935,9.3935,9.3935,9.3935,9.3935,9.3935,9.3935,9.3935,9.3935,9.3935,9.3935,9.3935,9.3935,9.3935,9.3935,9.3935,9.3935,9.3935,9.3935,9.3935,9.3935,9.3935,9.3935,9.3935,9.3935,9.3935,9.3935,9.3935,9.3935,9.3935,9.3935,9.3935,9.3935,9.3935,9.3935,9.3935,9.3935,9.3935,9.3935,9.4149,9.4371,9.4518,9.4482,9.4446,9.4444,9.4222,9.394,9.3935,9.3935,9.3935,9.3935,9.3935,9.3935,9.3935,9.3935,9.3935,9.3935,9.3864,9.3899,9.3935,9.3935,9.3935,9.3792,9.3935,9.3935,9.3935,9.3935,9.3935,9.3935,9.3935,9.3935,9.3935,9.3935,9.3935,9.3935,9.3935,9.3935,9.3935,9.3935,9.3935,9.3935,9.3935,9.3935,9.3935,9.3935,9.3935,9.3935,9.3935,9.3935,9.3935,9.3935,9.3935,9.3935,9.3935,9.3935,9.3935,9.3935,9.3935,9.3935,9.3935,9.3935,9.3935,9.3935,9.3935,9.3935,9.3935,9.3935,9.3935,9.4048,9.4444,9.4952,9.5556,9.3935,9.3935,9.3935,9.3935,9.3935,9.3935,9.3935,9.3935,9.3935,9.3935,9.3935,9.3935,9.3935,9.3935,9.3935,9.3935,9.3935,9.3935,9.3935,9.3935,9.3935,9.3935,9.3935,9.3935,9.3935,9.3935,9.3935,9.3935,9.3935,9.3935,9.3935,9.3935,9.3935,9.3935,9.3935,9.3935,9.3935,9.3935,9.3935,9.4012,9.4122,9.4195,9.4481,9.487,9.4895,9.4823,9.4827,9.4742,9.4524,9.3978,9.3899,9.4006,9.4113,9.4149,9.4042,9.3971,9.3935,9.3935,9.3792,9.3685,9.3471,9.3471,9.2972,9.29,9.2936,9.2936,9.2793,9.3079,9.329,9.3575,9.3864,9.3935,9.3935,9.3935,9.3935,9.3935,9.3935,9.3935,9.3935,9.3935,9.3935,9.3935,9.3935,9.3935,9.3935,9.3935,9.3935,9.3935,9.3935,9.3935,9.3935,9.3935,9.3935,9.3935,9.3935,9.3935,9.3935,9.3935,9.3935,9.3935,9.3935,9.3935,9.3935,9.3935,9.3935,9.3935,9.3935,9.3935,9.3935,9.3935,9.3899,9.3974,9.4408,9.4952,9.5581,9.3935,9.3935,9.3935,9.3935,9.3935,9.3935,9.3935,9.3935,9.3935,9.3935,9.3935,9.3935,9.3935,9.3935,9.3935,9.3935,9.3935,9.3935,9.3935,9.3935,9.3935,9.3935,9.3935,9.3935,9.3935,9.3935,9.3935,9.3935,9.3935,9.3935,9.3935,9.3935,9.3935,9.3935,9.3935,9.3935,9.3935,9.3935,9.3899,9.4122,9.4683,9.4801,9.4842,9.5041,9.5078,9.4823,9.4524,9.4358,9.4159,9.3899,9.3935,9.4256,9.4652,9.4831,9.4616,9.3899,9.3578,9.34,9.315,9.2579,9.1937,9.1828,9.0902,9.0153,9.0153,9.0367,9.0902,9.1509,9.1968,9.2321,9.3721,9.3685,9.3757,9.3828,9.3864,9.3935,9.3935,9.3935,9.3828,9.3864,9.3935,9.3935,9.3935,9.3935,9.3935,9.3935,9.3935,9.3935,9.3935,9.3935,9.3935,9.3935,9.3935,9.3935,9.3935,9.3935,9.3935,9.3935,9.3935,9.3935,9.3935,9.3935,9.3935,9.3935,9.3935,9.3935,9.3935,9.3935,9.3935,9.3935,9.3974,9.4048,9.4408,9.4916,9.5786,9.3935,9.3935,9.3935,9.3935,9.3935,9.3935,9.3935,9.3935,9.3935,9.3935,9.3935,9.3935,9.3935,9.3935,9.3935,9.3935,9.3935,9.3935,9.3935,9.3935,9.3935,9.3935,9.3935,9.3935,9.3935,9.3935,9.3935,9.3935,9.3935,9.3935,9.3935,9.3935,9.3935,9.3935,9.3935,9.3935,9.3935,9.3935,9.3899,9.4231,9.4945,9.5051,9.501,9.4995,9.5015,9.5132,9.512,9.5092,9.5126,9.5149,9.5151,9.5348,9.5531,9.4529,9.3688,9.304,9.2256,9.1438,9.1402,9.076,9.0332,9.0296,8.9654,8.9333,8.919,8.9188,8.9687,9.0118,9.0399,9.0575,9.1294,9.1971,9.2612,9.2755,9.34,9.3899,9.3757,9.3114,9.2829,9.3721,9.3792,9.3864,9.3899,9.3935,9.3935,9.3935,9.3935,9.3935,9.3935,9.3935,9.3935,9.3935,9.3935,9.3935,9.3935,9.3935,9.3935,9.3935,9.3935,9.3935,9.3935,9.3935,9.3935,9.3935,9.3935,9.3935,9.3935,9.3935,9.3935,9.3935,9.3974,9.4085,9.4374,9.4818,9.5666,9.3935,9.3935,9.3935,9.3935,9.3935,9.3935,9.3935,9.3935,9.3935,9.3935,9.3935,9.3935,9.3935,9.3935,9.3935,9.3935,9.3935,9.3935,9.3935,9.3935,9.3935,9.3935,9.3935,9.3935,9.3935,9.3935,9.3935,9.3935,9.3935,9.3935,9.3935,9.3935,9.3935,9.3935,9.3935,9.3935,9.3935,9.3935,9.4113,9.4589,9.5213,9.537,9.5567,9.5925,9.5568,9.5695,9.6131,9.62,9.6393,9.661,9.6672,9.6301,9.5588,9.4266,9.3046,9.2118,9.0474,8.9508,8.9261,8.9083,8.8761,8.8618,8.8225,8.8192,8.8193,8.8006,8.8221,8.8725,8.8726,8.8974,8.9618,9.0472,9.0935,9.1222,9.1973,9.2651,9.2651,9.1723,9.1545,9.2437,9.2933,9.3361,9.3328,9.3471,9.3935,9.3935,9.3935,9.3935,9.3935,9.3935,9.3935,9.3935,9.3935,9.3935,9.3935,9.3935,9.3935,9.3935,9.3935,9.3935,9.3935,9.3935,9.3935,9.3935,9.3792,9.3935,9.3935,9.3899,9.3721,9.3864,9.3935,9.3974,9.4195,9.4751,9.5457,9.3935,9.3935,9.3935,9.3935,9.3935,9.3935,9.3935,9.3935,9.3935,9.3935,9.3935,9.3935,9.3935,9.3935,9.3935,9.3935,9.3935,9.3935,9.3935,9.3935,9.3935,9.3935,9.3935,9.3935,9.3935,9.3935,9.3935,9.3935,9.3935,9.3935,9.3935,9.3935,9.3935,9.3935,9.3935,9.3935,9.3935,9.4006,9.4438,9.5086,9.569,9.5935,9.6434,9.7128,9.6541,9.6197,9.6186,9.6339,9.6766,9.8175,9.8293,9.6949,9.5113,9.4826,9.3323,9.1027,9.0015,8.9404,8.9079,8.7761,8.7121,8.6942,8.5872,8.5052,8.5408,8.5583,8.6043,8.7049,8.7089,8.7658,8.8582,8.9119,8.9369,8.9547,8.9475,8.9725,8.9654,8.9582,8.9511,8.9761,9.1078,9.1648,9.2185,9.2936,9.3828,9.3114,9.34,9.3543,9.3792,9.3864,9.3935,9.3935,9.3935,9.3935,9.3935,9.3935,9.3935,9.3899,9.3899,9.3721,9.3721,9.315,9.3471,9.3435,9.2686,9.2651,9.3007,9.3293,9.3471,9.3364,9.2651,9.315,9.3728,9.3699,9.416,9.3935,9.3935,9.3935,9.3935,9.3935,9.3935,9.3935,9.3935,9.3935,9.3935,9.3935,9.3935,9.3935,9.3935,9.3899,9.3899,9.3935,9.3935,9.3899,9.3899,9.3864,9.3864,9.3864,9.3935,9.3935,9.3935,9.3935,9.3899,9.3935,9.3935,9.3935,9.3935,9.3935,9.3935,9.3935,9.3935,9.3935,9.3971,9.4224,9.4768,9.5508,9.5972,9.6702,9.6871,9.713,9.6627,9.6371,9.6694,9.6874,9.6986,9.7024,9.6164,9.422,9.2831,9.1462,9.0277,8.8373,8.7406,8.6921,8.6177,8.5619,8.5373,8.5052,8.4588,8.4516,8.4552,8.4624,8.548,8.5519,8.5908,8.644,8.6514,8.6978,8.762,8.7049,8.6907,8.7834,8.7868,8.8259,8.9047,8.9761,9.0224,9.0188,9.0724,9.1509,9.2258,9.2579,9.2972,9.3507,9.3828,9.3935,9.3935,9.3935,9.3935,9.3935,9.3935,9.3935,9.3899,9.3792,9.3364,9.2686,9.1438,9.1366,9.1045,9.1117,9.1045,9.0795,9.0831,9.1509,9.1794,9.1259,9.1224,9.1629,9.182,9.2615,9.2651,9.2686,9.2651,9.2686,9.2686,9.2686,9.2651,9.2651,9.2615,9.2437,9.2577,9.2645,9.2467,9.2651,9.2579,9.2936,9.3114,9.3221,9.34,9.3792,9.3578,9.3328,9.3254,9.2859,9.2752,9.3221,9.3147,9.3504,9.3899,9.3935,9.3935,9.3935,9.3935,9.3935,9.3935,9.3935,9.3935,9.3935,9.4078,9.4589,9.5359,9.6015,9.6415,9.6752,9.7177,9.7168,9.6945,9.741,9.7211,9.6164,9.5641,9.4595,9.2914,9.1392,9.0124,8.9037,8.7058,8.5808,8.5406,8.4883,8.4655,8.4516,8.4588,8.4516,8.4516,8.4516,8.4516,8.4516,8.4516,8.4624,8.4588,8.4695,8.5123,8.5908,8.548,8.523,8.5979,8.6329,8.6683,8.7832,8.8299,8.8549,8.8762,8.9154,8.9868,9.0688,9.1045,9.1259,9.1937,9.2401,9.2936,9.3186,9.3578,9.3721,9.3757,9.3757,9.3721,9.3543,9.3043,9.2437,9.1152,9.0118,8.9547,8.9083,8.9761,9.0046,8.9547,8.9012,8.9226,8.9904,8.9937,9.0457,9.0594,9.0763,9.1648,8.9511,8.9475,8.9511,8.9725,8.9725,8.9725,8.9832,8.9654,8.9654,8.9761,8.9761,9.0112,8.9899,8.9689,9.0474,9.1045,9.158,9.2008,9.2829,9.3328,9.2793,9.2006,9.1787,9.082,9.0898,9.1579,9.1683,9.236,9.3328,9.3543,9.3864,9.3757,9.3792,9.3935,9.3935,9.3935,9.3935,9.4006,9.4616,9.5227,9.5918,9.624,9.687,9.8131,9.775,9.7705,9.8015,9.8107,9.751,9.6089,9.4441,9.2904,9.1597,9.1189,8.9665,8.748,8.6904,8.5982,8.5032,8.4716,8.4481,8.4302,8.4267,8.4516,8.4088,8.391,8.3981,8.4267,8.4338,8.4409,8.4516,8.4516,8.4516,8.4695,8.4409,8.4481,8.4659,8.4766,8.5083,8.5337,8.6127,8.7018,8.7049,8.812,8.8798,8.9297,8.9333,8.9547,9.0153,9.1045,9.158,9.208,9.2544,9.2615,9.2437,9.2437,9.2401,9.2115,9.1473,9.0581,8.9368,8.9083,8.8797,8.8655,8.8833,8.8976,8.8833,8.8405,8.8298,8.812,8.864,8.9844,9.0342,9.0527,9.1062,8.9226,8.9226,8.9226,8.9226,8.9226,8.9226,8.9226,8.9261,8.9255,8.9222,8.9475,9.0188,9.0724,9.0902,9.1723,9.1937,9.1652,9.2615,9.3364,9.3685,9.3186,9.2437,9.151,9.09,9.0615,9.0188,9.008,9.0401,9.101,9.1901,9.2437,9.2686,9.3435,9.3864,9.3935,9.3935,9.3935,9.4006,9.4616,9.5198,9.5613,9.6467,9.7216,9.7757,9.8043,9.8246,9.8369,9.751,9.665,9.5752,9.3431,9.1332,8.9768,8.9581,8.914,8.7949,8.716,8.6502,8.5943,8.4889,8.4195,8.3268,8.3089,8.2733,8.1847,8.1662,8.2168,8.2885,8.3099,8.3491,8.4302,8.4481,8.4084,8.3227,8.312,8.3518,8.4374,8.4516,8.4516,8.4659,8.502,8.5305,8.5444,8.6122,8.6586,8.7585,8.7763,8.7941,8.9083,8.9654,8.9939,9.0367,9.1045,9.1224,9.1117,9.1152,9.1117,9.0403,8.9761,8.8619,8.7834,8.7797,8.7547,8.7368,8.7049,8.7085,8.7049,8.6871,8.6907,8.6404,8.6182,8.7228,8.8248,8.8945,9.0003,8.7763,8.7727,8.7763,8.7763,8.7763,8.7763,8.812,8.8441,8.85,8.8754,8.9368,9.04,9.0831,9.1045,9.1901,9.208,9.1759,9.315,9.3614,9.3186,9.3114,9.2472,9.151,9.0546,8.9547,8.8654,8.8513,8.8763,8.9404,9.0332,9.0867,9.101,9.1901,9.2615,9.3081,9.315,9.365,9.4188,9.4805,9.5319,9.5882,9.6843,9.7503,9.7733,9.825,9.822,9.7772,9.665,9.5566,9.4407,9.2383,9.04,8.9019,8.8612,8.8505,8.8251,8.7044,8.6083,8.5541,8.419,8.277,8.1834,8.152,8.0913,8.0085,8.0005,8.0477,8.1283,8.1542,8.1858,8.284,8.3089,8.2584,8.1577,8.1513,8.1948,8.2697,8.3375,8.3981,8.4374,8.4516,8.4516,8.4588,8.4624,8.5194,8.6015,8.6158,8.6407,8.7478,8.7977,8.8512,8.8619,8.9154,8.9618,8.9939,9.0153,8.9226,8.7941,8.7475,8.669,8.6369,8.6119,8.5762,8.544,8.5052,8.4909,8.4838,8.4909,8.5159,8.494,8.5055,8.538,8.5886,8.6862,8.819,8.4838,8.4945,8.4624,8.498,8.498,8.498,8.5622,8.6978,8.7076,8.7937,8.9189,8.9467,8.9756,8.9582,9.0189,9.0474,9.183,9.3221,9.3257,9.2115,9.1973,9.1864,9.1431,8.9119,8.7725,8.718,8.6978,8.7729,8.8798,8.9047,8.9226,8.9226,8.9547,9.0403,9.1581,9.1689,9.2724,9.441,9.4982,9.5743,9.7128,9.7419,9.7809,9.8407,9.822,9.7435,9.6089,9.5828,9.4369,9.1827,9.1151,9.0325,8.8907,8.8612,8.8324,8.7533,8.6141,8.4634,8.3362,8.2028,8.0973,8.0005,7.9914,7.979,7.9367,7.9392,7.9557,7.9851,7.9877,8.0019,8.0227,8.0085,7.9843,7.9898,7.9906,8.0057,8.0485,8.1413,8.2768,8.3874,8.4267,8.4445,8.4481,8.4445,8.4588,8.4802,8.4838,8.5016,8.5337,8.6265,8.68,8.7157,8.762,8.8013,8.8584,8.8976,8.7157,8.5729,8.5551,8.544,8.5297,8.5226,8.494,8.4869,8.4552,8.4516,8.4516,8.3981,8.4088,8.4007,8.4475,8.4755,8.5254,8.5835,8.6933,8.8084,8.63,8.6122,8.5551,8.4588,8.4516,8.5444,8.6835,8.6909,8.7764,8.9261,9.0367,9.0795,9.0974,9.1937,9.2758,9.3186,9.3614,9.365,9.3186,9.315,9.2574,9.1538,9.0581,8.8975,8.7148,8.6904,8.655,8.6229,8.7121,8.7656,8.7763,8.8762,8.9474,8.9998,9.038,9.1505,9.3263,9.4415,9.5683,9.726,9.787,9.8295,9.8183,9.6276,9.4855,9.4332,9.3285,9.2163,9.1191,9.0067,8.9206,8.8758,8.8612,8.8019,8.6759,8.5663,8.4322,8.2508,8.1422,8.0093,7.8487,7.8309,7.7738,7.6789,7.6741,7.7335,7.8077,7.8349,7.884,7.9192,7.7978,7.7203,7.8157,7.8273,7.8701,7.9736,8.0307,8.0878,8.1484,8.2346,8.2952,8.3089,8.391,8.4374,8.4516,8.4516,8.4516,8.4552,8.5052,8.5301,8.5373,8.5979,8.6265,8.6479,8.6621,8.5373,8.5087,8.4945,8.4802,8.4695,8.4659,8.4588,8.4552,8.4516,8.4516,8.4195,8.3518,8.3161,8.2875,8.3075,8.3313,8.4016,8.4882,8.5823,8.8369,8.6122,8.6657,8.6336,8.548,8.6015,8.7121,8.8513,8.8549,8.9475,9.0901,9.1933,9.236,9.2401,9.2294,9.2222,9.2222,9.2187,9.2222,9.2222,9.2222,9.1686,9.0793,9.0723,8.9332,8.719,8.6871,8.6086,8.4838,8.5551,8.6051,8.6265,8.7085,8.7866,8.842,8.9014,9.0282,9.2111,9.3361,9.462,9.5831,9.6498,9.6762,9.6613,9.4631,9.3248,9.2724,9.1715,9.0855,9.0294,8.9247,8.8612,8.8612,8.8612,8.7864,8.6185,8.4601,8.2937,8.1202,8.0039,7.8663,7.6907,7.6703,7.6275,7.5455,7.5276,7.5609,7.6448,7.6733,7.708,7.7585,7.6479,7.5669,7.6489,7.6703,7.7132,7.8023,7.8737,7.9022,7.9263,8.0421,8.1354,8.1698,8.2733,8.366,8.3732,8.4195,8.4481,8.4552,8.4516,8.4624,8.4552,8.4516,8.4516,8.4516,8.4481,8.4481,8.4548,8.4507,8.4501,8.451,8.4502,8.3829,8.3748,8.3056,8.2815,8.2233,8.1662,8.1555,8.1306,8.1092,8.1379,8.2043,8.2616,8.3918,8.6122,8.5159,8.6336,8.6764,8.6871,8.812,8.969,9.0652,9.1004,9.204,9.315,9.3397,9.3539,9.3257,9.0653,8.9297,8.9333,8.9475,8.9511,8.9511,8.9404,8.9261,8.919,8.919,8.8442,8.6983,8.6695,8.5908,8.4588,8.4588,8.4516,8.4552,8.4766,8.5436,8.6674,8.74,8.8861,9.0881,9.1869,9.2691,9.3437,9.3436,9.3285,9.3285,9.321,9.2425,9.1266,9.1079,9.0331,8.8686,8.8649,8.8612,8.8612,8.8499,8.7714,8.6032,8.311,8.0802,7.9438,7.8037,7.6638,7.5526,7.5419,7.5241,7.5241,7.5241,7.5312,7.5276,7.5395,7.5419,7.5526,7.5383,7.5348,7.5419,7.5348,7.5348,7.5419,7.6775,7.7335,7.7671,7.8656,7.9423,7.9815,8.1199,8.1983,8.2376,8.3446,8.4267,8.4195,8.4445,8.4516,8.4516,8.4516,8.4512,8.4298,8.3815,8.3994,8.398,8.3801,8.4295,8.4443,8.4271,8.349,8.2708,8.1919,8.1056,8.0255,8.0021,8.0128,7.9665,7.945,7.9679,8.0452,8.0692,8.1763,8.8298,8.787,8.7192,8.6229,8.523,8.5658,8.6728,8.805,8.8157,8.9083,9.0402,9.0504,9.0468,9.0403,8.9654,8.9226,8.9226,8.9226,8.9226,8.9226,8.9226,8.9188,8.9216,8.9224,8.8406,8.6911,8.5768,8.498,8.4588,8.4516,8.4516,8.4516,8.4516,8.4798,8.5217,8.5849,8.7103,8.8884,9.0059,9.1343,9.2335,9.0936,8.9958,8.9958,8.9958,8.9771,8.9322,8.9359,8.9098,8.8649,8.8612,8.8612,8.8574,8.7456,8.6596,8.5924,8.3072,8.0204,7.7843,7.7213,7.6475,7.5407,7.5241,7.5241,7.5241,7.5241,7.5241,7.5134,7.5241,7.5134,7.5241,7.5241,7.5241,7.5241,7.5241,7.5241,7.5241,7.5526,7.5919,7.5872,7.6454,7.6892,7.8085,7.9494,8.0485,8.0663,8.1876,8.2875,8.2947,8.3732,8.4409,8.4516,8.4481,8.3851,8.2232,8.2112,8.21,8.2233,8.2561,8.2523,8.1992,8.194,8.1485,8.1392,8.0625,7.996,7.9308,7.9486,7.97,7.8452,7.731,7.7039,7.8734,7.9097,8.0156,8.7299,8.7228,8.63,8.5729,8.5658,8.6193,8.6978,8.7799,8.7868,8.8298,8.9047,8.7837,8.7303,8.7299,8.7299,8.7335,8.7335,8.7335,8.7299,8.7299,8.7299,8.733,8.7394,8.7904,8.7408,8.5913,8.5052,8.4231,8.3589,8.2947,8.2982,8.3553,8.4267,8.4516,8.4583,8.5175,8.6151,8.7503,8.8502,8.9551,9.0255,8.9295,8.8612,8.8612,8.8612,8.8612,8.8612,8.8612,8.8612,8.8574,8.7939,8.7639,8.7531,8.6077,8.4881,8.405,8.2287,8.0126,7.7512,7.7124,7.6574,7.56,7.5347,7.5241,7.5241,7.5241,7.4646,7.3636,7.3327,7.3601,7.417,7.4242,7.4563,7.5134,7.5241,7.5241,7.5241,7.5241,7.5241,7.5241,7.5241,7.568,7.6545,7.7427,7.8202,7.9022,8.0307,8.1234,8.1306,8.2019,8.2626,8.2727,8.2913,8.234,8.1599,8.1019,8.1036,8.1233,8.1317,8.1471,8.1286,8.1041,8.0457,7.9912,7.9097,7.8534,7.834,7.7916,7.7809,7.706,7.5764,7.5538,7.6884,7.7361,7.8169,8.4588,8.4516,8.4624,8.5373,8.6657,8.7834,8.8405,8.8582,8.8536,8.8572,8.8154,8.5829,8.4721,8.4516,8.4624,8.4695,8.4695,8.4552,8.4624,8.4659,8.4552,8.4516,8.4802,8.6015,8.5944,8.4731,8.4338,8.3553,8.234,8.0806,8.0699,8.2055,8.3553,8.4231,8.44,8.5103,8.5865,8.6574,8.7266,8.7649,8.7753,8.8325,8.8612,8.8612,8.8612,8.8612,8.8612,8.8612,8.8537,8.8312,8.6933,8.6077,8.5774,8.4362,8.2864,8.1457,8.109,8.0115,7.8024,7.7013,7.6072,7.5607,7.4897,7.4634,7.467,7.4706,7.3553,7.1408,7.0675,7.1349,7.2494,7.2672,7.3136,7.4242,7.467,7.4991,7.4955,7.5134,7.5241,7.5241,7.5241,7.5241,7.5323,7.5562,7.6026,7.7203,7.8701,7.97,7.9736,8.0093,8.0342,7.9755,8.0014,8.0474,8.0727,8.074,8.0324,8.0558,8.0688,8.0654,8.0689,8.035,7.9823,7.8877,7.8046,7.704,7.6222,7.5324,7.5526,7.5714,7.5538,7.5276,7.53,7.5804,7.6527,8.4516,8.4516,8.4516,8.4731,8.5016,8.4195,8.4516,8.544,8.4388,8.3822,8.3971,8.4973,8.5031,8.4583,8.4516,8.4516,8.4516,8.4516,8.4516,8.4516,8.4516,8.4516,8.4588,8.4873,8.4909,8.4481,8.3303,8.259,8.2091,8.0663,8.0093,8.0556,8.1983,8.2727,8.2785,8.4587,8.561,8.585,8.6523,8.7362,8.8399,8.8543,8.8612,8.8612,8.8612,8.8612,8.8612,8.8612,8.8051,8.6783,8.6301,8.5546,8.4332,8.273,8.1644,8.1226,8.0043,7.853,7.6772,7.4579,7.2976,7.2439,7.1884,7.1602,7.1602,7.1608,7.123,7.0725,7.0404,7.0603,7.0995,7.1102,7.1209,7.1602,7.2672,7.335,7.3493,7.4527,7.5241,7.5241,7.5241,7.5241,7.5241,7.5241,7.5419,7.5954,7.7096,7.8023,7.8238,7.9201,7.8701,7.7253,7.674,7.753,7.7853,7.8046,7.8357,7.9137,7.9248,7.9208,7.9013,7.876,7.8274,7.7857,7.7239,7.6911,7.6603,7.6193,7.5826,7.5808,7.562,7.5324,7.5347,7.5735,7.6322,8.3874,8.4516,8.4516,8.4124,8.3477,8.2905,8.2743,8.2769,8.1968,8.1799,8.2399,8.4233,8.4889,8.4516,8.4516,8.4516,8.4516,8.4516,8.4516,8.4516,8.4516,8.4516,8.4516,8.4516,8.4516,8.4445,8.2982,8.1876,8.1092,7.9593,7.8844,7.888,7.9665,8.0477,8.122,8.3066,8.4307,8.4935,8.5187,8.5749,8.6413,8.641,8.6443,8.6406,8.6406,8.6406,8.6406,8.5695,8.4877,8.391,8.249,8.1657,8.1413,7.9182,7.8217,7.8921,7.7432,7.6124,7.5309,7.3755,7.2568,7.1768,7.1204,7.0216,6.8552,6.8302,6.8302,6.832,6.8338,6.8588,6.9318,6.9426,6.9711,7.046,7.1245,7.178,7.1994,7.3172,7.4193,7.4216,7.4765,7.5241,7.5241,7.5241,7.5241,7.5312,7.5883,7.6454,7.6525,7.7239,7.7266,7.6331,7.6244,7.6801,7.7645,7.7605,7.7645,7.8202,7.8379,7.8239,7.8024,7.8206,7.8061,7.7562,7.7401,7.7317,7.6974,7.6661,7.647,7.6421,7.6178,7.6058,7.6058,7.6244,7.6206,8.2804,8.4195,8.3981,8.3268,8.2227,8.2689,8.2028,8.0472,8.002,8.0628,8.2019,8.3614,8.4293,8.4195,8.4231,8.4088,8.391,8.391,8.391,0.0,8.391,8.4017,8.4195,8.4195,8.4338,8.4409,8.2947,8.1448,7.9914,7.8345,7.7417,7.7239,7.7203,7.8023,7.9593,8.131,8.2489,8.3187,8.3252,8.3428,8.3731,8.3756,8.3751,8.3751,8.3601,8.3415,8.3415,8.1812,8.0841,8.0542,7.7926,7.6797,7.7612,7.5138,7.41,7.5138,7.4001,7.3207,7.3198,7.317,7.2728,7.1671,7.1011,6.9061,6.5521,6.5283,6.5465,6.5715,6.5858,6.6286,6.7445,6.7659,6.8284,6.9568,7.0032,7.021,7.021,7.1602,7.2551,7.2558,7.3966,7.4848,7.4789,7.5003,7.5241,7.5241,7.5419,7.5312,7.5383,7.5241,7.5732,7.6555,7.6974,7.7565,7.8131,7.8204,7.7987,7.8024,7.8134,7.8169,7.8133,7.8412,7.8515,7.8133,7.7764,7.743,7.7,7.6674,7.6116,7.5962,7.583,7.5886,7.5767,7.5984,7.5545,8.1234,8.2483,8.1234,8.1306,8.2156,8.1558,8.0327,7.8627,0.0,0.0,0.0,8.252,8.318,8.2626,8.2661,8.1948,8.0771,8.0735,8.0735,8.0735,8.0735,8.1377,8.2584,8.2626,8.3303,8.4409,8.2982,8.1413,7.9914,7.8309,7.6882,7.574,7.5669,7.6382,7.8075,8.0601,8.0777,7.8586,8.0035,8.1848,8.3719,8.3788,8.3751,8.3751,8.2442,8.1695,8.1695,8.0073,7.8634,7.7427,7.6855,7.5479,7.3151,7.2561,7.1652,7.045,7.0106,7.0002,6.9872,6.9895,6.957,6.8989,6.7926,6.5925,6.2628,6.3222,6.4288,6.5608,6.5715,6.5787,6.6072,6.6108,6.625,6.6536,6.7749,6.8534,6.8605,6.9961,7.096,7.1159,7.2337,7.3291,7.3423,7.4373,7.5241,7.5241,7.5241,7.5241,7.5241,7.5205,7.5507,7.6157,7.7108,7.7797,7.8061,7.8024,7.8133,7.8478,7.8579,7.8574,7.8611,7.8673,7.871,7.8318,7.7491,7.6719,7.6432,7.5019,7.3689,7.3652,7.3264,7.3001,7.3008,7.3381,7.3504,7.8452,0.0,7.8202,7.7524,0.0,0.0,7.6447,7.5121,7.3554,7.4478,7.7252,7.9621,8.0535,8.0302,8.0791,8.0628,7.9886,7.9886,7.9886,7.9886,7.9886,8.0307,8.1049,8.1056,8.1876,8.3303,8.1805,8.0699,7.9879,7.8309,7.6347,7.4063,7.4028,7.4028,7.4086,7.5411,7.5763,7.5088,7.8023,8.0048,8.1134,8.1209,8.1246,8.1171,0.0,0.0,0.0,0.0,0.0,0.0,0.0,0.0,0.0,0.0,0.0,6.7978,6.6362,6.5069,6.4171,6.4034,6.3878,6.3599,6.2818,6.1646,6.0083,6.0047,6.0685,6.2043,6.2888,6.3646,6.4431,6.5251,6.5715,6.5751,6.6393,6.6857,6.7,6.832,6.9211,6.9464,7.0694,7.2044,7.283,7.3625,7.4313,7.5098,7.5241,7.5241,7.5241,7.5392,7.568,7.6002,7.7108,7.8024,7.8311,7.8345,7.8445,7.8642,7.8704,7.8404,7.7694,7.7544,7.7208,7.6385,7.5675,7.5114,7.501,7.3993,7.2945,7.2947,7.2764,7.2165,7.008,7.0023,7.0289,7.5526,7.6525,7.5027,7.3778,7.2894,7.2488,7.2076,7.1657,7.1657,7.2605,7.4194,7.684,7.7902,7.7686,7.901,7.9245,7.8744,7.8942,7.9022,7.9022,7.9022,7.9201,7.9415,7.9165,7.9843,8.1163,7.945,7.8737,7.9022,7.7417,7.549,7.335,7.3314,7.2529,0.0,0.0,0.0,0.0,7.6468,7.8404,7.8704,7.8704,7.8704,7.8704,7.8442,0.0,7.856,7.7032,7.6286,7.6395,7.3644,0.0,0.0,0.0,0.0,0.0,0.0,0.0,0.0,0.0,0.0,0.0,5.8155,5.7526,5.7412,5.7248,5.7406,5.8228,5.9694,6.1006,6.1969,6.3218,6.4181,6.4716,6.4788,6.5073,6.5715,6.6821,6.7624,6.7639,6.9071,7.0582,7.1656,7.2329,7.2993,7.442,7.4777,7.4836,7.4846,7.5194,7.5707,7.6372,7.7238,7.8097,7.8642,7.8404,7.8112,7.8247,7.8105,7.7245,7.6198,7.5899,7.5339,7.4329,7.3581,7.3394,7.3357,7.2685,7.1942,7.209,7.2021,7.1064,6.8144,6.7476,6.7632,7.3337,7.335,7.178,7.1816,7.2622,6.8939,6.8392,7.0076,7.0076,7.095,7.2591,7.5611,7.6186,7.5153,7.7431,7.7053,7.4581,7.5463,7.5812,7.5847,7.5812,7.6561,7.7774,7.6454,7.6632,7.7988,7.5169,7.4492,7.5776,7.4242,7.3956,7.4884,7.492,7.4135,7.2622,7.1683,7.1557,7.227,7.5147,7.732,7.8666,7.8704,7.8704,7.8666,7.7395,7.6789,7.6855,7.5378,7.4675,7.4885,7.3236,7.1679,7.0388,6.5825,6.2339,0.0,5.7386,0.0,0.0,0.0,0.0,0.0,0.0,0.0,0.0,5.6287,5.7351,5.6734,5.807,5.8544,5.7357,5.7428,5.8687,6.1291,6.1612,6.2718,6.5323,6.5894,6.6001,6.6017,6.7392,6.8408,6.8745,6.9976,7.1423,7.2815,7.2957,7.2936,7.3643,7.3829,7.4709,7.7414,7.7873,7.776,7.82,7.747,7.6647,7.6535,7.5638,7.4441,7.4217,7.4179,7.4105,7.3693,7.2572,7.1712,7.1637,7.0122,6.9016,6.909,6.8776,6.8218,6.7626,6.744,6.7632,7.021,7.0068,6.8534,6.8427,6.9271,6.7684,6.7727,6.8924,6.8912,6.9461,7.0499,7.187,7.2395,7.2421,7.4104,7.397,7.2425,7.2835,7.2905,7.2636,7.2636,7.2993,7.36,7.2957,7.3457,7.4848,7.2672,7.2387,7.3778,7.2315,7.1923,7.2636,7.2636,7.1816,7.0302,7.0365,7.148,7.3497,7.5449,7.7163,7.8666,7.8704,7.8704,7.8704,7.821,7.7986,7.809,7.6686,7.5977,7.6197,7.3805,7.1224,6.8604,6.4731,6.0879,0.0,0.0,0.0,0.0,0.0,0.0,0.0,0.0,0.0,0.0,0.0,5.4342,0.0,0.0,0.0,5.643,5.7189,5.7867,5.8402,5.8473,5.9008,6.0364,6.2054,6.2795,6.1937,6.3946,6.5751,6.6625,6.7392,6.8748,7.1209,6.9283,6.8121,6.9448,7.0793,7.2049,7.3652,7.4898,7.5761,7.5982,7.5413,7.5002,7.4927,7.4366,7.3544,7.2647,7.246,7.216,7.1338,7.059,7.0067,7.0002,6.9006,6.8238,6.8171,6.7818,6.7516,6.744,6.744,6.7595,6.7802,6.7321,6.5628,6.5463,6.6337,6.6816,6.7557,6.8362,6.8398,6.8395,6.8459,6.8806,6.9236,6.9639,7.0655,7.0676,6.9797,7.0413,7.0711,7.0531,7.0531,7.0531,7.0531,7.0175,7.0567,7.1566,7.0175,7.0175,7.1602,7.0175,6.9604,6.9925,6.9732,6.8928,6.7835,6.9596,7.1715,7.4179,7.6003,7.7537,7.8666,7.8704,7.8704,7.8704,7.8995,7.9169,7.9309,7.793,7.7298,7.745,7.3577,7.016,6.7541,6.3251,0.0,0.0,0.0,0.0,0.0,0.0,0.0,0.0,0.0,5.2689,5.0007,0.0,5.2188,0.0,5.3615,5.5298,5.5254,5.6011,0.0,0.0,5.5512,5.5503,5.6323,5.8504,5.9633,5.88,6.0769,6.2861,6.4395,6.4609,6.5644,6.8355,6.5747,6.4196,6.5836,6.7975,6.9625,7.0307,7.1697,7.2721,7.2759,7.2983,7.3245,7.3282,7.2908,7.2273,7.1001,7.0814,7.0413,6.9292,6.902,6.902,6.9057,6.8596,6.8271,6.8335,6.8103,6.7818,6.7782,6.7708,6.7818,6.7214,6.5676,6.3573,6.3846,6.5699,6.5838,6.7018,6.8929,6.8918,6.8085,6.6814,6.8347,6.8171,6.6885,6.7895,0.0,0.0,6.7865,6.9544,7.0531,7.0531,7.0531,7.046,6.8962,6.8265,6.8408,6.6821,6.6893,6.8301,6.6928,6.6821,6.8177,6.7264,6.6727,6.681,7.0609,7.28,7.3059,7.6656,7.8621,7.8704,7.8704,7.8704,7.8704,7.8995,7.9187,7.9257,7.7905,7.726,7.7336,7.1375,6.7731,6.7237,0.0,0.0,0.0,0.0,0.0,0.0,0.0,0.0,0.0,0.0,0.0,0.0,0.0,0.0,0.0,5.2282,0.0,5.2087,5.0874,0.0,0.0,0.0,5.3186,5.6074,5.6581,5.7277,5.8591,0.0,0.0,0.0,0.0,6.2041,6.3753,6.3992,6.4299,6.4943,6.6822,6.8558,6.8883,6.9255,6.9367,6.9581,7.0515,7.1226,7.1188,7.0328,6.9442,6.918,6.9244,6.9244,6.9057,6.902,6.902,6.902,6.8596,6.8335,6.8846,6.8836,6.8874,6.878,6.8467,6.8303,6.4783,6.3341,6.2732,6.3038,6.3872,6.4386,6.5749,6.7487,6.7475,6.6503,6.4982,6.5655,6.4496,6.2004,6.245,0.0,0.0,0.0,6.2976,6.3765,6.3765,6.4625,6.6108,6.5537,6.5715,6.6571,6.6001,6.6036,6.6643,6.6001,6.4297,0.0,0.0,0.0,6.4041,6.7042,6.998,7.2871,7.5792,7.7761,7.8704,7.8704,7.8704,7.8741,7.907,7.8778,7.7905,7.6615,7.4982,7.3008,6.8452,6.458,0.0,0.0,0.0,0.0,0.0,0.0,0.0,0.0,0.0,0.0,0.0,5.3092,0.0,0.0,0.0,0.0,5.0946,5.0543,5.0303,5.0589,0.0,0.0,0.0,0.0,0.0,0.0,0.0,5.4413,5.6975,5.8937,5.9543,5.9615,5.997,6.0901,6.0372,6.0173,6.0852,0.0,6.4312,6.5753,6.5954,6.629,6.73,6.715,6.6889,6.6889,6.7188,6.7487,6.7524,6.8347,6.8982,6.902,6.902,6.902,6.902,6.8874,6.878,6.8966,6.902,6.902,6.902,6.8808,6.8751,6.2375,0.0,0.0,0.0,0.0,6.278,6.386,6.5057,6.5119,6.3847,6.1879,6.2365,0.0,0.0,0.0,0.0,0.0,0.0,5.8483,5.8807,5.9744,6.0898,6.2164,6.2197,6.2754,6.3646,6.3218,6.304,6.304,6.3263,6.1071,5.6675,0.0,0.0,0.0,0.0,6.7866,7.1701,7.4809,7.7125,7.8704,7.8704,7.8704,7.8704,7.8666,7.8099,7.7032,7.4792,7.2249,6.9363,6.5149,0.0,0.0,0.0,0.0,0.0,0.0,0.0,0.0,0.0,0.0,0.0,0.0,0.0,0.0,0.0,0.0,0.0,0.0,0.0,4.9569,5.0454,5.0339,0.0,0.0,0.0,0.0,0.0,0.0,0.0,0.0,0.0,5.7412,5.8218,5.9247,0.0,0.0,5.9484,5.907,6.0569,6.1897,6.2465,0.0,0.0,0.0,6.3748,6.3411,6.3898,6.5356,6.6477,6.6477,6.7076,6.7562,6.7562,6.7936,6.8122,6.7674,6.7562,6.7524,6.7562,6.7562,6.7562,6.7562,6.7562,6.7524,0.0,0.0,0.0,0.0,0.0,0.0,0.0,0.0,6.1756,5.9948,0.0,5.8588,0.0,0.0,0.0,0.0,0.0,0.0,0.0,0.0,6.0615,6.1213,5.9463,5.9525,5.9365,0.0,5.751,5.6796,5.6698,5.743,0.0,0.0,0.0,0.0,0.0,0.0,6.7311,6.9217,7.388,7.7125,7.8659,7.8704,7.8704,7.8666,7.7627,7.7023,7.6766,7.2514,6.9287,6.7503,6.1314,0.0,0.0,0.0,0.0,0.0,0.0,0.0,0.0,0.0,0.0,0.0,0.0,0.0,0.0,0.0,0.0,0.0,0.0,0.0,0.0,4.9644,0.0,0.0,0.0,0.0,0.0,0.0,0.0,0.0,0.0,0.0,5.427,5.7252,6.0043,6.1493,0.0,0.0,0.0,0.0,6.2752,5.9836,5.9299,5.9351,5.9463,6.0757,6.2215,6.3636,0.0,0.0,6.644,6.5169,6.4234,6.4159,6.5543,6.6029,6.4458,6.4271,6.4271,6.4234,6.4458,6.4234,6.4159,6.4645,6.4571,0.0,0.0,0.0,0.0,0.0,0.0,0.0,0.0,0.0,0.0,0.0,5.566,0.0,0.0,0.0,0.0,0.0,0.0,0.0,0.0,5.4442,5.5499,5.6605,5.6653,5.7117,0.0,5.7357,5.504,0.0,0.0,0.0,0.0,0.0,0.0,0.0,0.0,6.5655,6.7487,7.2235,7.5525,7.7133,7.818,7.8704,7.8704,7.7328,7.5157,7.2135,6.8604,6.5415,0.0,0.0,0.0,0.0,0.0,0.0,0.0,0.0,0.0,0.0,0.0,0.0,0.0,0.0,0.0,0.0,0.0,0.0,0.0,0.0,0.0,0.0,0.0,4.9863,0.0,0.0,0.0,0.0,0.0,0.0,0.0,0.0,0.0,5.2509,5.5698,5.8672,6.0546,6.1807,6.2611,6.2834,0.0,0.0,0.0,0.0,0.0,0.0,0.0,6.143,6.0869,6.127,6.2054,6.3112,6.3673,6.3935,6.3935,0.0,0.0,6.2738,6.3262,6.3935,6.3935,6.573,6.659,6.4421,6.5692,6.6627,0.0,0.0,0.0,0.0,0.0,0.0,0.0,0.0,0.0,0.0,5.2626,0.0,0.0,0.0,0.0,0.0,0.0,0.0,0.0,0.0,0.0,0.0,5.3792,5.3843,0.0,0.0,0.0,0.0,0.0,0.0,0.0,0.0,0.0,0.0,0.0,0.0,6.4271,6.6552,7.1365,7.4694,7.6348,7.7918,7.8442,7.7918,7.6954,7.4206,6.9537,0.0,0.0,0.0,0.0,0.0,0.0,0.0,0.0,0.0,0.0,0.0,0.0,0.0,0.0,0.0,0.0,0.0,0.0,0.0,0.0,0.0,0.0,0.0,0.0,0.0,4.975,0.0,0.0,0.0,0.0,0.0,0.0,0.0,0.0,0.0,0.0,0.0,5.737,5.9223,6.1364,6.3031,6.3835,6.3935,6.4309,0.0,0.0,0.0,0.0,0.0,0.0,0.0,0.0,0.0,0.0,0.0,0.0,0.0,0.0,6.1991,6.0981,6.1579,6.2327,6.2327,0.0,0.0,0.0,0.0,0.0,0.0,0.0,0.0,0.0,0.0,0.0,0.0,0.0,0.0,0.0,0.0,0.0,0.0,4.9204,0.0,0.0,0.0,0.0,0.0,0.0,0.0,0.0,0.0,0.0,0.0,0.0,0.0,0.0,0.0,0.0,0.0,0.0,0.0,0.0,0.0,0.0,0.0,6.6428,7.1306,7.4638,7.6273,7.7881,7.7993,7.6498,7.6318,7.4076,6.942,0.0,0.0,0.0,0.0,0.0,0.0,0.0,0.0,0.0,0.0,0.0,0.0,0.0,0.0,0.0,0.0,0.0,0.0,0.0,0.0,0.0,0.0,0.0,0.0,0.0,0.0,4.8078,4.8785,4.9489,0.0,0.0,0.0,0.0,0.0,0.0,0.0,0.0,0.0,0.0,6.278,6.5767,6.4234,6.401,6.4122,6.4084,6.2813,6.229,6.3748,6.3972,6.3972,0.0,0.0,0.0,0.0,0.0,0.0,0.0,0.0,0.0,0.0,0.0,0.0,0.0,0.0,0.0,0.0,0.0,0.0,0.0,0.0,0.0,0.0,0.0,0.0,0.0,0.0,0.0,0.0,0.0,0.0,0.0,0.0,0.0,0.0,0.0,0.0,0.0,0.0,0.0,0.0,0.0,0.0,0.0,0.0,0.0,0.0,0.0,0.0,0.0,0.0,0.0,0.0,0.0,0.0,6.2664,6.472,7.0745,7.4114,7.4591,7.732,7.8023,7.6385,7.4084,7.1208,0.0,0.0,0.0,0.0,0.0,0.0,0.0,0.0,0.0,0.0,0.0,0.0,0.0,0.0,0.0,0.0,0.0,0.0,0.0,0.0,0.0,0.0,0.0,0.0,0.0,0.0,0.0,0.0,5.1414,5.1018,4.9937,0.0,0.0,0.0,0.0,0.0,0.0,0.0,0.0,0.0,0.0,6.4944,6.5617,6.5692,6.573,6.573,6.5318,6.4795,6.4047,6.4944,6.4944,6.2701,0.0,0.0,0.0,0.0,0.0,0.0,0.0,0.0,0.0,0.0,0.0,0.0,0.0,0.0,0.0,0.0,0.0,0.0,0.0,0.0,0.0,0.0,0.0,0.0,0.0,0.0,0.0,0.0,0.0,0.0,0.0,0.0,0.0,0.0,0.0,0.0,0.0,0.0,0.0,0.0,0.0,0.0,0.0,0.0,0.0,0.0,0.0,0.0,0.0,0.0,0.0,0.0,0.0,6.1766,6.3972,6.9847,7.3188,7.3918,7.5795,7.6393,7.5413,7.2245,6.9078,0.0,0.0,0.0,0.0,0.0,0.0,0.0,0.0,0.0,0.0,0.0,0.0,0.0,0.0,0.0,0.0,0.0,0.0,0.0,0.0,0.0,0.0,0.0,0.0,0.0,0.0,0.0,0.0,5.1537,5.1353,5.0279,0.0,0.0,0.0,0.0,0.0,0.0,0.0,0.0,0.0,0.0,6.4346,6.5356,6.5468,0.0,0.0,6.5954,6.5356,6.4982,6.6365,6.6328,6.3038,6.2527,0.0,0.0,0.0,0.0,0.0,0.0,0.0,0.0,0.0,0.0,0.0,0.0,0.0,0.0,0.0,0.0,0.0,0.0,0.0,0.0,0.0,0.0,0.0,0.0,0.0,0.0,0.0,0.0,0.0,0.0,0.0,0.0,0.0,0.0,0.0,0.0,0.0,0.0,0.0,0.0,0.0,0.0,0.0,0.0,0.0,0.0,0.0,0.0,0.0,0.0,0.0,0.0,0.0,6.401,6.8822,7.2151,7.3768,7.3868,7.3868,7.3843,7.074,6.755,0.0,0.0,0.0,0.0,0.0,0.0,0.0,0.0,0.0,0.0,0.0,0.0,0.0,0.0,0.0,0.0,0.0,0.0,0.0,0.0,0.0,0.0,0.0,0.0,0.0,0.0,0.0,0.0,0.0,0.0,0.0,0.0,0.0,0.0,0.0,0.0,0.0,0.0,0.0,0.0,0.0,6.3935,6.3935,6.3935,6.4533,0.0,0.0,6.4421,6.5879,6.7636,6.7711,6.4346,0.0,0.0,0.0,0.0,0.0,0.0,0.0,0.0,0.0,0.0,0.0,0.0,0.0,0.0,0.0,0.0,0.0,0.0,0.0,0.0,0.0,0.0,0.0,0.0,0.0,0.0,0.0,0.0,0.0,0.0,0.0,0.0,0.0,0.0,0.0,0.0,0.0,0.0,0.0,0.0,0.0,0.0,0.0,0.0,0.0,0.0,0.0,0.0,0.0,0.0,0.0,0.0,0.0,0.0,6.3997,6.8822,7.2151,7.3806,7.3868,7.3868,7.3806,6.9601,0.0,0.0,0.0,0.0,0.0,0.0,0.0,0.0,0.0,0.0,0.0,0.0,0.0,0.0,0.0,0.0,0.0,0.0,0.0,0.0,0.0,0.0,0.0,0.0,0.0,0.0,0.0,4.9651,0.0,0.0,0.0,0.0,0.0,0.0,0.0,0.0,0.0,0.0,0.0,0.0,0.0,0.0,6.3935,6.3935,6.3935,6.4122,0.0,0.0,6.3711,6.2963,6.5244,6.6029,0.0,0.0,0.0,0.0,0.0,0.0,0.0,0.0,0.0,0.0,0.0,0.0,0.0,0.0,0.0,0.0,0.0,0.0,0.0,0.0,0.0,0.0,0.0,0.0,0.0,0.0,0.0,0.0,0.0,0.0,0.0,0.0,0.0,0.0,0.0,0.0,0.0,0.0,0.0,0.0,0.0,0.0,0.0,0.0,0.0,0.0,0.0,0.0,0.0,0.0,0.0,0.0,0.0,0.0,0.0,6.3972,6.7449,7.0393,7.2647,7.2113,7.2076,7.2721,6.8192,6.4572,0.0,0.0,0.0,0.0,0.0,0.0,0.0,0.0,0.0,0.0,0.0,0.0,0.0,0.0,0.0,0.0,0.0,0.0,0.0,0.0,0.0,0.0,0.0,0.0,0.0,0.0,0.0,0.0,0.0,0.0,0.0,0.0,0.0,0.0,0.0,0.0,0.0,0.0,0.0,0.0,0.0,0.0,6.386,6.3337,0.0,0.0,0.0,6.3636,6.2738,0.0,0.0,0.0,0.0,0.0,0.0,0.0,0.0,0.0,0.0,0.0,0.0,0.0,0.0,0.0,0.0,0.0,0.0,0.0,0.0,0.0,0.0,0.0,0.0,0.0,0.0,0.0,0.0,0.0,0.0,0.0,0.0,0.0,0.0,0.0,0.0,0.0,0.0,0.0,0.0,0.0,0.0,0.0,0.0,0.0,0.0,0.0,0.0,0.0,0.0,0.0,0.0,0.0,0.0,0.0,0.0,0.0,6.3885,6.5617,6.8048,7.1114,6.9798,6.9723,7.1226,6.7082,6.3837,0.0,0.0,0.0,0.0,0.0,0.0,0.0,0.0,0.0,0.0,0.0,0.0,0.0,0.0,0.0,0.0,0.0,0.0,0.0,0.0,0.0,0.0,0.0,0.0,0.0,0.0,0.0,0.0,0.0,0.0,0.0,0.0,0.0,0.0,0.0,0.0,0.0,0.0,0.0,0.0,0.0,6.2178,6.3748,6.2589,6.1617,0.0,0.0,0.0,6.3673,6.4944,0.0,0.0,0.0,0.0,0.0,0.0,0.0,0.0,0.0,0.0,0.0,0.0,0.0,0.0,0.0,0.0,0.0,0.0,0.0,0.0,0.0,0.0,0.0,0.0,0.0,0.0,0.0,0.0,0.0,0.0,0.0,0.0,0.0,0.0,0.0,0.0,0.0,0.0,0.0,0.0,0.0,0.0,0.0,0.0,0.0,0.0,0.0,0.0,0.0,0.0,0.0,0.0,0.0,0.0,0.0,0.0,6.3935,6.5617,6.8048,7.1114,6.9815,6.9741,7.1226,6.8005,6.425,0.0,0.0,0.0,0.0,0.0,0.0,0.0,0.0,0.0,0.0,0.0,0.0,0.0,0.0,0.0,0.0,0.0,0.0,0.0,0.0,0.0,0.0,0.0,0.0,0.0,0.0,0.0,0.0,0.0,0.0,0.0,0.0,0.0,0.0,0.0,0.0,0.0,0.0,0.0,0.0,0.0,6.2178,6.3711,6.2626,0.0,0.0,0.0,0.0,6.2103,6.2365,0.0,0.0,0.0,0.0,0.0,0.0,0.0,0.0,0.0,0.0,0.0,0.0,0.0,0.0,0.0,0.0,0.0,0.0,0.0,0.0,0.0,0.0,0.0,0.0,0.0,0.0,0.0,0.0,0.0,0.0,0.0,0.0,0.0,0.0,0.0,0.0,0.0,0.0,0.0,0.0,0.0,0.0,0.0,0.0,0.0,0.0,0.0,0.0,0.0,0.0,0.0,0.0,0.0,0.0,0.0,0.0,6.386,6.4795,6.6851,7.0067,6.9431,6.9394,7.0141,6.792,6.4782,0.0,0.0,0.0,0.0,0.0,0.0,0.0,0.0,0.0,0.0,0.0,0.0,0.0,0.0,0.0,0.0,0.0,0.0,0.0,0.0,0.0,0.0,0.0,0.0,0.0,0.0,0.0,0.0,0.0,0.0,0.0,0.0,0.0,0.0,0.0,0.0,0.0,0.0,0.0,0.0,6.0906,6.1019,6.2589,0.0,0.0,0.0,0.0,0.0,0.0,6.2103,6.1879,0.0,0.0,0.0,0.0,0.0,0.0,0.0,0.0,0.0,0.0,0.0,0.0,0.0,0.0,0.0,0.0,0.0,0.0,0.0,0.0,0.0,0.0,0.0,0.0,0.0,0.0,0.0,0.0,0.0,0.0,0.0,0.0,0.0,0.0,0.0,0.0,0.0,0.0,0.0,0.0,0.0,0.0,0.0,0.0,0.0,0.0,0.0,0.0,0.0,0.0,0.0,0.0,0.0,0.0,0.0,6.3524,6.3823,6.5468,6.8496,6.887,6.902,6.8945,6.7472,6.5327,6.2476,0.0,0.0,0.0,0.0,0.0,0.0,0.0,0.0,0.0,0.0,0.0,0.0,0.0,0.0,0.0,0.0,0.0,0.0,0.0,0.0,0.0,0.0,0.0,0.0,0.0,0.0,0.0,0.0,0.0,0.0,0.0,0.0,0.0,0.0,0.0,0.0,0.0,0.0,0.0,5.9986,5.971,0.0,0.0,0.0,0.0,0.0,0.0,0.0,0.0,6.1729,0.0,0.0,0.0,0.0,0.0,0.0,0.0,0.0,0.0,0.0,0.0,0.0,0.0,0.0,0.0,0.0,0.0,0.0,0.0,0.0,0.0,0.0,0.0,0.0,0.0,0.0,0.0,0.0,0.0,0.0,0.0,0.0,0.0,0.0,0.0,0.0,0.0,0.0,0.0,0.0,0.0,0.0,0.0,0.0,0.0,0.0,0.0,0.0,0.0,0.0,0.0,0.0,0.0,0.0,0.0,0.0,6.3275,6.4907,6.6814,6.8272,6.902,6.8982,6.7375,6.5767,0.0,0.0,0.0,0.0,0.0,0.0,0.0,0.0,0.0,0.0,0.0,0.0,0.0,0.0,0.0,0.0,0.0,0.0,0.0,0.0,0.0,0.0,0.0,0.0,0.0,0.0,0.0,0.0,0.0,0.0,0.0,0.0,0.0,0.0,0.0,0.0,0.0,0.0,0.0,5.9425,5.9299,0.0,0.0,0.0,0.0,0.0,0.0,0.0,0.0,6.057,0.0,0.0,0.0,0.0,0.0,0.0,0.0,0.0,0.0,0.0,0.0,0.0,0.0,0.0,0.0,0.0,0.0,0.0,0.0,0.0,0.0,0.0,0.0,0.0,0.0,0.0,0.0,0.0,0.0,0.0,0.0,0.0,0.0,0.0,0.0,0.0,0.0,0.0,0.0,0.0,0.0,0.0,0.0,0.0,0.0,0.0,0.0,0.0,0.0,0.0,0.0,0.0,0.0,0.0,0.0,0.0,0.0,0.0,6.477,6.6463,6.8133,6.902,6.8945,6.6526,6.4583,0.0,0.0,0.0,0.0,0.0,0.0,0.0,0.0,0.0,0.0,0.0,0.0,0.0,0.0,0.0,0.0,0.0,0.0,0.0,0.0,0.0,0.0,0.0,0.0,0.0,0.0,0.0,0.0,0.0,0.0,0.0,0.0,0.0,0.0,0.0,0.0,0.0,0.0,0.0,0.0,0.0,0.0,0.0,0.0,0.0,0.0,0.0,0.0,0.0,0.0,0.0,0.0,0.0,0.0,0.0,0.0,0.0,0.0,0.0,0.0,0.0,0.0,0.0,0.0,0.0,0.0,0.0,0.0,0.0,0.0,0.0,0.0,0.0,0.0,0.0,0.0,0.0,0.0,0.0,0.0,0.0,0.0,0.0,0.0,0.0,0.0,0.0,0.0,0.0,0.0,0.0,0.0,0.0,0.0,0.0,0.0,0.0,0.0,0.0,0.0,0.0,0.0,0.0,0.0,0.0,0.0,0.0,0.0,6.4994,6.5988,6.7947,6.902,6.902,6.5828,6.3262,0.0,0.0,0.0,0.0,0.0,0.0,0.0,0.0,0.0,0.0,0.0,0.0,0.0,0.0,0.0,0.0,0.0,0.0,0.0,0.0,0.0,0.0,0.0,0.0,0.0,0.0,0.0,0.0,0.0,0.0,0.0,0.0,0.0,0.0,0.0,0.0,0.0,0.0,0.0,0.0,0.0,0.0,0.0,0.0,0.0,0.0,0.0,0.0,6.0869,0.0,0.0,0.0,0.0,0.0,0.0,0.0,0.0,0.0,0.0,0.0,0.0,0.0,0.0,0.0,0.0,0.0,0.0,0.0,0.0,0.0,0.0,0.0,0.0,0.0,0.0,0.0,0.0,0.0,0.0,0.0,0.0,0.0,0.0,0.0,0.0,0.0,0.0,0.0,0.0,0.0,0.0,0.0,0.0,0.0,0.0,0.0,0.0,0.0,0.0,0.0,0.0,0.0,0.0,0.0,0.0,0.0,0.0,0.0,6.558,6.4271,6.7349,6.902,6.8908,6.5828,6.2756,0.0,0.0,0.0,0.0,0.0,0.0,0.0,0.0,0.0,0.0,0.0,0.0,0.0,0.0,0.0,0.0,0.0,0.0,0.0,0.0,0.0,0.0,0.0,0.0,0.0,0.0,0.0,0.0,0.0,0.0,0.0,0.0,0.0,0.0,0.0,0.0,0.0,0.0,0.0,0.0,0.0,0.0,0.0,0.0,0.0,0.0,0.0,0.0,0.0,0.0,0.0,0.0,0.0,0.0,0.0,0.0,0.0,0.0,0.0,0.0,0.0,0.0,0.0,0.0,0.0,0.0,0.0,0.0,0.0,0.0,0.0,0.0,0.0,0.0,0.0,0.0,0.0,0.0,0.0,0.0,0.0,0.0,0.0,0.0,0.0,0.0,0.0,0.0,0.0,0.0,0.0,0.0,0.0,0.0,0.0,0.0,0.0,0.0,0.0,0.0,0.0,0.0,0.0,0.0,0.0,0.0,0.0,0.0,6.3773,6.3957,6.6314,6.7038,6.6103,6.391,6.1747,0.0,0.0,0.0,0.0,0.0,0.0,0.0,0.0,0.0,0.0,0.0,0.0,0.0,0.0,0.0,0.0,0.0,0.0,0.0,0.0,0.0,0.0,0.0,0.0,0.0,0.0,0.0,0.0,0.0,0.0,0.0,0.0,0.0,0.0,0.0,0.0,0.0,0.0,0.0,0.0,0.0,0.0,0.0,0.0,0.0,0.0,0.0,0.0,0.0,0.0,0.0,0.0,0.0,0.0,0.0,0.0,0.0,0.0,0.0,0.0,0.0,0.0,0.0,0.0,0.0,0.0,0.0,0.0,0.0,0.0,0.0,0.0,0.0,0.0,0.0,0.0,0.0,0.0,0.0,0.0,0.0,0.0,0.0,0.0,0.0,0.0,0.0,0.0,0.0,0.0,0.0,0.0,0.0,0.0,0.0,0.0,0.0,0.0,0.0,0.0,0.0,0.0,0.0,0.0,0.0,0.0,0.0,0.0,0.0,6.336,6.4558,6.4608,6.3374,6.2402,6.0897,0.0,0.0,0.0,0.0,0.0,0.0,0.0,0.0,0.0,0.0,0.0,0.0,0.0,0.0,0.0,0.0,0.0,0.0,0.0,0.0,0.0,0.0,0.0,0.0,0.0,0.0,0.0,0.0,0.0,0.0,0.0,0.0,0.0,0.0,0.0,0.0,0.0,0.0,0.0,0.0,0.0,0.0,0.0,0.0,0.0,0.0,0.0,0.0,0.0,0.0,0.0,0.0,0.0,0.0,0.0,0.0,0.0,0.0,0.0,0.0,0.0,0.0,0.0,0.0,0.0,0.0,0.0,0.0,0.0,0.0,0.0,0.0,0.0,0.0,0.0,0.0,0.0,0.0,0.0,0.0,0.0,0.0,0.0,0.0,0.0,0.0,0.0,0.0,0.0,0.0,0.0,0.0,0.0,0.0,0.0,0.0,0.0,0.0,0.0,0.0,0.0,0.0,0.0,0.0,0.0,0.0,0.0,0.0,0.0,6.1768,6.1855,6.1879,6.1766,6.1888,6.0429,0.0,0.0,0.0,0.0,0.0,0.0,0.0,0.0,0.0,0.0,0.0,0.0,0.0,0.0,0.0,0.0,0.0,0.0,0.0,0.0,0.0,0.0,0.0,0.0,0.0,0.0,0.0,0.0,0.0,0.0,0.0,0.0,0.0,0.0,0.0,0.0,0.0,0.0,0.0,0.0,0.0,0.0,0.0,0.0,0.0,0.0,0.0,0.0,0.0,0.0,0.0,0.0,0.0,0.0,0.0,0.0,0.0,0.0,0.0,0.0,0.0,0.0,0.0,0.0,0.0,0.0,0.0,0.0,0.0,0.0,0.0,0.0,0.0,0.0,0.0,0.0,0.0,0.0,0.0,0.0,0.0,0.0,0.0,0.0,0.0,0.0,0.0,0.0,0.0,0.0,0.0,0.0,0.0,0.0,0.0,0.0,0.0,0.0,0.0,0.0,0.0,0.0,0.0,0.0,0.0,0.0,0.0,0.0,0.0,6.0074,6.0023,6.0046,6.0046,6.0121,5.9622,5.8468,0.0,0.0,0.0,0.0,0.0,0.0,0.0,0.0,0.0,0.0,0.0,0.0,0.0,0.0,0.0,0.0,0.0,0.0,0.0,0.0,0.0,0.0,0.0,0.0,0.0,0.0,0.0,0.0,0.0,0.0,0.0,0.0,0.0,0.0,0.0,0.0,0.0,0.0,0.0,0.0,0.0,0.0,0.0,0.0,0.0,0.0,0.0,0.0,0.0,0.0,0.0,0.0,0.0,0.0,0.0,0.0,0.0,0.0,0.0,0.0,0.0,0.0,0.0,0.0,0.0,0.0,0.0,0.0,0.0,0.0,0.0,0.0,0.0,0.0,0.0,0.0,0.0,0.0,0.0,0.0,0.0,0.0,0.0,0.0,0.0,0.0,0.0,0.0,0.0,0.0,0.0,0.0,0.0,0.0,0.0,0.0,0.0,0.0,0.0,0.0,0.0,0.0,0.0,0.0,0.0,0.0,0.0,0.0,6.0533,6.0121,5.986,5.986,5.9411,5.921,0.0,0.0,0.0,0.0,0.0,0.0,0.0,0.0,0.0,0.0,0.0,0.0,0.0,0.0,0.0,0.0,0.0,0.0,0.0,0.0,0.0,0.0,0.0,0.0,0.0,0.0,0.0,0.0,0.0,0.0,0.0,0.0,0.0,0.0,0.0,0.0,0.0,0.0,0.0,0.0,0.0,0.0,0.0,0.0,0.0,0.0,0.0,0.0,0.0,0.0,0.0,0.0,0.0,0.0,0.0,0.0,0.0,0.0,0.0,0.0,0.0,0.0,0.0,0.0,0.0,0.0,0.0,0.0,0.0,0.0,0.0,0.0,0.0,0.0,0.0,0.0,0.0,0.0,0.0,0.0,0.0,0.0,0.0,0.0,0.0,0.0,0.0,0.0,0.0,0.0,0.0,0.0,0.0,0.0,0.0,0.0,0.0,0.0,0.0,0.0,0.0,0.0,0.0,0.0,0.0,0.0,0.0,0.0,0.0,6.3735,6.2327,6.1505,6.1542,6.0046,5.9224,0.0,0.0,0.0,0.0,0.0,0.0,0.0,0.0,0.0,0.0,0.0,0.0,0.0,0.0,0.0,0.0,0.0,0.0,0.0,0.0,0.0,0.0,0.0,0.0,0.0,0.0,0.0,0.0,0.0,0.0,0.0,0.0,0.0,0.0,0.0,0.0,0.0,0.0,0.0,0.0,0.0,0.0,0.0,0.0,0.0,0.0,0.0,0.0,0.0,0.0,0.0,0.0,0.0,0.0,0.0,0.0,0.0,0.0,0.0,0.0,0.0,0.0,0.0,0.0,0.0,0.0,0.0,0.0,0.0,0.0,0.0,0.0,0.0,0.0,0.0,0.0,0.0,0.0,0.0,0.0,0.0,0.0,0.0,0.0,0.0,0.0,0.0,0.0,0.0,0.0,0.0,0.0,0.0,0.0,0.0,0.0,0.0,0.0,0.0,0.0,0.0,0.0,0.0,0.0,0.0,0.0,0.0,0.0,0.0,6.386,0.0,6.1617,0.0,6.0009,5.9224,0.0,0.0,0.0,0.0,0.0,0.0,0.0,0.0,0.0,0.0,0.0,0.0,0.0,0.0,0.0,0.0,0.0,0.0,0.0,0.0,0.0,0.0,0.0,0.0,0.0,0.0,0.0,0.0,0.0,0.0,0.0,0.0,0.0,0.0,0.0,0.0,0.0,0.0,0.0,0.0,0.0,0.0,0.0,0.0,0.0,0.0,0.0,0.0,0.0,0.0,0.0,0.0,0.0,0.0,0.0,0.0,0.0,0.0,0.0,0.0,0.0,0.0,0.0,0.0,0.0,0.0,0.0,0.0,0.0,0.0,0.0,0.0,0.0,0.0,0.0,0.0,0.0,0.0,0.0,0.0,0.0,0.0,0.0,0.0,0.0,0.0,0.0,0.0,0.0,0.0,0.0,0.0,0.0,0.0,0.0,0.0,0.0,0.0,0.0,0.0,0.0,0.0,0.0,0.0,0.0,0.0,0.0,0.0,0.0,6.573,6.4832,6.3711,0.0,6.0869,5.9785,0.0,0.0,0.0,0.0,0.0,0.0,0.0,0.0,0.0,0.0,0.0,0.0,0.0,0.0,0.0,0.0,0.0,0.0,0.0,0.0,0.0,0.0,0.0,0.0,0.0,0.0,0.0,0.0,0.0,0.0,0.0,0.0,0.0,0.0,0.0,0.0,0.0,0.0,0.0,0.0,0.0,0.0,0.0,0.0,0.0,0.0,0.0,0.0,0.0,0.0,0.0,0.0,0.0,0.0,0.0,0.0,0.0,0.0,0.0,0.0,0.0,0.0,0.0,0.0,0.0,0.0,0.0,0.0,0.0,0.0,0.0,0.0,0.0,0.0,0.0,0.0,0.0,0.0,0.0,0.0,0.0,0.0,0.0,0.0,0.0,0.0,0.0,0.0,0.0,0.0,0.0,0.0,0.0,0.0,0.0,0.0,0.0,0.0,0.0,0.0,0.0,0.0,0.0,0.0,0.0,0.0,0.0,0.0,0.0,0.0,6.8908,6.7412,6.4159,6.2477,6.0832,0.0,0.0,0.0,0.0,0.0,0.0,0.0,0.0,0.0,0.0,0.0,0.0,0.0,0.0,0.0,0.0,0.0,0.0,0.0,0.0,0.0,0.0,0.0,0.0,0.0,0.0,0.0,0.0,0.0,0.0,0.0,0.0,0.0,0.0,0.0,0.0,0.0,0.0,0.0,0.0,0.0,0.0,0.0,0.0,0.0,0.0,0.0,0.0,0.0,0.0,0.0,0.0,0.0,0.0,0.0,0.0,0.0,0.0,0.0,0.0,0.0,0.0,0.0,0.0,0.0,0.0,0.0,0.0,0.0,0.0,0.0,0.0,0.0,0.0,0.0,0.0,0.0,0.0,0.0,0.0,0.0,0.0,0.0,0.0,0.0,0.0,0.0,0.0,0.0,0.0,0.0,0.0,0.0,0.0,0.0,0.0,0.0,0.0,0.0,0.0,0.0,0.0,0.0,0.0,0.0,0.0,0.0,0.0,0.0,0.0,6.902,0.0,6.5804,6.3075,6.0832,5.9126,0.0,0.0,0.0,0.0,0.0,0.0,0.0,0.0,0.0,0.0,0.0,0.0,0.0,0.0,0.0,0.0,0.0,0.0,0.0,0.0,0.0,0.0,0.0,0.0,0.0,0.0,0.0,0.0,0.0,0.0,0.0,0.0,0.0,0.0,0.0,0.0,0.0,0.0,0.0,0.0,0.0,0.0,0.0,0.0,0.0,0.0,0.0,0.0,0.0,0.0,0.0,0.0,0.0,0.0,0.0,0.0,0.0,0.0,0.0,0.0,0.0,0.0,0.0,0.0,0.0,0.0,0.0,0.0,0.0,0.0,0.0,0.0,0.0,0.0,0.0,0.0,0.0,0.0,0.0,0.0,0.0,0.0,0.0,0.0,0.0,0.0,0.0,0.0,0.0,0.0,0.0,0.0,0.0,0.0,0.0,0.0,0.0,0.0,0.0,0.0,0.0,0.0,0.0,0.0,0.0,0.0,0.0,0.0,0.0,0.0,0.0,6.7524,6.4284,6.1481,0.0,0.0,0.0,0.0,0.0,0.0,0.0,0.0,0.0,0.0,0.0,0.0,0.0,0.0,0.0,0.0,0.0,0.0,0.0,0.0,0.0,0.0,0.0,0.0,0.0,0.0,0.0,0.0,0.0,0.0,0.0,0.0,0.0,0.0,0.0,0.0,0.0,0.0,0.0,0.0,0.0,0.0,0.0,0.0,0.0,0.0,0.0,0.0,0.0,0.0,0.0,0.0,0.0,0.0,0.0,0.0,0.0,0.0,0.0,0.0,0.0,0.0,0.0,0.0,0.0,0.0,0.0,0.0,0.0,0.0,0.0,0.0,0.0,0.0,0.0,0.0,0.0,0.0,0.0,0.0,0.0,0.0,0.0,0.0,0.0,0.0,0.0,0.0,0.0,0.0,0.0,0.0,0.0,0.0,0.0,0.0,0.0,0.0,0.0,0.0,0.0,0.0,0.0,0.0,0.0,0.0,0.0,0.0,0.0,0.0,0.0,6.902,6.8982,6.5678,0.0,5.9762,0.0,0.0,0.0,0.0,0.0,0.0,0.0,0.0,0.0,0.0,0.0,0.0,0.0,0.0,0.0,0.0,0.0,0.0,0.0,0.0,0.0,0.0,0.0,0.0,0.0,0.0,0.0,0.0,0.0,0.0,0.0,0.0,0.0,0.0,0.0,0.0,0.0,0.0,0.0,0.0,0.0,0.0,0.0,0.0,0.0,0.0,0.0,0.0,0.0,0.0,0.0,0.0,0.0,0.0,0.0,0.0,0.0,0.0,0.0,0.0,0.0,0.0,0.0,0.0,0.0,0.0,0.0,0.0,0.0,0.0,0.0,0.0,0.0,0.0,0.0,0.0,0.0,0.0,0.0,0.0,0.0,0.0,0.0,0.0,0.0,0.0,0.0,0.0,0.0,0.0,0.0,0.0,0.0,0.0,0.0,0.0,0.0,0.0,0.0,0.0,0.0,0.0,0.0,0.0,0.0,0.0,0.0,0.0,0.0,0.0,0.0,0.0,6.5753,6.3624,6.2813,0.0,0.0,0.0,0.0,0.0,0.0,0.0,0.0,0.0,0.0,0.0,0.0,0.0,0.0,0.0,0.0,0.0,0.0,0.0,0.0,0.0,0.0,0.0,0.0,0.0,0.0,0.0,0.0,0.0,0.0,0.0,0.0,0.0,0.0,0.0,0.0,0.0,0.0,0.0,0.0,0.0,0.0,0.0,0.0,0.0,0.0,0.0,0.0,0.0,0.0,0.0,0.0,0.0,0.0,0.0,0.0,0.0,0.0,0.0,0.0,0.0,0.0,0.0,0.0,0.0,0.0,0.0,0.0,0.0,0.0,0.0,0.0,0.0,0.0,0.0,0.0,0.0,0.0,0.0,0.0,0.0,0.0,0.0,0.0,0.0,0.0,0.0,0.0,0.0,0.0,0.0,0.0,0.0,0.0,0.0,0.0,0.0,0.0,0.0,0.0,0.0,0.0,0.0,0.0,0.0,0.0,0.0,0.0,0.0,0.0,6.902,6.8945,6.569,6.3934,6.3898,0.0,0.0,0.0,0.0,0.0,0.0,0.0,0.0,0.0,0.0,0.0,0.0,0.0,0.0,0.0,0.0,0.0,0.0,0.0,0.0,0.0,0.0,0.0,0.0,0.0,0.0,0.0,0.0,0.0,0.0,0.0,0.0,0.0,0.0,0.0,0.0,0.0,0.0,0.0,0.0,0.0,0.0,0.0,0.0,0.0,0.0,0.0,0.0,0.0,0.0,0.0,0.0,0.0,0.0,0.0,0.0,0.0,0.0,0.0,0.0,0.0,0.0,0.0,0.0,0.0,0.0,0.0,0.0,0.0,0.0,0.0,0.0,0.0,0.0,0.0,0.0,0.0,0.0,0.0,0.0,0.0,0.0,0.0,0.0,0.0,0.0,0.0,0.0,0.0,0.0,0.0,0.0,0.0,0.0,0.0,0.0,0.0,0.0,0.0,0.0,0.0,0.0,0.0,0.0,0.0,0.0,0.0,0.0,0.0,0.0,0.0,0.0,0.0,0.0,6.3898,0.0,0.0,0.0,0.0,0.0,0.0,0.0,0.0,0.0,0.0,0.0,0.0,0.0,0.0,0.0,0.0,0.0,0.0,0.0,0.0,0.0,0.0,0.0,0.0,0.0,0.0,0.0,0.0,0.0,0.0,0.0,0.0,0.0,0.0,0.0,0.0,0.0,0.0,0.0,0.0,0.0,0.0,0.0,0.0,0.0,0.0,0.0,0.0,0.0,0.0,0.0,0.0,0.0,0.0,0.0,0.0,0.0,0.0,0.0,0.0,0.0,0.0,0.0,0.0,0.0,0.0,0.0,0.0,0.0,0.0,0.0,0.0,0.0,0.0,0.0,0.0,0.0,0.0,0.0,0.0,0.0,0.0,0.0,0.0,0.0,0.0,0.0,0.0,0.0,0.0,0.0,0.0,0.0,0.0,0.0,0.0,0.0,0.0,0.0,0.0,0.0,0.0,0.0,0.0,0.0,0.0,0.0,0.0,0.0,0.0,0.0,0.0,0.0,0.0,0.0,0.0,0.0,0.0,0.0,0.0,0.0,0.0,0.0,0.0,0.0,0.0,0.0,0.0,0.0,0.0,0.0,0.0,0.0,0.0,0.0,0.0,0.0,0.0,0.0,0.0,0.0,0.0,0.0,0.0,0.0,0.0,0.0,0.0,0.0,0.0,0.0,0.0,0.0,0.0,0.0,0.0,0.0,0.0,0.0,0.0,0.0,0.0,0.0,0.0,0.0,0.0,0.0,0.0,0.0,0.0,0.0,0.0,0.0,0.0,0.0,0.0,0.0,0.0,0.0,0.0,0.0,0.0,0.0,0.0,0.0,0.0,0.0,0.0,0.0,0.0,0.0,0.0,0.0,0.0,0.0,0.0,0.0,0.0,0.0,0.0,0.0,0.0,0.0,0.0,0.0,0.0,0.0,0.0,0.0,0.0,0.0,0.0,0.0,0.0,0.0,0.0,0.0,0.0,0.0,0.0,0.0,0.0,0.0,0.0,0.0,0.0,0.0,0.0,0.0,0.0,0.0,0.0,0.0,0.0,0.0,0.0,0.0,0.0,0.0,0.0,0.0,0.0,0.0,0.0,0.0,0.0,0.0,0.0,0.0,0.0,0.0,0.0,0.0,0.0,0.0,0.0,0.0,0.0,0.0,0.0,0.0,0.0,0.0,0.0,0.0,0.0,0.0,0.0,0.0,0.0,0.0,0.0,0.0,0.0,0.0,0.0,0.0,0.0,0.0,0.0,0.0,0.0,0.0,0.0,0.0,0.0,0.0,0.0,0.0,0.0,0.0,0.0,0.0,0.0,0.0,0.0,0.0,0.0,0.0,0.0,0.0,0.0,0.0,0.0,0.0,0.0,0.0,0.0,0.0,0.0,0.0,0.0,0.0,0.0,0.0,0.0,0.0,0.0,0.0,0.0,0.0,0.0,0.0,0.0,0.0,0.0,0.0,0.0,0.0,0.0,0.0,0.0,0.0,0.0,0.0,0.0,0.0,0.0,0.0,0.0,0.0,0.0,0.0,0.0,0.0,0.0,0.0,0.0,0.0,0.0,0.0,0.0,0.0,0.0,0.0,0.0,0.0,0.0,0.0,0.0,0.0,0.0,0.0,0.0,0.0,0.0,0.0,0.0,0.0,0.0,0.0,0.0,0.0,0.0,0.0,0.0,0.0,0.0,0.0,0.0,0.0,0.0,0.0,0.0,0.0,0.0,0.0,0.0,0.0,0.0,0.0,0.0,0.0,0.0,0.0,0.0,0.0,0.0,0.0,0.0,0.0,0.0,0.0,0.0,0.0,0.0,0.0,0.0,0.0,0.0,0.0,0.0,0.0,0.0,0.0,0.0,0.0,0.0,0.0,0.0,0.0,0.0,0.0,0.0,0.0,0.0,0.0,0.0,0.0,0.0,0.0,0.0,0.0,0.0,0.0,0.0,0.0,0.0,0.0,0.0,0.0,0.0,0.0,0.0,0.0,0.0,0.0,0.0,0.0,0.0,0.0,0.0,0.0,0.0,0.0,0.0,0.0,0.0,0.0,0.0,0.0,0.0,0.0,0.0,0.0,0.0,0.0,0.0,0.0,0.0,0.0,0.0,0.0,0.0,0.0,0.0,0.0,0.0,0.0,0.0,0.0,0.0,0.0,0.0,0.0,0.0,0.0,0.0,0.0,0.0,0.0,0.0,0.0,0.0,0.0,0.0,0.0,0.0,0.0,0.0,0.0,0.0,0.0,0.0,0.0,0.0,0.0,0.0,0.0,0.0,0.0,0.0,0.0,0.0,0.0,0.0,0.0,0.0,0.0,0.0,0.0,0.0,0.0,0.0,0.0,0.0,0.0,0.0,0.0,0.0,0.0,0.0,0.0,0.0,0.0,0.0,0.0,0.0,0.0,0.0,0.0,0.0,0.0,0.0,0.0,0.0,0.0,0.0,0.0,0.0,0.0,0.0,0.0,0.0,0.0,0.0,0.0,0.0,0.0,0.0,0.0,0.0,0.0,0.0,0.0,0.0,0.0,0.0,0.0,0.0,0.0,0.0,0.0,0.0,0.0,0.0,0.0,0.0,0.0,0.0,0.0,0.0,0.0,0.0,0.0,0.0,0.0,0.0,0.0,0.0,0.0,0.0,0.0,0.0,0.0,0.0,0.0,0.0,0.0,0.0,0.0,0.0,0.0,0.0,0.0,0.0,0.0,0.0,0.0,0.0,0.0,0.0,0.0,0.0,0.0,0.0,0.0,0.0,0.0,0.0,0.0,0.0,0.0,0.0,0.0,0.0,0.0,0.0,0.0,0.0,0.0,0.0,0.0,0.0,0.0,0.0,0.0,0.0,0.0,0.0,0.0,0.0,0.0,0.0,0.0,0.0,0.0,0.0,0.0,0.0,0.0,0.0,0.0,0.0,0.0,0.0,0.0,0.0,0.0,0.0,0.0,0.0,0.0,0.0,0.0,0.0,0.0,0.0,0.0,0.0,0.0,0.0,0.0,0.0,0.0,0.0,0.0,0.0,0.0,0.0,0.0,0.0,0.0,0.0,0.0,0.0,0.0,0.0,0.0,0.0,0.0,0.0,0.0,0.0,0.0,0.0,0.0,0.0,0.0,0.0,0.0,0.0,0.0,0.0,0.0,0.0,0.0,0.0,0.0,0.0,0.0,0.0,0.0,0.0,0.0,0.0,0.0,0.0,0.0,0.0,0.0,0.0,0.0,0.0,0.0,0.0,0.0,0.0,0.0,0.0,0.0,0.0,0.0,0.0,0.0,0.0,0.0,0.0,0.0,0.0,0.0,0.0,0.0,0.0,0.0,0.0,0.0,0.0,0.0,0.0,0.0,0.0,0.0,0.0,0.0,0.0,0.0,0.0,0.0,0.0,0.0,0.0,0.0,0.0,0.0,0.0,0.0,0.0,0.0,0.0,0.0,0.0,0.0,0.0,0.0,0.0,0.0,0.0,0.0,0.0,0.0,0.0,0.0,0.0,0.0,0.0,0.0,0.0,0.0,0.0,0.0,0.0,0.0,0.0,0.0,0.0,0.0,0.0,0.0,0.0,0.0,0.0,0.0,0.0,0.0,0.0,0.0,0.0,0.0,0.0,0.0,0.0,0.0,0.0,0.0,0.0,0.0,0.0,0.0,0.0,0.0,0.0,0.0,0.0,0.0,0.0,0.0,0.0,0.0,0.0,0.0,0.0,0.0,0.0,0.0,0.0,0.0,0.0,0.0,0.0,0.0,0.0,0.0,0.0,0.0,0.0,0.0,0.0,0.0,0.0,0.0,0.0,0.0,0.0,0.0,0.0,0.0,0.0,0.0,0.0,0.0,0.0,0.0,0.0,0.0,0.0,0.0,0.0,0.0,0.0,0.0,0.0,0.0,0.0,0.0,0.0,0.0,0.0,0.0,0.0,0.0,0.0,0.0,0.0,0.0,0.0,0.0,0.0,0.0,0.0,0.0,0.0,0.0,0.0,0.0,0.0,0.0,0.0,0.0,0.0,0.0,0.0,0.0,0.0,0.0,0.0,0.0,0.0,0.0,0.0,0.0,0.0,0.0,0.0,0.0,0.0,0.0,0.0,0.0,0.0,0.0,0.0,0.0,0.0,0.0,0.0,0.0,0.0,0.0,0.0,0.0,0.0,0.0,0.0,0.0,0.0,0.0,0.0,0.0,0.0,0.0,0.0,0.0,0.0,0.0,0.0,0.0,0.0,0.0,0.0,0.0,0.0,0.0,0.0,0.0,0.0,0.0,0.0,0.0,0.0,0.0,0.0,0.0,0.0,0.0,0.0,0.0,0.0,0.0,0.0,0.0,0.0,0.0,0.0,0.0,0.0,0.0,0.0,0.0,0.0,0.0,0.0,0.0,0.0,0.0,0.0,0.0,0.0]}],[{"header":{"parameterUnit":"kt","parameterCategory":2,"dx":1,"dy":1,"la1":29.587661999999998,"la2":31.0,"lo1":-88.76705300000003,"lo2":-86.6583820000003,"nx":115,"ny":88,"refTime":"2022-09-30T06:00:00:Z","depth":0,"parameterNumber":2,"parameterNumberName":"V-component_of_WINDS"},"data":[4.102,4.102,4.102,4.102,4.102,4.102,4.102,4.102,4.102,4.102,4.102,4.102,4.102,4.102,4.102,4.102,4.102,4.102,4.102,4.102,4.102,4.102,4.102,4.102,4.102,4.102,4.102,4.102,4.102,4.102,4.102,4.102,4.102,4.102,4.1007,4.0825,4.076,4.0695,4.0708,4.0487,4.0292,3.9994,3.9384,3.9202,3.915,3.9085,3.902,3.9007,3.8734,3.8371,3.7994,3.7838,3.7812,3.7851,3.7864,3.7929,3.7903,3.789,3.7916,3.7929,3.7955,3.7773,3.7773,3.7708,3.7695,3.7644,3.7644,3.7644,3.7644,3.7644,3.7644,3.7644,3.7644,3.7644,3.7644,3.7644,3.7644,3.7644,3.7644,3.7644,3.7644,3.7644,3.7644,3.7644,3.7644,3.7644,3.7644,3.7644,3.7644,3.7644,3.7644,3.7644,3.7644,3.7644,3.7644,3.7644,3.7644,3.7644,3.7644,3.7644,3.7644,3.7644,3.7644,3.7644,3.7405,3.6714,3.5544,3.2525,3.137,2.9291,2.884,2.9081,2.9301,2.9532,3.0452,4.102,4.102,4.102,4.102,4.102,4.102,4.102,4.102,4.102,4.102,4.102,4.102,4.102,4.102,4.102,4.102,4.102,4.102,4.0981,4.0981,4.0955,4.0812,4.0825,4.0903,4.0838,4.0825,4.0825,4.0838,4.0812,4.0812,4.0812,4.0994,4.102,4.0994,4.0877,4.063,4.056,4.0482,4.002,3.9431,3.9238,3.9122,3.8734,3.8708,3.8552,3.8319,3.802,3.7877,3.789,3.7721,3.7721,3.7644,3.7644,3.7644,3.7644,3.7644,3.7644,3.7644,3.7644,3.7644,3.7644,3.7644,3.7657,3.7657,3.7657,3.7644,3.7644,3.7644,3.7644,3.7644,3.7644,3.7644,3.7644,3.7644,3.7644,3.7644,3.7644,3.7644,3.7644,3.7644,3.7644,3.7644,3.7644,3.7644,3.7644,3.7644,3.7644,3.7644,3.7644,3.7644,3.7644,3.7644,3.7644,3.7644,3.7644,3.7644,3.7644,3.7644,3.7644,3.7644,3.7644,3.7644,3.7644,3.7644,3.7179,3.6475,3.5305,3.4839,3.2297,2.9762,3.0233,3.1162,3.161,3.2765,3.3689,4.102,4.102,4.102,4.102,4.102,4.102,4.102,4.102,4.102,4.102,4.102,4.102,4.102,4.102,4.102,4.102,4.102,4.1007,4.0799,4.0617,4.0487,4.0409,4.0176,4.002,4.0442,4.0657,4.0377,4.0137,4.0007,4.0124,4.015,4.0033,4.0046,4.0033,4.0007,3.989,3.9734,3.9985,3.9251,3.8747,3.8384,3.8358,3.8189,3.815,3.802,3.7942,3.7682,3.7644,3.7644,3.7644,3.7644,3.7644,3.7644,3.7644,3.7644,3.7644,3.7644,3.7644,3.7644,3.7644,3.7644,3.7644,3.7644,3.7644,3.7644,3.7475,3.7475,3.7699,3.7699,3.766,3.766,3.7449,3.7449,3.7514,3.754,3.7605,3.7644,3.7644,3.7644,3.7644,3.7644,3.7644,3.7644,3.7644,3.7644,3.7644,3.7644,3.7644,3.7644,3.7644,3.7644,3.7644,3.7644,3.7644,3.7644,3.7644,3.7644,3.7644,3.7644,3.7644,3.7644,3.7644,3.7644,3.7631,3.7379,3.6638,3.6651,3.6475,3.4396,3.2334,3.2607,3.3369,3.4624,3.5771,3.5375,4.063,4.063,4.063,4.0721,4.0825,4.0968,4.102,4.1007,4.0773,4.0578,4.0617,4.086,4.0847,4.0487,4.0474,4.0461,4.05,4.0357,4.0318,4.0098,3.9981,3.9547,3.895,3.9289,3.9737,4.0131,3.9882,3.9474,3.9526,3.9461,3.9371,3.9371,3.9435,3.9251,3.8962,3.9202,3.8876,3.8863,3.8359,3.8102,3.789,3.7708,3.7644,3.767,3.7682,3.7682,3.767,3.7644,3.7644,3.7644,3.7644,3.7644,3.7644,3.7644,3.7644,3.7644,3.7644,3.7644,3.7644,3.7644,3.7644,3.7644,3.7644,3.7644,3.7527,3.7345,3.7451,3.7674,3.7661,3.7399,3.7373,3.7386,3.7176,3.7293,3.7397,3.7514,3.7644,3.7644,3.7644,3.7644,3.7644,3.7644,3.7644,3.7644,3.7644,3.7644,3.7631,3.7644,3.7644,3.7592,3.7579,3.7553,3.7579,3.7553,3.7644,3.7644,3.7644,3.7644,3.7579,3.7605,3.7644,3.7592,3.754,3.7566,3.7397,3.6902,3.6824,3.7254,3.7228,3.6106,3.5598,3.5029,3.6043,3.5116,3.516,3.9474,3.9513,3.9461,3.9825,4.0279,4.0747,4.0955,4.0916,3.9955,3.9487,3.9802,4.0579,4.0408,3.9747,3.9734,3.9695,3.9734,3.9747,3.9643,3.941,3.9397,3.8992,3.8616,3.8757,3.9033,3.9215,3.9241,3.8981,3.9202,3.9124,3.9046,3.9332,3.9215,3.8825,3.8203,3.845,3.8308,3.8244,3.796,3.7955,3.7708,3.7644,3.7644,3.7644,3.7644,3.7644,3.7644,3.7644,3.7644,3.7644,3.7644,3.7644,3.7644,3.7644,3.7644,3.7644,3.7644,3.7644,3.7644,3.754,3.7566,3.7566,3.7631,3.7436,3.6837,3.6527,3.6798,3.6991,3.7262,3.703,3.6785,3.6566,3.6657,3.6787,3.6877,3.6981,3.7098,3.7176,3.7176,3.7412,3.7412,3.7451,3.7477,3.7384,3.7358,3.754,3.7592,3.7631,3.7605,3.7501,3.7449,3.741,3.7306,3.7215,3.7267,3.7215,3.7371,3.7501,3.7475,3.7436,3.7163,3.7241,3.7397,3.7137,3.6851,3.6618,3.6462,3.6436,3.6436,3.6423,3.6423,3.6228,3.4939,3.3538,3.284,3.9332,3.9332,3.9332,3.9461,3.9682,3.9916,4.0007,3.9677,3.8751,3.8796,3.9332,3.9829,3.962,3.928,3.9267,3.9267,3.9267,3.9202,3.9059,3.8916,3.8812,3.8373,3.7885,3.8024,3.8384,3.8306,3.8293,3.8449,3.8254,3.8293,3.8358,3.8384,3.8319,3.8037,3.7795,3.7934,3.7779,3.7903,3.7786,3.7682,3.7644,3.7644,3.7644,3.7644,3.7644,3.7644,3.7644,3.7644,3.7644,3.7644,3.7644,3.7644,3.7631,3.7631,3.7631,3.7804,3.7566,3.754,3.7475,3.7306,3.7163,3.7033,3.6774,3.6424,3.5858,3.5436,3.5968,3.6281,3.6575,3.6614,3.6171,3.5955,3.6098,3.6228,3.6306,3.6384,3.6514,3.6644,3.667,3.6902,3.6929,3.7188,3.7059,3.7229,3.7124,3.7176,3.7241,3.7332,3.7319,3.7124,3.6968,3.6942,3.6851,3.68,3.6579,3.6475,3.6579,3.6683,3.6825,3.6838,3.6605,3.6579,3.667,3.6514,3.6306,3.6189,3.6059,3.5917,3.5761,3.602,3.6085,3.4763,3.3084,3.1487,2.9915,3.8851,3.8838,3.8838,3.8942,3.9046,3.8916,3.8838,3.8838,3.8075,3.805,3.8838,3.8851,3.8734,3.8838,3.8851,3.8812,3.8812,3.8773,3.854,3.8397,3.8241,3.7981,3.7825,3.7747,3.7682,3.7695,3.7708,3.7786,3.7708,3.7695,3.7721,3.7644,3.7812,3.776,3.7734,3.7657,3.7682,3.767,3.7682,3.7644,3.7644,3.7644,3.7644,3.7644,3.7644,3.7644,3.7644,3.7644,3.7644,3.7644,3.7644,3.7725,3.7712,3.766,3.774,3.7713,3.7425,3.7176,3.7098,3.702,3.6798,3.6462,3.5826,3.5075,3.4484,3.442,3.4857,3.5202,3.54,3.5361,3.5335,3.5202,3.5319,3.5501,3.567,3.5865,3.6176,3.6254,3.5781,3.6011,3.6484,3.6511,3.6484,3.641,3.6566,3.667,3.6774,3.6903,3.6864,3.6475,3.628,3.6267,3.6241,3.6332,3.6124,3.5917,3.5904,3.5904,3.6098,3.6176,3.6098,3.6072,3.5994,3.5904,3.5787,3.5696,3.5592,3.5345,3.506,3.5332,3.5262,3.3212,3.1113,2.9393,2.7869,3.7708,3.7695,3.7708,3.8046,3.8371,3.8033,3.7786,3.7734,3.7734,3.776,3.776,3.7838,3.7903,3.7799,3.7773,3.7838,3.789,3.7864,3.7812,3.7773,3.7825,3.7747,3.767,3.7644,3.7644,3.7644,3.7644,3.7644,3.7644,3.7644,3.7644,3.7644,3.7644,3.7644,3.7644,3.7644,3.7644,3.7644,3.7644,3.7644,3.7644,3.7644,3.7644,3.7644,3.7618,3.7605,3.7501,3.7712,3.7738,3.7699,3.7752,3.7727,3.7751,3.78,3.77,3.7445,3.661,3.6419,3.6202,3.6866,3.6694,3.5696,3.493,3.4475,3.4165,3.432,3.4398,3.4592,3.4618,3.4488,3.4397,3.454,3.4683,3.4839,3.5047,3.5293,3.5644,3.5508,3.5242,3.5216,3.567,3.587,3.5592,3.5813,3.5968,3.5981,3.593,3.6059,3.5865,3.5527,3.5501,3.5501,3.5592,3.5748,3.5748,3.5566,3.5488,3.5332,3.5501,3.5501,3.5722,3.5735,3.5501,3.5319,3.5241,3.5098,3.4891,3.4657,3.4475,3.4462,3.4657,3.2619,2.9282,2.7689,2.5784,3.7644,3.7644,3.7644,3.7773,3.789,3.7734,3.7644,3.7644,3.7644,3.7644,3.7644,3.7644,3.7644,3.7644,3.7644,3.7644,3.7644,3.7644,3.7644,3.7644,3.7644,3.7644,3.7644,3.7644,3.7644,3.7644,3.7644,3.7644,3.7644,3.7644,3.7644,3.7644,3.7644,3.7644,3.7644,3.7644,3.7644,3.7644,3.7644,3.7644,3.7644,3.7605,3.7618,3.7605,3.754,3.7436,3.7202,3.7281,3.7411,3.7083,3.7223,3.7646,3.7321,3.7202,3.6623,3.6531,3.6184,3.593,3.5748,3.6097,3.5452,3.4956,3.4488,3.4203,3.419,3.419,3.419,3.419,3.4228,3.4241,3.4267,3.4254,3.4345,3.4358,3.4501,3.4514,3.4774,3.4813,3.4565,3.4501,3.4709,3.4722,3.4735,3.506,3.5358,3.5215,3.5073,3.4891,3.4735,3.4657,3.4618,3.4644,3.4722,3.4865,3.4943,3.5008,3.4982,3.4813,3.4709,3.4631,3.4839,3.5124,3.4917,3.4709,3.4696,3.4605,3.428,3.419,3.428,3.4267,3.419,3.1659,2.7877,2.5994,2.4321,3.7644,3.7644,3.7644,3.7644,3.7644,3.7644,3.7644,3.7644,3.7644,3.7644,3.7644,3.7644,3.7644,3.7644,3.7644,3.7644,3.7644,3.7644,3.7644,3.7644,3.7644,3.7644,3.7644,3.7644,3.7644,3.7644,3.7644,3.7644,3.7644,3.7644,3.7644,3.7644,3.7644,3.7644,3.7631,3.7644,3.7631,3.7631,3.7631,3.7631,3.7618,3.7436,3.7319,3.7306,3.7072,3.6825,3.654,3.6256,3.5896,3.564,3.5843,3.6184,3.6176,3.5897,3.5314,3.5332,3.5319,3.5345,3.5202,3.4836,3.4333,3.4165,3.419,3.419,3.419,3.419,3.419,3.419,3.419,3.419,3.419,3.419,3.419,3.419,3.419,3.419,3.419,3.419,3.419,3.419,3.419,3.4293,3.4345,3.467,3.4761,3.4657,3.4631,3.4423,3.4384,3.4254,3.4203,3.419,3.419,3.419,3.4216,3.4462,3.4501,3.4488,3.4345,3.419,3.419,3.4384,3.4345,3.4449,3.4319,3.419,3.419,3.419,3.419,3.419,3.419,3.2495,2.9553,2.7041,2.4742,3.7644,3.7644,3.7644,3.7644,3.7644,3.7644,3.7644,3.7644,3.7644,3.7644,3.7644,3.7644,3.7644,3.7644,3.7644,3.7644,3.7644,3.7644,3.7644,3.7644,3.7644,3.7644,3.7644,3.7644,3.7644,3.7644,3.7644,3.7644,3.7644,3.7644,3.7644,3.7644,3.7423,3.7358,3.7553,3.7579,3.7579,3.7566,3.7488,3.7673,3.7543,3.6968,3.6813,3.6696,3.6449,3.6202,3.574,3.5219,3.4839,3.4636,3.4849,3.4921,3.4875,3.46,3.4395,3.4436,3.4358,3.4306,3.4241,3.4228,3.4241,3.4203,3.419,3.419,3.419,3.419,3.419,3.419,3.419,3.419,3.419,3.419,3.419,3.419,3.419,3.419,3.419,3.419,3.419,3.419,3.419,3.419,3.4203,3.4216,3.4267,3.4254,3.4203,3.4203,3.4228,3.419,3.419,3.419,3.419,3.419,3.419,3.419,3.419,3.419,3.419,3.419,3.419,3.419,3.419,3.4203,3.419,3.419,3.419,3.419,3.419,3.419,3.419,3.3548,3.144,2.9127,2.7251,3.7644,3.7644,3.7644,3.7644,3.7644,3.7644,3.7644,3.7644,3.7618,3.7644,3.7644,3.7644,3.7644,3.7644,3.7618,3.7592,3.754,3.7553,3.7592,3.7566,3.754,3.7644,3.7644,3.7592,3.7488,3.7644,3.7644,3.7579,3.7527,3.7618,3.7553,3.7293,3.6929,3.6618,3.6527,3.6436,3.5947,3.5703,3.596,3.6706,3.7468,3.6767,3.6202,3.6137,3.5968,3.5696,3.5185,3.462,3.423,3.4224,3.4293,3.4177,3.4294,3.4204,3.4139,3.4254,3.4203,3.4203,3.419,3.419,3.419,3.419,3.419,3.419,3.419,3.419,3.419,3.419,3.419,3.419,3.419,3.419,3.419,3.419,3.419,3.419,3.419,3.419,3.419,3.419,3.419,3.419,3.419,3.4203,3.4228,3.4216,3.419,3.419,3.419,3.419,3.419,3.419,3.419,3.419,3.419,3.419,3.419,3.419,3.419,3.419,3.419,3.419,3.419,3.419,3.419,3.419,3.419,3.419,3.419,3.419,3.3754,3.3536,3.1647,3.059,2.9138,3.7319,3.7293,3.7072,3.6994,3.6994,3.6994,3.7007,3.6994,3.6994,3.6994,3.6955,3.6994,3.6994,3.6968,3.6994,3.6994,3.6994,3.6994,3.6955,3.6981,3.6994,3.6994,3.6981,3.6929,3.702,3.6942,3.6955,3.6994,3.7033,3.6864,3.6968,3.6851,3.6345,3.5994,3.593,3.5817,3.5283,3.48,3.5486,3.621,3.6869,3.604,3.5618,3.5566,3.5475,3.5047,3.4826,3.4305,3.4294,3.4306,3.4254,3.4254,3.4241,3.4241,3.4216,3.419,3.419,3.419,3.419,3.419,3.419,3.419,3.419,3.419,3.419,3.419,3.419,3.419,3.419,3.419,3.419,3.419,3.419,3.419,3.419,3.419,3.419,3.419,3.419,3.419,3.419,3.419,3.419,3.419,3.419,3.419,3.419,3.419,3.419,3.419,3.419,3.419,3.419,3.419,3.419,3.419,3.419,3.419,3.419,3.419,3.419,3.419,3.419,3.419,3.419,3.419,3.419,3.419,3.419,3.419,3.3754,3.333,3.2689,3.2059,3.0394,3.6709,3.6631,3.6163,3.6007,3.602,3.5955,3.5981,3.6111,3.6033,3.6046,3.6124,3.602,3.6111,3.6059,3.615,3.6111,3.6007,3.5955,3.6098,3.6085,3.5968,3.6124,3.6176,3.6189,3.6098,3.6098,3.6202,3.6163,3.6007,3.6059,3.5813,3.5813,3.5592,3.5722,3.567,3.5275,3.4811,3.4585,3.5075,3.5631,3.5514,3.5293,3.5021,3.4891,3.4527,3.419,3.4203,3.4267,3.4216,3.4216,3.419,3.419,3.419,3.419,3.419,3.419,3.419,3.419,3.419,3.419,3.419,3.419,3.419,3.419,3.419,3.419,3.419,3.419,3.419,3.419,3.419,3.419,3.419,3.419,3.419,3.419,3.419,3.419,3.419,3.419,3.419,3.419,3.419,3.419,3.419,3.419,3.419,3.419,3.419,3.419,3.419,3.419,3.419,3.419,3.419,3.419,3.419,3.419,3.419,3.419,3.419,3.419,3.419,3.419,3.419,3.419,3.419,3.419,3.419,3.419,3.419,3.3972,3.3536,3.3125,3.1865,3.5891,3.554,3.5826,3.5955,3.5955,3.5955,3.593,3.593,3.565,3.5675,3.5955,3.6145,3.6158,3.5943,3.5865,3.5813,3.5904,3.5955,3.5955,3.5955,3.5955,3.5878,3.58,3.5865,3.5865,3.5968,3.5774,3.5787,3.5592,3.5202,3.4748,3.4618,3.48,3.4722,3.4657,3.4709,3.454,3.4293,3.454,3.4735,3.4683,3.4514,3.4462,3.4384,3.428,3.419,3.419,3.419,3.419,3.419,3.419,3.419,3.419,3.419,3.419,3.419,3.419,3.419,3.419,3.419,3.419,3.419,3.419,3.419,3.419,3.419,3.419,3.419,3.419,3.419,3.419,3.419,3.419,3.419,3.419,3.419,3.419,3.419,3.419,3.419,3.419,3.419,3.419,3.419,3.419,3.419,3.419,3.419,3.419,3.419,3.419,3.419,3.419,3.419,3.419,3.419,3.419,3.419,3.419,3.419,3.419,3.419,3.419,3.419,3.419,3.419,3.419,3.419,3.419,3.419,3.419,3.419,3.419,3.4177,3.2919,3.4982,3.4709,3.5047,3.5176,3.5176,3.5176,3.5189,3.5176,3.494,3.4953,3.5176,3.5413,3.5413,3.5124,3.5176,3.5202,3.5176,3.5124,3.5176,3.5124,3.5124,3.515,3.5202,3.5176,3.5189,3.5098,3.5163,3.5254,3.5021,3.4501,3.419,3.4228,3.4216,3.419,3.4306,3.4216,3.419,3.419,3.419,3.419,3.419,3.419,3.419,3.419,3.419,3.419,3.419,3.419,3.419,3.419,3.419,3.419,3.419,3.419,3.419,3.419,3.419,3.419,3.419,3.419,3.419,3.419,3.419,3.419,3.419,3.419,3.419,3.419,3.419,3.419,3.419,3.419,3.419,3.419,3.419,3.419,3.419,3.419,3.419,3.419,3.419,3.419,3.419,3.419,3.419,3.419,3.419,3.419,3.419,3.419,3.419,3.419,3.419,3.419,3.419,3.419,3.419,3.419,3.419,3.419,3.419,3.419,3.419,3.419,3.419,3.419,3.419,3.419,3.419,3.419,3.419,3.419,3.419,3.3972,3.1865,3.419,3.419,3.4203,3.419,3.4228,3.4254,3.4228,3.4254,3.428,3.419,3.4332,3.4241,3.4293,3.4306,3.4293,3.4241,3.4254,3.4345,3.4397,3.4423,3.4384,3.4384,3.4267,3.419,3.4384,3.4436,3.4345,3.419,3.4293,3.4306,3.419,3.419,3.419,3.419,3.419,3.419,3.419,3.419,3.419,3.419,3.419,3.419,3.419,3.419,3.419,3.419,3.419,3.419,3.419,3.419,3.419,3.419,3.419,3.419,3.419,3.419,3.419,3.419,3.419,3.419,3.419,3.419,3.419,3.419,3.419,3.419,3.419,3.419,3.419,3.419,3.419,3.419,3.419,3.419,3.419,3.419,3.419,3.419,3.419,3.419,3.419,3.419,3.419,3.419,3.419,3.419,3.419,3.419,3.419,3.419,3.419,3.419,3.419,3.419,3.419,3.419,3.419,3.419,3.419,3.419,3.419,3.419,3.419,3.419,3.419,3.419,3.419,3.419,3.419,3.419,3.419,3.419,3.4177,3.2071,2.998,3.419,3.419,3.419,3.419,3.419,3.419,3.419,3.419,3.419,3.419,3.419,3.419,3.419,3.419,3.419,3.419,3.419,3.419,3.419,3.419,3.419,3.419,3.419,3.419,3.419,3.419,3.419,3.419,3.419,3.419,3.419,3.419,3.419,3.419,3.419,3.419,3.419,3.419,3.419,3.419,3.419,3.419,3.419,3.419,3.419,3.419,3.4203,3.3754,3.3523,3.4177,3.419,3.419,3.419,3.419,3.419,3.419,3.419,3.419,3.419,3.419,3.419,3.419,3.419,3.419,3.419,3.419,3.419,3.419,3.419,3.419,3.419,3.419,3.419,3.419,3.419,3.419,3.419,3.419,3.419,3.419,3.419,3.419,3.419,3.419,3.419,3.419,3.419,3.419,3.419,3.419,3.419,3.419,3.419,3.419,3.419,3.419,3.419,3.419,3.419,3.419,3.419,3.419,3.419,3.419,3.419,3.419,3.419,3.419,3.419,3.419,3.419,3.3767,3.2919,3.1027,2.893,3.419,3.419,3.419,3.419,3.419,3.419,3.419,3.419,3.419,3.419,3.419,3.419,3.419,3.419,3.419,3.419,3.419,3.419,3.419,3.419,3.419,3.419,3.419,3.419,3.419,3.419,3.419,3.419,3.419,3.419,3.419,3.419,3.419,3.419,3.419,3.419,3.419,3.419,3.419,3.419,3.419,3.419,3.4267,3.3651,3.3007,3.2995,3.3213,3.229,3.1526,3.3728,3.419,3.419,3.419,3.419,3.419,3.419,3.419,3.419,3.419,3.419,3.4164,3.4177,3.419,3.419,3.419,3.4138,3.419,3.419,3.419,3.419,3.419,3.419,3.419,3.419,3.419,3.419,3.419,3.419,3.419,3.419,3.419,3.419,3.419,3.419,3.419,3.419,3.419,3.419,3.419,3.419,3.419,3.419,3.419,3.419,3.419,3.419,3.419,3.419,3.419,3.419,3.419,3.419,3.419,3.419,3.419,3.419,3.419,3.419,3.419,3.419,3.419,3.3767,3.229,3.0394,2.8305,3.419,3.419,3.419,3.419,3.419,3.419,3.419,3.419,3.419,3.419,3.419,3.419,3.419,3.419,3.419,3.419,3.419,3.419,3.419,3.419,3.419,3.419,3.419,3.419,3.419,3.419,3.419,3.419,3.419,3.419,3.419,3.419,3.419,3.419,3.419,3.419,3.419,3.419,3.419,3.3754,3.333,3.2894,3.2533,3.1743,3.1062,3.1039,3.1269,2.9418,2.9351,3.351,3.4177,3.4216,3.4254,3.4267,3.4228,3.4203,3.419,3.419,3.4138,3.4099,3.4021,3.4021,3.3839,3.3813,3.3826,3.3826,3.3774,3.3878,3.4185,3.429,3.4164,3.419,3.419,3.419,3.419,3.419,3.419,3.419,3.419,3.419,3.419,3.419,3.419,3.419,3.419,3.419,3.419,3.419,3.419,3.419,3.419,3.419,3.419,3.419,3.419,3.419,3.419,3.419,3.419,3.419,3.419,3.419,3.419,3.419,3.419,3.419,3.419,3.419,3.419,3.419,3.4177,3.3972,3.2277,3.0394,2.8086,3.419,3.419,3.419,3.419,3.419,3.419,3.419,3.419,3.419,3.419,3.419,3.419,3.419,3.419,3.419,3.419,3.419,3.419,3.419,3.419,3.419,3.419,3.419,3.419,3.419,3.419,3.419,3.419,3.419,3.419,3.419,3.419,3.419,3.419,3.419,3.419,3.419,3.419,3.4177,3.333,3.1222,3.0118,2.9223,2.8831,2.8842,2.967,2.9351,3.1115,3.2882,3.4177,3.419,3.4306,3.4217,3.4281,3.4204,3.4177,3.406,3.3995,3.3904,3.3696,3.3462,3.365,3.3086,3.2813,3.2813,3.2891,3.3086,3.3307,3.3929,3.4288,3.4112,3.4099,3.4125,3.4151,3.4164,3.419,3.419,3.419,3.4151,3.4164,3.419,3.419,3.419,3.419,3.419,3.419,3.419,3.419,3.419,3.419,3.419,3.419,3.419,3.419,3.419,3.419,3.419,3.419,3.419,3.419,3.419,3.419,3.419,3.419,3.419,3.419,3.419,3.419,3.419,3.419,3.3972,3.3767,3.2277,3.0383,2.724,3.419,3.419,3.419,3.419,3.419,3.419,3.419,3.419,3.419,3.419,3.419,3.419,3.419,3.419,3.419,3.419,3.419,3.419,3.419,3.419,3.419,3.419,3.419,3.419,3.419,3.419,3.419,3.419,3.419,3.419,3.419,3.419,3.419,3.419,3.419,3.419,3.419,3.419,3.4177,3.2907,3.0164,2.906,2.8143,2.859,2.9049,3.0452,2.9991,3.2975,3.2291,2.9772,2.6835,2.5103,2.5597,3.0714,3.3868,3.4094,3.3807,3.3281,3.3268,3.3034,3.2878,3.2642,3.2631,3.2514,3.2683,3.2022,3.198,3.28,3.3574,3.3865,3.3454,3.3702,3.3937,3.3989,3.3995,3.4177,3.4125,3.3891,3.3787,3.4112,3.4138,3.4164,3.4177,3.419,3.419,3.419,3.419,3.419,3.419,3.419,3.419,3.419,3.419,3.419,3.419,3.419,3.419,3.419,3.419,3.419,3.419,3.419,3.419,3.419,3.419,3.419,3.419,3.419,3.419,3.419,3.3972,3.3548,3.2495,3.0808,2.7658,3.419,3.419,3.419,3.419,3.419,3.419,3.419,3.419,3.419,3.419,3.419,3.419,3.419,3.419,3.419,3.419,3.419,3.419,3.419,3.419,3.419,3.419,3.419,3.419,3.419,3.419,3.419,3.419,3.419,3.419,3.419,3.419,3.419,3.419,3.419,3.419,3.419,3.419,3.4254,3.257,2.9565,2.6897,2.5607,2.6602,2.9446,3.1787,3.357,3.1955,2.8553,2.4312,2.0328,1.8719,2.0318,2.703,3.2038,3.2847,3.2484,3.1916,3.2268,3.2424,3.2087,3.2036,3.1894,3.2317,3.2536,3.1381,3.1457,3.2074,3.3173,3.3266,3.2618,3.3377,3.3548,3.3428,3.3475,3.3722,3.3722,3.3384,3.332,3.3644,3.4055,3.4212,3.3969,3.4021,3.419,3.419,3.419,3.419,3.419,3.419,3.419,3.419,3.419,3.419,3.419,3.419,3.419,3.419,3.419,3.419,3.419,3.419,3.419,3.419,3.4138,3.419,3.419,3.4177,3.4112,3.4164,3.419,3.3972,3.3125,3.1015,2.8502,3.419,3.419,3.419,3.419,3.419,3.419,3.419,3.419,3.419,3.419,3.419,3.419,3.419,3.419,3.419,3.419,3.419,3.419,3.419,3.419,3.419,3.419,3.419,3.419,3.419,3.419,3.419,3.419,3.419,3.419,3.419,3.419,3.419,3.419,3.419,3.419,3.419,3.4216,3.4139,3.1815,2.7439,2.259,2.0718,2.1978,2.7911,3.1721,3.1021,2.5364,1.9687,1.8417,1.7774,1.7313,1.8058,2.2985,2.8087,3.09,3.0337,3.0131,3.1763,3.1726,3.1709,3.1644,3.1255,3.0956,3.1086,3.0938,3.0893,3.1683,3.2345,3.2339,3.2023,3.2657,3.2748,3.2592,3.2566,3.2657,3.2631,3.2605,3.2579,3.267,3.36,3.3811,3.378,3.3826,3.4151,3.3891,3.3995,3.4047,3.4138,3.4164,3.419,3.419,3.419,3.419,3.419,3.419,3.419,3.4177,3.4177,3.4112,3.4112,3.3904,3.4021,3.4008,3.3735,3.3722,3.3852,3.3956,3.4021,3.3982,3.3722,3.3904,3.3421,3.0445,2.7668,3.419,3.419,3.419,3.419,3.419,3.419,3.419,3.419,3.419,3.419,3.419,3.419,3.419,3.419,3.4177,3.4177,3.419,3.419,3.4177,3.4177,3.4164,3.4164,3.4164,3.419,3.419,3.419,3.419,3.4177,3.419,3.419,3.419,3.419,3.419,3.419,3.419,3.419,3.419,3.4203,3.4062,3.24,2.8064,2.1057,1.9235,2.2587,2.2648,2.6343,2.809,2.1658,1.73,1.732,1.7326,1.7389,1.7675,2.1859,2.4935,2.6741,2.7652,2.8189,2.9294,3.0517,3.0951,3.1073,3.0956,3.0787,3.0761,3.0774,3.08,3.1112,3.1338,3.1268,3.1248,3.1489,3.1657,3.1891,3.1683,3.1631,3.1969,3.1764,3.1688,3.2411,3.2892,3.3062,3.3049,3.3021,3.3307,3.3579,3.3696,3.3839,3.4034,3.4151,3.419,3.419,3.419,3.419,3.419,3.419,3.419,3.4177,3.4138,3.3982,3.3735,3.3281,3.3255,3.3138,3.3164,3.3138,3.3047,3.306,3.3307,3.341,3.3216,3.2528,3.0659,2.8072,2.5467,3.3722,3.3735,3.3722,3.3735,3.3735,3.3735,3.3722,3.3722,3.3709,3.3644,3.3924,3.4179,3.4113,3.3722,3.3696,3.3826,3.3891,3.393,3.3995,3.4138,3.406,3.3969,3.4172,3.4257,3.4218,3.393,3.4133,3.4264,3.4177,3.419,3.419,3.419,3.419,3.419,3.419,3.419,3.419,3.419,3.4241,3.257,2.87,2.3717,2.2703,2.3899,2.0877,2.1097,2.2605,1.9376,1.736,1.7173,1.7079,1.6892,1.7011,1.9426,2.1429,2.2819,2.4758,2.6439,2.7956,2.985,3.0603,3.0761,3.0787,3.0761,3.0761,3.0761,3.0761,3.0761,3.0761,3.08,3.0787,3.0826,3.0982,3.1268,3.1112,3.1021,3.1294,3.0995,3.0909,3.1752,3.2357,3.2448,3.2307,3.245,3.2709,3.3008,3.3138,3.3216,3.3462,3.3631,3.3826,3.3917,3.406,3.4112,3.4125,3.4125,3.4112,3.4047,3.3865,3.3644,3.3177,3.28,3.2592,3.2424,3.267,3.2774,3.2592,3.2398,3.2476,3.2722,3.2069,3.0926,2.8564,2.6026,2.3489,3.2579,3.2566,3.2579,3.2657,3.2657,3.2657,3.2696,3.2631,3.2631,3.267,3.2892,3.3692,3.3612,3.2866,3.293,3.3138,3.3333,3.3488,3.3787,3.3969,3.3774,3.3715,3.409,3.4182,3.3759,3.3558,3.3824,3.4073,3.3969,3.4047,3.4164,3.4125,3.4138,3.419,3.419,3.419,3.419,3.4216,3.4204,3.1632,2.7052,2.9194,2.8006,1.8853,2.0555,2.0768,1.9052,1.7741,1.7194,1.6727,1.6228,1.5755,1.5739,1.5874,1.7835,2.0398,2.2273,2.5469,2.9072,3.0208,3.0749,3.0684,3.0671,3.0761,3.0606,3.0541,3.0567,3.0671,3.0697,3.0723,3.0761,3.0761,3.0761,3.0826,3.0723,3.0749,3.0813,3.0852,3.0758,3.106,3.1774,3.2319,3.1683,3.2073,3.232,3.2501,3.2514,3.2592,3.2813,3.3138,3.3333,3.3514,3.3683,3.3709,3.3644,3.3644,3.3631,3.3527,3.3294,3.2969,3.2527,3.2424,3.21,3.2268,3.2333,3.2385,3.2333,3.2177,3.2138,3.2073,3.0954,2.9409,2.719,2.4468,2.2072,3.2476,3.2476,3.2476,3.2476,3.2476,3.2476,3.2476,3.2268,3.1607,3.1814,3.2345,3.3049,3.3021,3.3086,3.3384,3.3462,3.3358,3.3709,3.3982,3.4099,3.3917,3.3644,3.3081,3.3535,3.343,3.3049,3.3232,3.3351,3.3125,3.3449,3.3644,3.3735,3.4008,3.4164,3.419,3.419,3.419,3.4216,3.4204,3.2315,2.8776,2.5173,2.2444,2.0334,1.9502,1.8653,1.7567,1.7194,1.7042,1.6668,1.6054,1.5489,1.5627,1.5594,1.6119,1.7893,2.0925,2.3786,2.5866,2.9022,3.0645,3.0307,3.0242,3.0112,2.9992,2.9723,3.011,3.0578,3.0657,3.0801,3.0684,3.0749,3.0396,3.0087,3.0048,3.0398,3.071,3.0761,3.0761,3.0813,3.1155,3.1259,3.1099,3.1346,3.1515,3.1878,3.1943,3.2008,3.2424,3.2631,3.2735,3.2891,3.3138,3.3203,3.3164,3.3177,3.3164,3.2904,3.2449,3.2255,3.1969,3.1739,3.1648,3.1584,3.1683,3.1696,3.1683,3.1618,3.1631,3.1235,3.073,2.8975,2.677,2.3625,2.0779,3.1943,3.193,3.1943,3.1943,3.1943,3.1943,3.2073,3.219,3.1122,3.143,3.2307,3.2012,3.2388,3.3138,3.3449,3.3514,3.3397,3.3904,3.4073,3.3917,3.3891,3.3657,3.3081,3.2956,3.2592,3.2048,3.2435,3.2526,3.254,3.2878,3.3073,3.3125,3.3449,3.3709,3.3649,3.3904,3.4086,3.4049,3.3107,3.0741,2.7041,2.0805,1.8291,1.9884,1.8431,1.7319,1.724,1.7042,1.6851,1.6646,1.5874,1.5534,1.5496,1.5625,1.6004,1.6954,2.0096,2.2263,2.4125,2.7152,2.9107,2.9583,2.9671,2.945,2.8951,2.8725,2.9093,2.9987,3.0487,3.0402,3.0151,3.0242,2.9854,2.9289,2.9467,2.9827,3.0099,3.0346,3.0567,3.071,3.0761,3.0761,3.0787,3.08,3.1008,3.1307,3.1359,3.145,3.1839,3.2021,3.2216,3.2255,3.245,3.2618,3.2735,3.2813,3.2476,3.2008,3.1623,3.1339,3.1222,3.1132,3.1003,3.0887,3.0956,3.0904,3.0878,3.0904,3.0995,3.0706,2.9703,2.8154,2.6053,2.3478,2.036,3.0878,3.0917,3.08,3.093,3.093,3.093,3.1164,3.1657,3.1049,3.1573,3.2242,3.1463,3.1784,3.2384,3.2826,3.293,3.3423,3.393,3.3943,3.3527,3.3475,3.3663,3.3958,3.2657,3.1713,3.0872,3.1657,3.2148,3.232,3.2411,3.2476,3.2476,3.2592,3.2681,3.2431,3.292,3.352,3.3201,3.0176,2.6552,2.1978,1.8936,1.7466,1.7573,1.7319,1.718,1.6943,1.6897,1.664,1.6192,1.5867,1.5521,1.5477,1.5625,1.6569,1.8406,1.9097,2.1494,2.5089,2.606,2.7684,2.8725,2.9086,2.8648,2.7911,2.7725,2.8172,2.9261,3.0063,3.0117,2.9002,2.8951,2.906,2.8686,2.8886,2.9138,2.9294,2.9632,3.0125,3.0528,3.0671,3.0736,3.0749,3.0736,3.0787,3.0865,3.0878,3.0943,3.106,3.1398,3.1593,3.1722,3.1891,3.2034,3.2242,3.2385,3.1722,3.1203,3.1138,3.0887,3.0835,3.0809,3.0706,3.068,3.0774,3.0761,3.0761,3.0567,3.0606,3.0161,2.847,2.713,2.5253,2.32,2.007,3.206,3.1411,3.1346,3.1138,3.0787,3.0761,3.1099,3.1606,3.1847,3.2161,3.2488,3.2891,3.3047,3.3112,3.3462,3.3761,3.3917,3.4073,3.4086,3.3917,3.3904,3.4152,3.3997,3.3193,3.2165,3.1075,3.1416,3.1502,3.1385,3.1709,3.1904,3.1943,3.2307,3.2124,3.1209,3.068,3.1731,3.2569,2.7743,2.3635,2.1562,1.8803,1.7332,1.7312,1.6976,1.6726,1.6633,1.6449,1.6251,1.608,1.5679,1.5529,1.5451,1.5625,1.5917,1.6668,1.8795,2.1024,2.327,2.6456,2.8363,2.8567,2.8502,2.8294,2.757,2.7364,2.7957,2.8804,2.9488,2.9477,2.8628,2.8189,2.81,2.8254,2.8489,2.8645,2.9021,2.9229,2.9437,2.9658,3.0175,3.0397,3.0242,3.0541,3.071,3.0761,3.0761,3.0761,3.0774,3.0956,3.1047,3.1073,3.1294,3.1398,3.1476,3.1528,3.1073,3.0969,3.0917,3.0865,3.0826,3.0813,3.0787,3.0774,3.0761,3.0761,3.0645,3.0398,3.0268,3.0164,2.8808,2.7271,2.5286,2.2943,2.0802,3.2164,3.1346,3.1541,3.1424,3.1112,3.1307,3.1709,3.2435,3.2887,3.3009,3.331,3.3916,3.4073,3.3631,3.3592,3.3566,3.3566,3.3553,3.3566,3.3566,3.3566,3.3598,3.3495,3.3245,3.2294,3.1519,3.1618,3.1333,3.0878,3.1138,3.132,3.1398,3.1696,3.1547,3.0661,2.9137,2.8033,2.7503,2.4145,2.1193,1.9715,1.7885,1.7062,1.7035,1.6686,1.6442,1.635,1.6172,1.602,1.5921,1.5737,1.5625,1.5625,1.5625,1.5493,1.5391,1.702,1.9148,2.1568,2.5044,2.7278,2.7802,2.7918,2.7762,2.7463,2.7398,2.7706,2.8393,2.8498,2.8436,2.8047,2.7647,2.7541,2.784,2.7918,2.8074,2.8398,2.8658,2.8762,2.8654,2.947,3.0013,2.9736,3.0112,3.045,3.0476,3.0645,3.0749,3.0774,3.0761,3.08,3.0774,3.0761,3.0761,3.0761,3.0749,3.0749,3.0564,3.0341,3.0131,2.9306,2.9096,2.9069,2.8837,2.8396,2.8515,2.993,2.9723,2.9684,2.9593,2.9515,2.8021,2.6262,2.4668,2.229,3.1346,3.0995,3.1424,3.158,3.1618,3.2073,3.2644,3.3219,3.3799,3.3955,3.3904,3.4225,3.4277,3.3943,3.2995,3.2501,3.2514,3.2566,3.2579,3.2579,3.254,3.2488,3.2463,3.2463,3.2409,3.2305,3.1769,3.1268,3.0787,3.0787,3.0761,3.0774,3.0852,3.0675,3.048,2.882,2.4226,1.8903,1.9737,1.9702,1.7317,1.6686,1.6449,1.6449,1.6436,1.6297,1.6093,1.606,1.5928,1.5638,1.5631,1.5625,1.5625,1.5605,1.5466,1.517,1.4468,1.6073,2.0359,2.2746,2.4716,2.6931,2.745,2.7385,2.7385,2.7385,2.7411,2.7398,2.7628,2.745,2.7489,2.7437,2.7424,2.745,2.7424,2.7424,2.745,2.7944,2.7957,2.7696,2.8434,2.9104,2.9248,2.9554,2.984,2.9982,3.0372,3.0671,3.0645,3.0736,3.0761,3.0761,3.0761,3.0551,3.0474,2.9681,2.9744,2.9327,2.8447,2.9231,2.7845,2.6773,2.6725,2.6674,2.7013,2.791,2.8814,2.9125,2.9164,2.8996,2.8918,2.7825,2.5753,2.5249,2.3252,3.2138,3.1982,3.1735,3.1385,3.1021,3.1177,3.1567,3.2265,3.2742,3.2865,3.3127,3.3838,3.3825,3.2904,3.2631,3.2476,3.2476,3.2476,3.2476,3.2476,3.2476,3.2022,3.1374,3.2035,3.2396,3.2279,3.1429,3.093,3.0787,3.0761,3.0761,3.0761,3.0761,3.0654,3.0386,2.8309,2.3747,1.7479,1.8937,1.9833,1.8996,1.7059,1.5862,1.5862,1.5862,1.5829,1.575,1.5756,1.571,1.5631,1.5625,1.5625,1.5618,1.5618,1.5464,1.5344,1.4461,1.5772,2.0313,2.416,2.6519,2.726,2.7385,2.7385,2.7385,2.7385,2.7385,2.7346,2.7385,2.7346,2.7385,2.7385,2.7385,2.7385,2.7385,2.7385,2.7385,2.7489,2.7632,2.7428,2.7827,2.8176,2.9001,2.913,2.9294,2.9359,2.9801,3.0164,3.019,3.0476,3.0723,3.0761,3.0749,2.9693,2.7515,2.7275,2.6083,2.5534,2.5242,2.5624,2.6049,2.5836,2.5888,2.6054,2.7761,2.8512,2.8866,2.8931,2.9009,2.8554,2.8139,2.7092,2.5392,2.475,2.2795,3.1774,3.1748,3.1411,3.1203,3.1177,3.1372,3.1657,3.1956,3.1764,3.2138,3.2411,3.2623,3.2424,3.1774,3.1774,3.1787,3.1787,3.1787,3.1774,3.1774,3.1774,3.1355,3.0948,3.1777,3.203,3.1695,3.0956,3.0658,3.0424,3.019,3.0203,3.0411,3.0671,3.0761,3.0577,2.8293,2.3487,1.6415,1.8408,1.9853,2.0009,1.7155,1.5625,1.5625,1.5625,1.5625,1.5625,1.5625,1.5625,1.5618,1.5506,1.5453,1.5631,1.5565,1.5349,1.482,1.4324,1.5575,1.9146,2.4317,2.6928,2.6031,2.6867,2.7385,2.7385,2.7385,2.7354,2.7349,2.7416,2.7335,2.6996,2.7022,2.7139,2.7346,2.7385,2.7385,2.7385,2.7385,2.7385,2.7385,2.7385,2.7732,2.8239,2.8372,2.8463,2.8762,2.9229,2.9567,2.9593,2.9853,3.0073,2.9906,2.9158,2.7551,2.5142,2.4963,2.5162,2.4255,2.3702,2.3169,2.4078,2.343,2.3261,2.5196,2.5129,2.5517,2.7742,2.8359,2.832,2.8048,2.7389,2.7121,2.5912,2.495,2.2969,3.0787,3.0761,3.08,3.1073,3.1541,3.1969,3.2177,3.2023,3.1135,3.1148,3.1868,3.0816,3.0418,3.0761,3.08,3.0826,3.0826,3.0774,3.08,3.0813,3.0774,3.0761,3.0865,3.1307,3.1281,3.0839,3.0697,3.0411,2.9969,2.9411,2.9372,2.9866,3.0411,3.0658,3.0303,2.8269,2.3812,1.7221,1.8748,1.9833,2.0058,1.7169,1.5625,1.5625,1.5625,1.5625,1.5625,1.5625,1.5611,1.5572,1.5524,1.5565,1.5317,1.5445,1.4984,1.3997,1.4116,1.5029,1.7119,2.2995,2.5823,2.4202,2.5972,2.7165,2.7178,2.7191,2.7135,2.7232,2.713,2.6854,2.6386,2.645,2.6619,2.7022,2.7178,2.7294,2.7282,2.7346,2.7385,2.7385,2.7385,2.7385,2.7602,2.7502,2.7671,2.81,2.8645,2.9009,2.9021,2.9151,2.9242,2.8635,2.6966,2.4796,2.3148,2.3916,2.3984,2.3862,2.4092,2.3127,2.1432,1.9847,1.8796,2.1874,2.1461,2.2638,2.5134,2.7044,2.6931,2.6626,2.7121,2.7398,2.7221,2.5548,2.3032,3.0761,3.0761,3.0761,3.0839,3.0943,3.0645,3.0761,3.0887,2.9883,2.9889,3.0149,2.7814,2.8245,3.0577,3.0761,3.0761,3.0761,3.0761,3.0761,3.0761,3.0761,3.0761,3.0787,3.0891,3.0904,3.0749,3.032,3.006,2.9879,2.9359,2.9151,2.932,2.984,2.9906,2.9519,2.7893,2.7198,2.7068,2.3995,2.0571,1.6783,1.6011,1.5625,1.5625,1.5625,1.5625,1.5625,1.5625,1.5526,1.5498,1.5606,1.5084,1.4302,1.4216,1.4029,1.3775,1.3934,1.4201,1.4923,1.9287,2.2311,2.3014,2.4927,2.6061,2.6061,2.571,2.575,2.5917,2.5799,2.5697,2.584,2.5879,2.5918,2.6061,2.645,2.6697,2.6749,2.7126,2.7385,2.7385,2.7385,2.7385,2.7385,2.7385,2.745,2.7645,2.8061,2.8398,2.8476,2.8827,2.8645,2.7737,2.5863,2.3518,2.159,2.1461,2.0447,1.6821,1.6845,1.7741,1.8423,1.8002,1.8251,1.9954,2.0516,2.1149,2.1965,2.3476,2.4637,2.4814,2.5854,2.7044,2.6867,2.5157,2.2789,3.0528,3.0761,3.0761,3.0619,3.0177,2.8952,2.8491,2.8298,2.7227,2.7966,2.9584,2.8593,2.9022,3.0761,3.0761,3.0761,3.0761,3.0761,3.0761,3.0761,3.0761,3.0761,3.0761,3.0761,3.0761,3.0736,3.0203,2.9801,2.9515,2.897,2.8697,2.871,2.8996,2.9093,2.9161,2.8602,2.6784,2.3754,2.0845,1.8031,1.5626,1.5431,1.5242,1.5236,1.5236,1.5236,1.5236,1.511,1.5157,1.5173,1.4917,1.4398,1.3806,1.3784,1.3792,1.3738,1.3653,1.3423,1.3449,1.5845,1.8261,2.0918,2.3136,2.4521,2.4782,2.4691,2.4691,2.4866,2.4704,2.4795,2.523,2.5269,2.5373,2.5645,2.5931,2.6126,2.6204,2.6632,2.6821,2.6646,2.7028,2.7385,2.7385,2.7385,2.7385,2.7411,2.7619,2.7827,2.7853,2.8113,2.7361,2.4801,2.331,2.1119,1.8104,1.8274,1.8104,1.591,1.5413,1.5918,1.6941,1.6267,1.677,1.8621,1.9119,1.9457,2.0625,2.1621,2.2289,2.2456,2.3654,2.4163,2.4163,2.331,2.1134,3.0138,3.0645,3.0567,3.0307,2.9725,2.7467,2.606,2.5566,2.4465,2.6198,2.9853,3.002,3.0264,3.0645,3.0658,3.0606,3.0541,3.0541,3.0541,0.0,3.0541,3.058,3.0645,3.0645,3.0697,3.0723,3.019,2.9645,2.9086,2.8515,2.8177,2.8113,2.81,2.8398,2.897,2.8793,2.4826,1.6925,1.5806,1.5274,1.5519,1.4957,1.4768,1.4768,1.4741,1.4708,1.4708,1.461,1.4436,1.4383,1.3916,1.3541,1.351,1.3757,1.3734,1.3757,1.3215,1.2908,1.2742,1.2902,1.4631,1.8702,2.1203,2.2606,2.2881,2.3439,2.3827,2.3918,2.397,2.4126,2.4715,2.4793,2.4853,2.5321,2.549,2.5554,2.5554,2.6061,2.6227,2.5872,2.6556,2.7243,2.7406,2.7484,2.7385,2.7385,2.745,2.7411,2.7437,2.7385,2.5524,2.2133,2.0625,1.8443,1.6251,1.6089,1.6933,1.6941,1.6608,1.6259,1.643,1.5242,1.4907,1.643,1.6707,1.7343,1.8842,1.9829,1.9862,1.9999,2.0496,2.0867,2.1012,2.036,1.9186,2.9567,3.0021,2.9567,2.9593,2.9699,2.6894,2.552,2.498,0.0,0.0,0.0,2.7611,2.8033,3.0073,3.0086,2.9827,2.9398,2.9385,2.9385,2.9385,2.9385,2.9619,2.9854,3.0073,3.032,3.0723,3.0203,2.9632,2.9086,2.8502,2.7983,2.7567,2.7541,2.7801,2.8032,2.5027,2.2972,2.2349,1.9215,1.6652,1.495,1.4774,1.4768,1.4768,1.4537,1.4405,1.4405,1.3759,1.3159,1.2783,1.2517,1.2462,1.257,1.3285,1.3604,1.3216,1.2993,1.2501,1.1693,1.201,1.4154,1.8003,2.0121,2.0313,1.781,2.1154,2.3399,2.3879,2.3918,2.3944,2.4048,2.4061,2.4113,2.4217,2.4659,2.4944,2.497,2.5464,2.5827,2.5724,2.615,2.6857,2.7269,2.7437,2.7385,2.7385,2.7385,2.7385,2.7385,2.7372,2.6183,2.3465,2.0121,1.7782,1.677,1.6941,1.643,1.4899,1.4564,1.4386,1.4392,1.4049,1.4056,1.4515,1.4187,1.4392,1.4684,1.6288,1.7012,1.7004,1.8607,1.9902,1.9733,1.8296,1.6801,2.8554,0.0,2.8463,2.8216,0.0,0.0,2.3555,2.1896,2.1439,2.2593,2.4915,2.5487,2.6362,2.765,2.9007,2.9346,2.9274,2.9274,2.9274,2.9274,2.9274,2.9229,2.9299,2.9502,2.9801,3.032,2.9775,2.9372,2.9073,2.8502,2.7788,2.6957,2.6944,2.6944,2.6782,2.4685,2.1725,1.8027,1.6584,1.5379,1.4306,1.4319,1.4326,1.4313,0.0,0.0,0.0,0.0,0.0,0.0,0.0,0.0,0.0,0.0,0.0,1.2599,1.215,1.162,1.1027,1.1147,1.2417,1.4976,1.6392,1.6518,1.498,1.8502,2.1639,2.3661,2.3357,2.3165,2.3451,2.375,2.3918,2.3931,2.4165,2.4334,2.4386,2.4866,2.5191,2.494,2.5556,2.64,2.723,2.7162,2.7048,2.7333,2.7385,2.7385,2.7385,2.6513,2.5322,2.3963,2.0121,1.6941,1.5755,1.5584,1.5071,1.4221,1.3878,1.3825,1.37,1.3673,1.3614,1.3469,1.3344,1.3245,1.3395,1.4886,1.6172,1.6339,1.7134,1.7993,1.8778,1.7946,1.6713,2.7489,2.7853,2.7307,2.6853,2.6172,2.3728,2.135,1.92,1.92,1.9624,2.0576,2.3309,2.4376,2.4681,2.7205,2.8257,2.8078,2.8538,2.8762,2.8762,2.8762,2.8827,2.8905,2.8814,2.906,2.9541,2.8918,2.8658,2.8762,2.8177,2.7476,2.6697,2.6684,2.6399,0.0,0.0,0.0,0.0,1.3655,1.3825,1.3878,1.3878,1.3878,1.3878,1.3831,0.0,1.3146,1.2373,1.1231,0.9888,0.3537,0.0,0.0,0.0,0.0,0.0,0.0,0.0,0.0,0.0,0.0,0.0,1.2361,1.2753,1.3255,1.5473,1.8791,2.279,2.2467,2.2204,2.2555,2.3009,2.336,2.3555,2.3581,2.3685,2.3918,2.4321,2.4446,2.3952,2.4799,2.5864,2.6791,2.6504,2.6567,2.7087,2.7217,2.7053,2.6688,2.4977,2.3508,2.2622,1.9616,1.66,1.4221,1.3825,1.3949,1.3621,1.3772,1.362,1.3436,1.3383,1.3284,1.3106,1.2974,1.2941,1.2935,1.4458,1.5785,1.5817,1.6132,1.6733,1.7782,1.808,1.7491,2.6511,2.6697,2.6126,2.6139,2.6253,2.2733,2.0421,1.8941,1.8941,1.9343,1.9961,2.1147,2.1487,2.1373,2.4228,2.5036,2.4413,2.6538,2.7593,2.7606,2.7593,2.7866,2.8307,2.7827,2.7892,2.8385,2.7359,2.7113,2.758,2.7022,2.6918,2.7256,2.7269,2.6983,2.6253,2.3985,2.1366,1.8354,1.5118,1.3634,1.3871,1.3878,1.3878,1.3871,1.3647,1.3367,1.3206,0.9757,0.5877,0.1797,0.0,0.0,0.0,0.1005,0.4359,0.0,0.7682,0.0,0.0,0.0,0.0,0.0,0.0,0.0,0.0,1.1836,1.4166,2.0509,2.1279,2.1308,2.1018,2.1044,2.136,2.2308,2.2425,2.2828,2.3776,2.3983,2.4022,2.3865,2.4529,2.5068,2.5361,2.5642,2.5996,2.6502,2.6554,2.5828,2.4106,2.3278,2.1953,1.8585,1.7621,1.6174,1.4317,1.366,1.3515,1.3495,1.3337,1.3126,1.3086,1.308,1.3067,1.2994,1.2796,1.2645,1.2632,1.4107,1.5301,1.5317,1.6671,1.7801,1.7962,1.807,1.7491,2.5554,2.5503,2.4944,2.4231,2.3178,2.0532,1.8464,1.6706,1.5593,1.5399,1.5629,1.5933,1.688,1.8224,2.0899,2.2438,2.3183,2.437,2.5459,2.6437,2.6437,2.6567,2.6788,2.6554,2.6736,2.7243,2.645,2.6347,2.6853,2.6321,2.6178,2.6437,2.6437,2.6139,2.5414,2.2017,1.9991,1.9522,1.535,1.3432,1.3871,1.3878,1.3878,1.3878,1.3615,1.3576,1.3418,0.6878,0.2155,0.0,0.0,0.0,0.0,0.0,0.1461,0.0,0.0,0.0,0.0,0.0,0.0,0.0,0.0,0.0,0.0,0.0,1.2546,0.0,0.0,0.0,2.0678,2.0815,2.1062,2.1256,2.1282,2.1477,2.1971,2.2433,2.2391,2.2085,2.3117,2.3931,2.4414,2.4529,2.5022,2.5918,2.5217,2.3956,2.2397,2.1138,1.9643,1.7004,1.5579,1.4555,1.3569,1.3297,1.3225,1.3212,1.3113,1.2968,1.281,1.2777,1.2724,1.2579,1.2447,1.2355,1.2501,1.3883,1.5128,1.5426,1.6752,1.7933,1.807,1.807,1.7481,2.4845,2.4503,2.2918,2.127,1.9335,1.7903,1.6219,1.4375,1.2831,1.2214,1.2071,1.2287,1.3301,1.512,1.7616,1.9766,2.1672,2.237,2.366,2.5671,2.5671,2.5671,2.5671,2.5542,2.5684,2.6048,2.5542,2.5542,2.6061,2.5542,2.5334,2.5451,2.4865,2.4409,2.3855,1.9956,1.838,1.9011,1.529,1.3497,1.3871,1.3878,1.3878,1.3878,1.3751,1.2716,1.0441,0.3743,0.0,0.0,0.0,0.0,0.0,0.0,0.0,0.0,0.0,0.0,0.0,0.0,0.0,0.0,0.0,1.0481,0.893,0.0,1.157,0.0,1.768,2.0127,2.0247,2.0386,0.0,0.0,2.0205,2.0339,2.0639,2.0861,2.0971,2.0822,2.1968,2.288,2.3438,2.3516,2.3892,2.4879,2.3606,2.1948,2.06,1.8851,1.7037,1.5265,1.3774,1.2823,1.2829,1.2869,1.2915,1.2922,1.2856,1.2744,1.2519,1.2487,1.2574,1.2374,1.217,1.217,1.2177,1.38,1.4979,1.4681,1.5723,1.6752,1.6743,1.7038,1.6752,2.4464,2.358,1.9436,1.666,1.5168,1.4898,1.394,1.2464,1.2307,1.2005,1.1781,1.2051,1.2174,1.2245,1.4741,0.0,0.0,2.1235,2.3438,2.5671,2.5671,2.5671,2.5645,2.51,2.5015,2.5068,2.4321,2.4347,2.5028,2.436,2.4321,2.4814,2.2833,2.1681,2.1547,1.8261,1.6473,1.6532,1.4727,1.3686,1.3878,1.3878,1.3878,1.3878,1.3751,0.9898,0.1556,0.0,0.0,0.0,0.0,0.0,0.0,0.0,0.0,0.0,0.0,0.0,0.0,0.0,0.0,0.0,0.0,0.0,0.0,0.0,0.0,0.0,1.7114,0.0,1.8958,1.8517,0.0,0.0,0.0,1.949,2.0548,2.0036,2.0002,2.1181,0.0,0.0,0.0,0.0,2.2581,2.3204,2.1722,1.9658,1.7705,1.6351,1.4729,1.2922,1.2367,1.2387,1.2269,1.2434,1.2559,1.2552,1.2401,1.2401,1.2354,1.221,1.221,1.2177,1.217,1.217,1.217,1.38,1.4681,1.2915,1.2758,1.2765,1.3058,1.4241,1.483,2.1991,2.104,1.8136,1.645,1.5629,1.3539,1.2334,1.19,1.1746,1.1577,1.1458,1.1577,1.1372,1.1073,1.1998,0.0,0.0,0.0,1.8654,2.1801,2.1801,2.2568,2.4061,2.3853,2.3918,2.423,2.4022,2.4035,2.4256,2.4022,2.2927,0.0,0.0,0.0,1.8666,1.625,1.5514,1.6155,1.439,1.3537,1.3878,1.3878,1.3878,1.3884,1.3764,0.9498,0.0,0.0,0.0,0.0,0.0,0.0,0.0,0.0,0.0,0.0,0.0,0.0,0.0,0.0,0.0,0.0,0.0,0.9362,0.0,0.0,0.0,0.0,1.6923,1.8646,1.8309,1.8413,0.0,0.0,0.0,0.0,0.0,0.0,0.0,1.967,2.0737,2.1451,2.1672,2.1698,2.1384,2.0673,1.9616,1.7824,1.5031,0.0,1.3523,1.189,1.1629,1.1689,1.1867,1.184,1.1794,1.1794,1.1847,1.19,1.1906,1.2051,1.2163,1.217,1.217,1.217,1.217,1.2765,1.3058,1.2471,1.217,1.217,1.217,1.2908,1.3208,1.907,0.0,0.0,0.0,0.0,1.3058,1.1692,1.1471,1.1336,1.1114,1.0911,1.0997,0.0,0.0,0.0,0.0,0.0,0.0,1.5261,1.8401,1.8837,2.0081,2.2013,2.2484,2.2841,2.3165,2.3009,2.2945,2.2945,2.2092,2.0286,1.7327,0.0,0.0,0.0,0.0,1.3962,1.4914,1.3865,1.3426,1.3878,1.3878,1.3878,1.3878,1.3871,0.9416,0.0,0.0,0.0,0.0,0.0,0.0,0.0,0.0,0.0,0.0,0.0,0.0,0.0,0.0,0.0,0.0,0.0,0.0,0.0,0.0,0.0,0.0,0.0,0.0,1.7432,1.8115,1.8322,0.0,0.0,0.0,0.0,0.0,0.0,0.0,0.0,0.0,2.0755,2.0759,2.0112,0.0,0.0,1.6078,1.3502,1.2874,1.2452,1.1296,0.0,0.0,0.0,1.124,1.1181,1.1267,1.1524,1.1722,1.1722,1.1827,1.1913,1.1913,1.1979,1.2012,1.1933,1.1913,1.1906,1.1913,1.1913,1.1913,1.1913,1.1913,1.1906,0.0,0.0,0.0,0.0,0.0,0.0,0.0,0.0,1.1167,1.0705,0.0,1.0331,0.0,0.0,0.0,0.0,0.0,0.0,0.0,0.0,1.7668,1.8715,1.9464,2.0933,2.1607,0.0,2.0932,2.0672,2.0497,1.797,0.0,0.0,0.0,0.0,0.0,0.0,1.202,1.2361,1.3027,1.3426,1.3693,1.3878,1.3878,1.3871,1.3862,0.9457,0.0,0.0,0.0,0.0,0.0,0.0,0.0,0.0,0.0,0.0,0.0,0.0,0.0,0.0,0.0,0.0,0.0,0.0,0.0,0.0,0.0,0.0,0.0,0.0,0.0,1.7215,0.0,0.0,0.0,0.0,0.0,0.0,0.0,0.0,0.0,0.0,1.9619,1.9017,1.8644,1.9094,0.0,0.0,0.0,0.0,1.1206,1.0685,1.0456,1.0599,1.0619,1.0713,1.097,1.1221,0.0,0.0,1.1715,1.1491,1.1326,1.1313,1.1557,1.1643,1.1366,1.1333,1.1333,1.1326,1.1366,1.1326,1.1313,1.1399,1.1386,0.0,0.0,0.0,0.0,0.0,0.0,0.0,0.0,0.0,0.0,0.0,0.9439,0.0,0.0,0.0,0.0,0.0,0.0,0.0,0.0,1.4206,1.5391,1.6902,1.8408,1.8696,0.0,1.7947,1.6959,0.0,0.0,0.0,0.0,0.0,0.0,0.0,0.0,1.1577,1.19,1.2737,1.3317,1.3601,1.3785,1.3878,1.3878,1.3809,0.9395,0.0,0.0,0.0,0.0,0.0,0.0,0.0,0.0,0.0,0.0,0.0,0.0,0.0,0.0,0.0,0.0,0.0,0.0,0.0,0.0,0.0,0.0,0.0,0.0,0.0,0.0,1.7047,0.0,0.0,0.0,0.0,0.0,0.0,0.0,0.0,0.0,1.9242,1.8636,1.7938,1.7218,1.5124,1.3308,1.2214,0.0,0.0,0.0,0.0,0.0,0.0,0.0,1.0832,1.0733,1.1079,1.1221,1.1128,1.1227,1.1273,1.1273,0.0,0.0,1.1062,1.1155,1.1273,1.1273,1.159,1.1742,1.1359,1.1583,1.1748,0.0,0.0,0.0,0.0,0.0,0.0,0.0,0.0,0.0,0.0,0.9161,0.0,0.0,0.0,0.0,0.0,0.0,0.0,0.0,0.0,0.0,0.0,1.4288,1.6461,0.0,0.0,0.0,0.0,0.0,0.0,0.0,0.0,0.0,0.0,0.0,0.0,1.1333,1.1735,1.2423,1.3003,1.3462,1.3739,1.3831,1.3739,1.3742,1.0759,0.4253,0.0,0.0,0.0,0.0,0.0,0.0,0.0,0.0,0.0,0.0,0.0,0.0,0.0,0.0,0.0,0.0,0.0,0.0,0.0,0.0,0.0,0.0,0.0,0.0,0.0,1.5686,0.0,0.0,0.0,0.0,0.0,0.0,0.0,0.0,0.0,0.0,0.0,1.6451,1.573,1.4026,1.2395,1.14,1.1273,1.1339,0.0,0.0,0.0,0.0,0.0,0.0,0.0,0.0,0.0,0.0,0.0,0.0,0.0,0.0,1.0931,1.0753,1.0858,1.099,1.099,0.0,0.0,0.0,0.0,0.0,0.0,0.0,0.0,0.0,0.0,0.0,0.0,0.0,0.0,0.0,0.0,0.0,0.0,0.8676,0.0,0.0,0.0,0.0,0.0,0.0,0.0,0.0,0.0,0.0,0.0,0.0,0.0,0.0,0.0,0.0,0.0,0.0,0.0,0.0,0.0,0.0,0.0,1.1564,1.2093,1.2658,1.3449,1.3733,1.3752,1.3489,1.3629,1.3228,1.2085,0.0,0.0,0.0,0.0,0.0,0.0,0.0,0.0,0.0,0.0,0.0,0.0,0.0,0.0,0.0,0.0,0.0,0.0,0.0,0.0,0.0,0.0,0.0,0.0,0.0,0.0,1.4929,1.6679,1.7768,0.0,0.0,0.0,0.0,0.0,0.0,0.0,0.0,0.0,0.0,1.3058,1.1596,1.1326,1.1287,1.1306,1.13,1.1076,1.0983,1.124,1.128,1.128,0.0,0.0,0.0,0.0,0.0,0.0,0.0,0.0,0.0,0.0,0.0,0.0,0.0,0.0,0.0,0.0,0.0,0.0,0.0,0.0,0.0,0.0,0.0,0.0,0.0,0.0,0.0,0.0,0.0,0.0,0.0,0.0,0.0,0.0,0.0,0.0,0.0,0.0,0.0,0.0,0.0,0.0,0.0,0.0,0.0,0.0,0.0,0.0,0.0,0.0,0.0,0.0,0.0,0.0,1.1049,1.1412,1.1997,1.2569,1.3152,1.3634,1.3582,1.3469,1.3397,1.2876,0.0,0.0,0.0,0.0,0.0,0.0,0.0,0.0,0.0,0.0,0.0,0.0,0.0,0.0,0.0,0.0,0.0,0.0,0.0,0.0,0.0,0.0,0.0,0.0,0.0,0.0,0.0,0.0,1.5964,1.6947,1.6588,0.0,0.0,0.0,0.0,0.0,0.0,0.0,0.0,0.0,0.0,1.1451,1.157,1.1583,1.159,1.159,1.1517,1.1425,1.1293,1.1451,1.1451,1.1056,0.0,0.0,0.0,0.0,0.0,0.0,0.0,0.0,0.0,0.0,0.0,0.0,0.0,0.0,0.0,0.0,0.0,0.0,0.0,0.0,0.0,0.0,0.0,0.0,0.0,0.0,0.0,0.0,0.0,0.0,0.0,0.0,0.0,0.0,0.0,0.0,0.0,0.0,0.0,0.0,0.0,0.0,0.0,0.0,0.0,0.0,0.0,0.0,0.0,0.0,0.0,0.0,0.0,1.0891,1.128,1.1845,1.2576,1.3034,1.3535,1.3642,1.3297,1.2901,1.2491,0.0,0.0,0.0,0.0,0.0,0.0,0.0,0.0,0.0,0.0,0.0,0.0,0.0,0.0,0.0,0.0,0.0,0.0,0.0,0.0,0.0,0.0,0.0,0.0,0.0,0.0,0.0,0.0,1.4051,1.4846,1.5132,0.0,0.0,0.0,0.0,0.0,0.0,0.0,0.0,0.0,0.0,1.1346,1.1524,1.1544,0.0,0.0,1.1629,1.1524,1.1458,1.1702,1.1695,1.1115,1.1166,0.0,0.0,0.0,0.0,0.0,0.0,0.0,0.0,0.0,0.0,0.0,0.0,0.0,0.0,0.0,0.0,0.0,0.0,0.0,0.0,0.0,0.0,0.0,0.0,0.0,0.0,0.0,0.0,0.0,0.0,0.0,0.0,0.0,0.0,0.0,0.0,0.0,0.0,0.0,0.0,0.0,0.0,0.0,0.0,0.0,0.0,0.0,0.0,0.0,0.0,0.0,0.0,0.0,1.1287,1.198,1.256,1.3007,1.3524,1.3524,1.3021,1.2473,1.1759,0.0,0.0,0.0,0.0,0.0,0.0,0.0,0.0,0.0,0.0,0.0,0.0,0.0,0.0,0.0,0.0,0.0,0.0,0.0,0.0,0.0,0.0,0.0,0.0,0.0,0.0,0.0,0.0,0.0,0.0,0.0,0.0,0.0,0.0,0.0,0.0,0.0,0.0,0.0,0.0,0.0,1.1273,1.1273,1.1273,1.1379,0.0,0.0,1.1359,1.1616,1.1926,1.1939,1.1346,0.0,0.0,0.0,0.0,0.0,0.0,0.0,0.0,0.0,0.0,0.0,0.0,0.0,0.0,0.0,0.0,0.0,0.0,0.0,0.0,0.0,0.0,0.0,0.0,0.0,0.0,0.0,0.0,0.0,0.0,0.0,0.0,0.0,0.0,0.0,0.0,0.0,0.0,0.0,0.0,0.0,0.0,0.0,0.0,0.0,0.0,0.0,0.0,0.0,0.0,0.0,0.0,0.0,0.0,1.1573,1.198,1.256,1.3014,1.3524,1.3524,1.3014,1.2586,0.0,0.0,0.0,0.0,0.0,0.0,0.0,0.0,0.0,0.0,0.0,0.0,0.0,0.0,0.0,0.0,0.0,0.0,0.0,0.0,0.0,0.0,0.0,0.0,0.0,0.0,0.0,0.8978,0.0,0.0,0.0,0.0,0.0,0.0,0.0,0.0,0.0,0.0,0.0,0.0,0.0,0.0,1.1273,1.1273,1.1273,1.1306,0.0,0.0,1.1234,1.1102,1.1504,1.1643,0.0,0.0,0.0,0.0,0.0,0.0,0.0,0.0,0.0,0.0,0.0,0.0,0.0,0.0,0.0,0.0,0.0,0.0,0.0,0.0,0.0,0.0,0.0,0.0,0.0,0.0,0.0,0.0,0.0,0.0,0.0,0.0,0.0,0.0,0.0,0.0,0.0,0.0,0.0,0.0,0.0,0.0,0.0,0.0,0.0,0.0,0.0,0.0,0.0,0.0,0.0,0.0,0.0,0.0,0.0,1.1712,1.1893,1.2254,1.281,1.3203,1.3196,1.2823,1.2485,1.0227,0.0,0.0,0.0,0.0,0.0,0.0,0.0,0.0,0.0,0.0,0.0,0.0,0.0,0.0,0.0,0.0,0.0,0.0,0.0,0.0,0.0,0.0,0.0,0.0,0.0,0.0,0.0,0.0,0.0,0.0,0.0,0.0,0.0,0.0,0.0,0.0,0.0,0.0,0.0,0.0,0.0,0.0,1.126,1.1168,0.0,0.0,0.0,1.1221,1.1062,0.0,0.0,0.0,0.0,0.0,0.0,0.0,0.0,0.0,0.0,0.0,0.0,0.0,0.0,0.0,0.0,0.0,0.0,0.0,0.0,0.0,0.0,0.0,0.0,0.0,0.0,0.0,0.0,0.0,0.0,0.0,0.0,0.0,0.0,0.0,0.0,0.0,0.0,0.0,0.0,0.0,0.0,0.0,0.0,0.0,0.0,0.0,0.0,0.0,0.0,0.0,0.0,0.0,0.0,0.0,0.0,0.0,1.1552,1.157,1.1999,1.2539,1.2779,1.2765,1.2559,1.2433,1.0254,0.0,0.0,0.0,0.0,0.0,0.0,0.0,0.0,0.0,0.0,0.0,0.0,0.0,0.0,0.0,0.0,0.0,0.0,0.0,0.0,0.0,0.0,0.0,0.0,0.0,0.0,0.0,0.0,0.0,0.0,0.0,0.0,0.0,0.0,0.0,0.0,0.0,0.0,0.0,0.0,0.0,1.0964,1.124,1.1036,1.0865,0.0,0.0,0.0,1.1227,1.1451,0.0,0.0,0.0,0.0,0.0,0.0,0.0,0.0,0.0,0.0,0.0,0.0,0.0,0.0,0.0,0.0,0.0,0.0,0.0,0.0,0.0,0.0,0.0,0.0,0.0,0.0,0.0,0.0,0.0,0.0,0.0,0.0,0.0,0.0,0.0,0.0,0.0,0.0,0.0,0.0,0.0,0.0,0.0,0.0,0.0,0.0,0.0,0.0,0.0,0.0,0.0,0.0,0.0,0.0,0.0,0.0,1.1273,1.157,1.1999,1.2539,1.2467,1.2454,1.2559,1.2451,1.032,0.0,0.0,0.0,0.0,0.0,0.0,0.0,0.0,0.0,0.0,0.0,0.0,0.0,0.0,0.0,0.0,0.0,0.0,0.0,0.0,0.0,0.0,0.0,0.0,0.0,0.0,0.0,0.0,0.0,0.0,0.0,0.0,0.0,0.0,0.0,0.0,0.0,0.0,0.0,0.0,0.0,1.0964,1.1234,1.1043,0.0,0.0,0.0,0.0,1.095,1.0997,0.0,0.0,0.0,0.0,0.0,0.0,0.0,0.0,0.0,0.0,0.0,0.0,0.0,0.0,0.0,0.0,0.0,0.0,0.0,0.0,0.0,0.0,0.0,0.0,0.0,0.0,0.0,0.0,0.0,0.0,0.0,0.0,0.0,0.0,0.0,0.0,0.0,0.0,0.0,0.0,0.0,0.0,0.0,0.0,0.0,0.0,0.0,0.0,0.0,0.0,0.0,0.0,0.0,0.0,0.0,0.0,1.126,1.1425,1.1788,1.2355,1.2243,1.2236,1.2368,1.2282,1.1277,0.0,0.0,0.0,0.0,0.0,0.0,0.0,0.0,0.0,0.0,0.0,0.0,0.0,0.0,0.0,0.0,0.0,0.0,0.0,0.0,0.0,0.0,0.0,0.0,0.0,0.0,0.0,0.0,0.0,0.0,0.0,0.0,0.0,0.0,0.0,0.0,0.0,0.0,0.0,0.0,1.0739,1.0759,1.1036,0.0,0.0,0.0,0.0,0.0,0.0,1.095,1.0911,0.0,0.0,0.0,0.0,0.0,0.0,0.0,0.0,0.0,0.0,0.0,0.0,0.0,0.0,0.0,0.0,0.0,0.0,0.0,0.0,0.0,0.0,0.0,0.0,0.0,0.0,0.0,0.0,0.0,0.0,0.0,0.0,0.0,0.0,0.0,0.0,0.0,0.0,0.0,0.0,0.0,0.0,0.0,0.0,0.0,0.0,0.0,0.0,0.0,0.0,0.0,0.0,0.0,0.0,0.0,1.1201,1.1254,1.1544,1.2078,1.2144,1.217,1.2157,1.2201,1.2108,1.1862,0.0,0.0,0.0,0.0,0.0,0.0,0.0,0.0,0.0,0.0,0.0,0.0,0.0,0.0,0.0,0.0,0.0,0.0,0.0,0.0,0.0,0.0,0.0,0.0,0.0,0.0,0.0,0.0,0.0,0.0,0.0,0.0,0.0,0.0,0.0,0.0,0.0,0.0,0.0,1.0712,1.0528,0.0,0.0,0.0,0.0,0.0,0.0,0.0,0.0,1.0884,0.0,0.0,0.0,0.0,0.0,0.0,0.0,0.0,0.0,0.0,0.0,0.0,0.0,0.0,0.0,0.0,0.0,0.0,0.0,0.0,0.0,0.0,0.0,0.0,0.0,0.0,0.0,0.0,0.0,0.0,0.0,0.0,0.0,0.0,0.0,0.0,0.0,0.0,0.0,0.0,0.0,0.0,0.0,0.0,0.0,0.0,0.0,0.0,0.0,0.0,0.0,0.0,0.0,0.0,0.0,0.0,1.1299,1.1445,1.1781,1.2038,1.217,1.2163,1.188,1.1596,0.0,0.0,0.0,0.0,0.0,0.0,0.0,0.0,0.0,0.0,0.0,0.0,0.0,0.0,0.0,0.0,0.0,0.0,0.0,0.0,0.0,0.0,0.0,0.0,0.0,0.0,0.0,0.0,0.0,0.0,0.0,0.0,0.0,0.0,0.0,0.0,0.0,0.0,0.0,1.0612,1.0456,0.0,0.0,0.0,0.0,0.0,0.0,0.0,0.0,1.068,0.0,0.0,0.0,0.0,0.0,0.0,0.0,0.0,0.0,0.0,0.0,0.0,0.0,0.0,0.0,0.0,0.0,0.0,0.0,0.0,0.0,0.0,0.0,0.0,0.0,0.0,0.0,0.0,0.0,0.0,0.0,0.0,0.0,0.0,0.0,0.0,0.0,0.0,0.0,0.0,0.0,0.0,0.0,0.0,0.0,0.0,0.0,0.0,0.0,0.0,0.0,0.0,0.0,0.0,0.0,0.0,0.0,0.0,1.1566,1.2018,1.2167,1.217,1.2157,1.188,1.1533,0.0,0.0,0.0,0.0,0.0,0.0,0.0,0.0,0.0,0.0,0.0,0.0,0.0,0.0,0.0,0.0,0.0,0.0,0.0,0.0,0.0,0.0,0.0,0.0,0.0,0.0,0.0,0.0,0.0,0.0,0.0,0.0,0.0,0.0,0.0,0.0,0.0,0.0,0.0,0.0,0.0,0.0,0.0,0.0,0.0,0.0,0.0,0.0,0.0,0.0,0.0,0.0,0.0,0.0,0.0,0.0,0.0,0.0,0.0,0.0,0.0,0.0,0.0,0.0,0.0,0.0,0.0,0.0,0.0,0.0,0.0,0.0,0.0,0.0,0.0,0.0,0.0,0.0,0.0,0.0,0.0,0.0,0.0,0.0,0.0,0.0,0.0,0.0,0.0,0.0,0.0,0.0,0.0,0.0,0.0,0.0,0.0,0.0,0.0,0.0,0.0,0.0,0.0,0.0,0.0,0.0,0.0,0.0,1.1606,1.2081,1.2134,1.217,1.217,1.1904,1.1155,0.0,0.0,0.0,0.0,0.0,0.0,0.0,0.0,0.0,0.0,0.0,0.0,0.0,0.0,0.0,0.0,0.0,0.0,0.0,0.0,0.0,0.0,0.0,0.0,0.0,0.0,0.0,0.0,0.0,0.0,0.0,0.0,0.0,0.0,0.0,0.0,0.0,0.0,0.0,0.0,0.0,0.0,0.0,0.0,0.0,0.0,0.0,0.0,1.0733,0.0,0.0,0.0,0.0,0.0,0.0,0.0,0.0,0.0,0.0,0.0,0.0,0.0,0.0,0.0,0.0,0.0,0.0,0.0,0.0,0.0,0.0,0.0,0.0,0.0,0.0,0.0,0.0,0.0,0.0,0.0,0.0,0.0,0.0,0.0,0.0,0.0,0.0,0.0,0.0,0.0,0.0,0.0,0.0,0.0,0.0,0.0,0.0,0.0,0.0,0.0,0.0,0.0,0.0,0.0,0.0,0.0,0.0,0.0,1.1564,1.1767,1.2027,1.217,1.215,1.1904,0.9799,0.0,0.0,0.0,0.0,0.0,0.0,0.0,0.0,0.0,0.0,0.0,0.0,0.0,0.0,0.0,0.0,0.0,0.0,0.0,0.0,0.0,0.0,0.0,0.0,0.0,0.0,0.0,0.0,0.0,0.0,0.0,0.0,0.0,0.0,0.0,0.0,0.0,0.0,0.0,0.0,0.0,0.0,0.0,0.0,0.0,0.0,0.0,0.0,0.0,0.0,0.0,0.0,0.0,0.0,0.0,0.0,0.0,0.0,0.0,0.0,0.0,0.0,0.0,0.0,0.0,0.0,0.0,0.0,0.0,0.0,0.0,0.0,0.0,0.0,0.0,0.0,0.0,0.0,0.0,0.0,0.0,0.0,0.0,0.0,0.0,0.0,0.0,0.0,0.0,0.0,0.0,0.0,0.0,0.0,0.0,0.0,0.0,0.0,0.0,0.0,0.0,0.0,0.0,0.0,0.0,0.0,0.0,0.0,1.1532,1.1998,1.1991,1.1821,1.1656,1.1413,0.9366,0.0,0.0,0.0,0.0,0.0,0.0,0.0,0.0,0.0,0.0,0.0,0.0,0.0,0.0,0.0,0.0,0.0,0.0,0.0,0.0,0.0,0.0,0.0,0.0,0.0,0.0,0.0,0.0,0.0,0.0,0.0,0.0,0.0,0.0,0.0,0.0,0.0,0.0,0.0,0.0,0.0,0.0,0.0,0.0,0.0,0.0,0.0,0.0,0.0,0.0,0.0,0.0,0.0,0.0,0.0,0.0,0.0,0.0,0.0,0.0,0.0,0.0,0.0,0.0,0.0,0.0,0.0,0.0,0.0,0.0,0.0,0.0,0.0,0.0,0.0,0.0,0.0,0.0,0.0,0.0,0.0,0.0,0.0,0.0,0.0,0.0,0.0,0.0,0.0,0.0,0.0,0.0,0.0,0.0,0.0,0.0,0.0,0.0,0.0,0.0,0.0,0.0,0.0,0.0,0.0,0.0,0.0,0.0,0.0,1.1886,1.1674,1.1392,1.1175,1.1003,0.9645,0.0,0.0,0.0,0.0,0.0,0.0,0.0,0.0,0.0,0.0,0.0,0.0,0.0,0.0,0.0,0.0,0.0,0.0,0.0,0.0,0.0,0.0,0.0,0.0,0.0,0.0,0.0,0.0,0.0,0.0,0.0,0.0,0.0,0.0,0.0,0.0,0.0,0.0,0.0,0.0,0.0,0.0,0.0,0.0,0.0,0.0,0.0,0.0,0.0,0.0,0.0,0.0,0.0,0.0,0.0,0.0,0.0,0.0,0.0,0.0,0.0,0.0,0.0,0.0,0.0,0.0,0.0,0.0,0.0,0.0,0.0,0.0,0.0,0.0,0.0,0.0,0.0,0.0,0.0,0.0,0.0,0.0,0.0,0.0,0.0,0.0,0.0,0.0,0.0,0.0,0.0,0.0,0.0,0.0,0.0,0.0,0.0,0.0,0.0,0.0,0.0,0.0,0.0,0.0,0.0,0.0,0.0,0.0,0.0,1.1309,1.1046,1.0911,1.0891,1.0634,1.0384,0.0,0.0,0.0,0.0,0.0,0.0,0.0,0.0,0.0,0.0,0.0,0.0,0.0,0.0,0.0,0.0,0.0,0.0,0.0,0.0,0.0,0.0,0.0,0.0,0.0,0.0,0.0,0.0,0.0,0.0,0.0,0.0,0.0,0.0,0.0,0.0,0.0,0.0,0.0,0.0,0.0,0.0,0.0,0.0,0.0,0.0,0.0,0.0,0.0,0.0,0.0,0.0,0.0,0.0,0.0,0.0,0.0,0.0,0.0,0.0,0.0,0.0,0.0,0.0,0.0,0.0,0.0,0.0,0.0,0.0,0.0,0.0,0.0,0.0,0.0,0.0,0.0,0.0,0.0,0.0,0.0,0.0,0.0,0.0,0.0,0.0,0.0,0.0,0.0,0.0,0.0,0.0,0.0,0.0,0.0,0.0,0.0,0.0,0.0,0.0,0.0,0.0,0.0,0.0,0.0,0.0,0.0,0.0,0.0,1.0863,1.0719,1.0588,1.0588,1.0601,0.9443,0.7308,0.0,0.0,0.0,0.0,0.0,0.0,0.0,0.0,0.0,0.0,0.0,0.0,0.0,0.0,0.0,0.0,0.0,0.0,0.0,0.0,0.0,0.0,0.0,0.0,0.0,0.0,0.0,0.0,0.0,0.0,0.0,0.0,0.0,0.0,0.0,0.0,0.0,0.0,0.0,0.0,0.0,0.0,0.0,0.0,0.0,0.0,0.0,0.0,0.0,0.0,0.0,0.0,0.0,0.0,0.0,0.0,0.0,0.0,0.0,0.0,0.0,0.0,0.0,0.0,0.0,0.0,0.0,0.0,0.0,0.0,0.0,0.0,0.0,0.0,0.0,0.0,0.0,0.0,0.0,0.0,0.0,0.0,0.0,0.0,0.0,0.0,0.0,0.0,0.0,0.0,0.0,0.0,0.0,0.0,0.0,0.0,0.0,0.0,0.0,0.0,0.0,0.0,0.0,0.0,0.0,0.0,0.0,0.0,1.0674,1.0601,1.0555,1.0555,1.0476,0.9378,0.0,0.0,0.0,0.0,0.0,0.0,0.0,0.0,0.0,0.0,0.0,0.0,0.0,0.0,0.0,0.0,0.0,0.0,0.0,0.0,0.0,0.0,0.0,0.0,0.0,0.0,0.0,0.0,0.0,0.0,0.0,0.0,0.0,0.0,0.0,0.0,0.0,0.0,0.0,0.0,0.0,0.0,0.0,0.0,0.0,0.0,0.0,0.0,0.0,0.0,0.0,0.0,0.0,0.0,0.0,0.0,0.0,0.0,0.0,0.0,0.0,0.0,0.0,0.0,0.0,0.0,0.0,0.0,0.0,0.0,0.0,0.0,0.0,0.0,0.0,0.0,0.0,0.0,0.0,0.0,0.0,0.0,0.0,0.0,0.0,0.0,0.0,0.0,0.0,0.0,0.0,0.0,0.0,0.0,0.0,0.0,0.0,0.0,0.0,0.0,0.0,0.0,0.0,0.0,0.0,0.0,0.0,0.0,0.0,1.1095,1.099,1.0845,1.0852,1.0588,1.0443,0.0,0.0,0.0,0.0,0.0,0.0,0.0,0.0,0.0,0.0,0.0,0.0,0.0,0.0,0.0,0.0,0.0,0.0,0.0,0.0,0.0,0.0,0.0,0.0,0.0,0.0,0.0,0.0,0.0,0.0,0.0,0.0,0.0,0.0,0.0,0.0,0.0,0.0,0.0,0.0,0.0,0.0,0.0,0.0,0.0,0.0,0.0,0.0,0.0,0.0,0.0,0.0,0.0,0.0,0.0,0.0,0.0,0.0,0.0,0.0,0.0,0.0,0.0,0.0,0.0,0.0,0.0,0.0,0.0,0.0,0.0,0.0,0.0,0.0,0.0,0.0,0.0,0.0,0.0,0.0,0.0,0.0,0.0,0.0,0.0,0.0,0.0,0.0,0.0,0.0,0.0,0.0,0.0,0.0,0.0,0.0,0.0,0.0,0.0,0.0,0.0,0.0,0.0,0.0,0.0,0.0,0.0,0.0,0.0,1.126,0.0,1.0865,0.0,1.0581,1.0443,0.0,0.0,0.0,0.0,0.0,0.0,0.0,0.0,0.0,0.0,0.0,0.0,0.0,0.0,0.0,0.0,0.0,0.0,0.0,0.0,0.0,0.0,0.0,0.0,0.0,0.0,0.0,0.0,0.0,0.0,0.0,0.0,0.0,0.0,0.0,0.0,0.0,0.0,0.0,0.0,0.0,0.0,0.0,0.0,0.0,0.0,0.0,0.0,0.0,0.0,0.0,0.0,0.0,0.0,0.0,0.0,0.0,0.0,0.0,0.0,0.0,0.0,0.0,0.0,0.0,0.0,0.0,0.0,0.0,0.0,0.0,0.0,0.0,0.0,0.0,0.0,0.0,0.0,0.0,0.0,0.0,0.0,0.0,0.0,0.0,0.0,0.0,0.0,0.0,0.0,0.0,0.0,0.0,0.0,0.0,0.0,0.0,0.0,0.0,0.0,0.0,0.0,0.0,0.0,0.0,0.0,0.0,0.0,0.0,1.159,1.1432,1.1234,0.0,1.0733,1.0542,0.0,0.0,0.0,0.0,0.0,0.0,0.0,0.0,0.0,0.0,0.0,0.0,0.0,0.0,0.0,0.0,0.0,0.0,0.0,0.0,0.0,0.0,0.0,0.0,0.0,0.0,0.0,0.0,0.0,0.0,0.0,0.0,0.0,0.0,0.0,0.0,0.0,0.0,0.0,0.0,0.0,0.0,0.0,0.0,0.0,0.0,0.0,0.0,0.0,0.0,0.0,0.0,0.0,0.0,0.0,0.0,0.0,0.0,0.0,0.0,0.0,0.0,0.0,0.0,0.0,0.0,0.0,0.0,0.0,0.0,0.0,0.0,0.0,0.0,0.0,0.0,0.0,0.0,0.0,0.0,0.0,0.0,0.0,0.0,0.0,0.0,0.0,0.0,0.0,0.0,0.0,0.0,0.0,0.0,0.0,0.0,0.0,0.0,0.0,0.0,0.0,0.0,0.0,0.0,0.0,0.0,0.0,0.0,0.0,0.0,1.215,1.1887,1.1313,1.1016,1.0726,0.0,0.0,0.0,0.0,0.0,0.0,0.0,0.0,0.0,0.0,0.0,0.0,0.0,0.0,0.0,0.0,0.0,0.0,0.0,0.0,0.0,0.0,0.0,0.0,0.0,0.0,0.0,0.0,0.0,0.0,0.0,0.0,0.0,0.0,0.0,0.0,0.0,0.0,0.0,0.0,0.0,0.0,0.0,0.0,0.0,0.0,0.0,0.0,0.0,0.0,0.0,0.0,0.0,0.0,0.0,0.0,0.0,0.0,0.0,0.0,0.0,0.0,0.0,0.0,0.0,0.0,0.0,0.0,0.0,0.0,0.0,0.0,0.0,0.0,0.0,0.0,0.0,0.0,0.0,0.0,0.0,0.0,0.0,0.0,0.0,0.0,0.0,0.0,0.0,0.0,0.0,0.0,0.0,0.0,0.0,0.0,0.0,0.0,0.0,0.0,0.0,0.0,0.0,0.0,0.0,0.0,0.0,0.0,0.0,0.0,1.217,0.0,1.1603,1.1122,1.0726,1.0559,0.0,0.0,0.0,0.0,0.0,0.0,0.0,0.0,0.0,0.0,0.0,0.0,0.0,0.0,0.0,0.0,0.0,0.0,0.0,0.0,0.0,0.0,0.0,0.0,0.0,0.0,0.0,0.0,0.0,0.0,0.0,0.0,0.0,0.0,0.0,0.0,0.0,0.0,0.0,0.0,0.0,0.0,0.0,0.0,0.0,0.0,0.0,0.0,0.0,0.0,0.0,0.0,0.0,0.0,0.0,0.0,0.0,0.0,0.0,0.0,0.0,0.0,0.0,0.0,0.0,0.0,0.0,0.0,0.0,0.0,0.0,0.0,0.0,0.0,0.0,0.0,0.0,0.0,0.0,0.0,0.0,0.0,0.0,0.0,0.0,0.0,0.0,0.0,0.0,0.0,0.0,0.0,0.0,0.0,0.0,0.0,0.0,0.0,0.0,0.0,0.0,0.0,0.0,0.0,0.0,0.0,0.0,0.0,0.0,0.0,0.0,1.1906,1.148,1.0979,0.0,0.0,0.0,0.0,0.0,0.0,0.0,0.0,0.0,0.0,0.0,0.0,0.0,0.0,0.0,0.0,0.0,0.0,0.0,0.0,0.0,0.0,0.0,0.0,0.0,0.0,0.0,0.0,0.0,0.0,0.0,0.0,0.0,0.0,0.0,0.0,0.0,0.0,0.0,0.0,0.0,0.0,0.0,0.0,0.0,0.0,0.0,0.0,0.0,0.0,0.0,0.0,0.0,0.0,0.0,0.0,0.0,0.0,0.0,0.0,0.0,0.0,0.0,0.0,0.0,0.0,0.0,0.0,0.0,0.0,0.0,0.0,0.0,0.0,0.0,0.0,0.0,0.0,0.0,0.0,0.0,0.0,0.0,0.0,0.0,0.0,0.0,0.0,0.0,0.0,0.0,0.0,0.0,0.0,0.0,0.0,0.0,0.0,0.0,0.0,0.0,0.0,0.0,0.0,0.0,0.0,0.0,0.0,0.0,0.0,0.0,1.217,1.2163,1.1877,0.0,1.0672,0.0,0.0,0.0,0.0,0.0,0.0,0.0,0.0,0.0,0.0,0.0,0.0,0.0,0.0,0.0,0.0,0.0,0.0,0.0,0.0,0.0,0.0,0.0,0.0,0.0,0.0,0.0,0.0,0.0,0.0,0.0,0.0,0.0,0.0,0.0,0.0,0.0,0.0,0.0,0.0,0.0,0.0,0.0,0.0,0.0,0.0,0.0,0.0,0.0,0.0,0.0,0.0,0.0,0.0,0.0,0.0,0.0,0.0,0.0,0.0,0.0,0.0,0.0,0.0,0.0,0.0,0.0,0.0,0.0,0.0,0.0,0.0,0.0,0.0,0.0,0.0,0.0,0.0,0.0,0.0,0.0,0.0,0.0,0.0,0.0,0.0,0.0,0.0,0.0,0.0,0.0,0.0,0.0,0.0,0.0,0.0,0.0,0.0,0.0,0.0,0.0,0.0,0.0,0.0,0.0,0.0,0.0,0.0,0.0,0.0,0.0,0.0,1.189,1.1505,1.1076,0.0,0.0,0.0,0.0,0.0,0.0,0.0,0.0,0.0,0.0,0.0,0.0,0.0,0.0,0.0,0.0,0.0,0.0,0.0,0.0,0.0,0.0,0.0,0.0,0.0,0.0,0.0,0.0,0.0,0.0,0.0,0.0,0.0,0.0,0.0,0.0,0.0,0.0,0.0,0.0,0.0,0.0,0.0,0.0,0.0,0.0,0.0,0.0,0.0,0.0,0.0,0.0,0.0,0.0,0.0,0.0,0.0,0.0,0.0,0.0,0.0,0.0,0.0,0.0,0.0,0.0,0.0,0.0,0.0,0.0,0.0,0.0,0.0,0.0,0.0,0.0,0.0,0.0,0.0,0.0,0.0,0.0,0.0,0.0,0.0,0.0,0.0,0.0,0.0,0.0,0.0,0.0,0.0,0.0,0.0,0.0,0.0,0.0,0.0,0.0,0.0,0.0,0.0,0.0,0.0,0.0,0.0,0.0,0.0,0.0,1.217,1.2157,1.2027,1.1705,1.1267,0.0,0.0,0.0,0.0,0.0,0.0,0.0,0.0,0.0,0.0,0.0,0.0,0.0,0.0,0.0,0.0,0.0,0.0,0.0,0.0,0.0,0.0,0.0,0.0,0.0,0.0,0.0,0.0,0.0,0.0,0.0,0.0,0.0,0.0,0.0,0.0,0.0,0.0,0.0,0.0,0.0,0.0,0.0,0.0,0.0,0.0,0.0,0.0,0.0,0.0,0.0,0.0,0.0,0.0,0.0,0.0,0.0,0.0,0.0,0.0,0.0,0.0,0.0,0.0,0.0,0.0,0.0,0.0,0.0,0.0,0.0,0.0,0.0,0.0,0.0,0.0,0.0,0.0,0.0,0.0,0.0,0.0,0.0,0.0,0.0,0.0,0.0,0.0,0.0,0.0,0.0,0.0,0.0,0.0,0.0,0.0,0.0,0.0,0.0,0.0,0.0,0.0,0.0,0.0,0.0,0.0,0.0,0.0,0.0,0.0,0.0,0.0,0.0,0.0,1.1267,0.0,0.0,0.0,0.0,0.0,0.0,0.0,0.0,0.0,0.0,0.0,0.0,0.0,0.0,0.0,0.0,0.0,0.0,0.0,0.0,0.0,0.0,0.0,0.0,0.0,0.0,0.0,0.0,0.0,0.0,0.0,0.0,0.0,0.0,0.0,0.0,0.0,0.0,0.0,0.0,0.0,0.0,0.0,0.0,0.0,0.0,0.0,0.0,0.0,0.0,0.0,0.0,0.0,0.0,0.0,0.0,0.0,0.0,0.0,0.0,0.0,0.0,0.0,0.0,0.0,0.0,0.0,0.0,0.0,0.0,0.0,0.0,0.0,0.0,0.0,0.0,0.0,0.0,0.0,0.0,0.0,0.0,0.0,0.0,0.0,0.0,0.0,0.0,0.0,0.0,0.0,0.0,0.0,0.0,0.0,0.0,0.0,0.0,0.0,0.0,0.0,0.0,0.0,0.0,0.0,0.0,0.0,0.0,0.0,0.0,0.0,0.0,0.0,0.0,0.0,0.0,0.0,0.0,0.0,0.0,0.0,0.0,0.0,0.0,0.0,0.0,0.0,0.0,0.0,0.0,0.0,0.0,0.0,0.0,0.0,0.0,0.0,0.0,0.0,0.0,0.0,0.0,0.0,0.0,0.0,0.0,0.0,0.0,0.0,0.0,0.0,0.0,0.0,0.0,0.0,0.0,0.0,0.0,0.0,0.0,0.0,0.0,0.0,0.0,0.0,0.0,0.0,0.0,0.0,0.0,0.0,0.0,0.0,0.0,0.0,0.0,0.0,0.0,0.0,0.0,0.0,0.0,0.0,0.0,0.0,0.0,0.0,0.0,0.0,0.0,0.0,0.0,0.0,0.0,0.0,0.0,0.0,0.0,0.0,0.0,0.0,0.0,0.0,0.0,0.0,0.0,0.0,0.0,0.0,0.0,0.0,0.0,0.0,0.0,0.0,0.0,0.0,0.0,0.0,0.0,0.0,0.0,0.0,0.0,0.0,0.0,0.0,0.0,0.0,0.0,0.0,0.0,0.0,0.0,0.0,0.0,0.0,0.0,0.0,0.0,0.0,0.0,0.0,0.0,0.0,0.0,0.0,0.0,0.0,0.0,0.0,0.0,0.0,0.0,0.0,0.0,0.0,0.0,0.0,0.0,0.0,0.0,0.0,0.0,0.0,0.0,0.0,0.0,0.0,0.0,0.0,0.0,0.0,0.0,0.0,0.0,0.0,0.0,0.0,0.0,0.0,0.0,0.0,0.0,0.0,0.0,0.0,0.0,0.0,0.0,0.0,0.0,0.0,0.0,0.0,0.0,0.0,0.0,0.0,0.0,0.0,0.0,0.0,0.0,0.0,0.0,0.0,0.0,0.0,0.0,0.0,0.0,0.0,0.0,0.0,0.0,0.0,0.0,0.0,0.0,0.0,0.0,0.0,0.0,0.0,0.0,0.0,0.0,0.0,0.0,0.0,0.0,0.0,0.0,0.0,0.0,0.0,0.0,0.0,0.0,0.0,0.0,0.0,0.0,0.0,0.0,0.0,0.0,0.0,0.0,0.0,0.0,0.0,0.0,0.0,0.0,0.0,0.0,0.0,0.0,0.0,0.0,0.0,0.0,0.0,0.0,0.0,0.0,0.0,0.0,0.0,0.0,0.0,0.0,0.0,0.0,0.0,0.0,0.0,0.0,0.0,0.0,0.0,0.0,0.0,0.0,0.0,0.0,0.0,0.0,0.0,0.0,0.0,0.0,0.0,0.0,0.0,0.0,0.0,0.0,0.0,0.0,0.0,0.0,0.0,0.0,0.0,0.0,0.0,0.0,0.0,0.0,0.0,0.0,0.0,0.0,0.0,0.0,0.0,0.0,0.0,0.0,0.0,0.0,0.0,0.0,0.0,0.0,0.0,0.0,0.0,0.0,0.0,0.0,0.0,0.0,0.0,0.0,0.0,0.0,0.0,0.0,0.0,0.0,0.0,0.0,0.0,0.0,0.0,0.0,0.0,0.0,0.0,0.0,0.0,0.0,0.0,0.0,0.0,0.0,0.0,0.0,0.0,0.0,0.0,0.0,0.0,0.0,0.0,0.0,0.0,0.0,0.0,0.0,0.0,0.0,0.0,0.0,0.0,0.0,0.0,0.0,0.0,0.0,0.0,0.0,0.0,0.0,0.0,0.0,0.0,0.0,0.0,0.0,0.0,0.0,0.0,0.0,0.0,0.0,0.0,0.0,0.0,0.0,0.0,0.0,0.0,0.0,0.0,0.0,0.0,0.0,0.0,0.0,0.0,0.0,0.0,0.0,0.0,0.0,0.0,0.0,0.0,0.0,0.0,0.0,0.0,0.0,0.0,0.0,0.0,0.0,0.0,0.0,0.0,0.0,0.0,0.0,0.0,0.0,0.0,0.0,0.0,0.0,0.0,0.0,0.0,0.0,0.0,0.0,0.0,0.0,0.0,0.0,0.0,0.0,0.0,0.0,0.0,0.0,0.0,0.0,0.0,0.0,0.0,0.0,0.0,0.0,0.0,0.0,0.0,0.0,0.0,0.0,0.0,0.0,0.0,0.0,0.0,0.0,0.0,0.0,0.0,0.0,0.0,0.0,0.0,0.0,0.0,0.0,0.0,0.0,0.0,0.0,0.0,0.0,0.0,0.0,0.0,0.0,0.0,0.0,0.0,0.0,0.0,0.0,0.0,0.0,0.0,0.0,0.0,0.0,0.0,0.0,0.0,0.0,0.0,0.0,0.0,0.0,0.0,0.0,0.0,0.0,0.0,0.0,0.0,0.0,0.0,0.0,0.0,0.0,0.0,0.0,0.0,0.0,0.0,0.0,0.0,0.0,0.0,0.0,0.0,0.0,0.0,0.0,0.0,0.0,0.0,0.0,0.0,0.0,0.0,0.0,0.0,0.0,0.0,0.0,0.0,0.0,0.0,0.0,0.0,0.0,0.0,0.0,0.0,0.0,0.0,0.0,0.0,0.0,0.0,0.0,0.0,0.0,0.0,0.0,0.0,0.0,0.0,0.0,0.0,0.0,0.0,0.0,0.0,0.0,0.0,0.0,0.0,0.0,0.0,0.0,0.0,0.0,0.0,0.0,0.0,0.0,0.0,0.0,0.0,0.0,0.0,0.0,0.0,0.0,0.0,0.0,0.0,0.0,0.0,0.0,0.0,0.0,0.0,0.0,0.0,0.0,0.0,0.0,0.0,0.0,0.0,0.0,0.0,0.0,0.0,0.0,0.0,0.0,0.0,0.0,0.0,0.0,0.0,0.0,0.0,0.0,0.0,0.0,0.0,0.0,0.0,0.0,0.0,0.0,0.0,0.0,0.0,0.0,0.0,0.0,0.0,0.0,0.0,0.0,0.0,0.0,0.0,0.0,0.0,0.0,0.0,0.0,0.0,0.0,0.0,0.0,0.0,0.0,0.0,0.0,0.0,0.0,0.0,0.0,0.0,0.0,0.0,0.0,0.0,0.0,0.0,0.0,0.0,0.0,0.0,0.0,0.0,0.0,0.0,0.0,0.0,0.0,0.0,0.0,0.0,0.0,0.0,0.0,0.0,0.0,0.0,0.0,0.0,0.0,0.0,0.0,0.0,0.0,0.0,0.0,0.0,0.0,0.0,0.0,0.0,0.0,0.0,0.0,0.0,0.0,0.0,0.0,0.0,0.0,0.0,0.0,0.0,0.0,0.0,0.0,0.0,0.0,0.0,0.0,0.0,0.0,0.0,0.0,0.0,0.0,0.0,0.0,0.0,0.0,0.0,0.0,0.0,0.0,0.0,0.0,0.0,0.0,0.0,0.0,0.0,0.0,0.0,0.0,0.0,0.0,0.0,0.0,0.0,0.0,0.0,0.0,0.0,0.0,0.0,0.0,0.0,0.0,0.0,0.0,0.0,0.0,0.0,0.0,0.0,0.0,0.0,0.0,0.0,0.0,0.0,0.0,0.0,0.0,0.0,0.0,0.0,0.0,0.0,0.0,0.0,0.0,0.0,0.0,0.0,0.0,0.0,0.0,0.0,0.0,0.0,0.0,0.0,0.0,0.0,0.0,0.0,0.0,0.0,0.0,0.0,0.0,0.0,0.0,0.0,0.0,0.0,0.0,0.0,0.0,0.0,0.0,0.0,0.0,0.0,0.0,0.0,0.0,0.0,0.0,0.0,0.0,0.0,0.0,0.0,0.0,0.0,0.0,0.0,0.0,0.0,0.0,0.0,0.0,0.0,0.0,0.0,0.0,0.0,0.0,0.0,0.0,0.0,0.0,0.0,0.0,0.0,0.0,0.0,0.0,0.0,0.0,0.0,0.0,0.0,0.0,0.0,0.0,0.0,0.0,0.0,0.0,0.0,0.0,0.0,0.0,0.0,0.0,0.0,0.0]}]]]